[[{"header":{"parameterUnit":"m.s-1","parameterCategory":1,"la1":30.6,"la2":28.766,"lo1":-90.7593,"lo2":-88.6598,"dy":0.0162,"dx":0.0183,"nx":116,"ny":114,"refTime":"2024-05-15T12:00:00:Z","depth":0,"parameterNumber":2,"parameterNumberName":"U-component_of_WINDS"},"data":[0.0,0.0,0.0,0.0,0.0,0.0,0.0,0.0,0.0,0.0,0.0,0.0,0.0,0.0,0.0,0.0,0.0,0.0,0.0,0.0,0.0,0.0,0.0,0.0,0.0,0.0,0.0,0.0,0.0,0.0,0.0,0.0,0.0,0.0,0.0,0.0,0.0,0.0,0.0,0.0,0.0,0.0,0.0,0.0,0.0,0.0,0.0,0.0,0.0,0.0,0.0,0.0,0.0,0.0,0.0,0.0,0.0,0.0,0.0,0.0,0.0,0.0,0.0,0.0,0.0,0.0,0.0,0.0,0.0,0.0,0.0,0.0,0.0,0.0,0.0,0.0,0.0,0.0,0.0,0.0,0.0,0.0,0.0,0.0,0.0,0.0,0.0,0.0,0.0,0.0,0.0,0.0,0.0,0.0,0.0,0.0,0.0,0.0,0.0,0.0,0.0,0.0,0.0,0.0,0.0,0.0,0.0,0.0,0.0,0.0,0.0,0.0,0.0,0.0,0.0,0.0,0.0,0.0,0.0,0.0,0.0,0.0,0.0,0.0,0.0,0.0,0.0,0.0,0.0,0.0,0.0,0.0,0.0,0.0,0.0,0.0,0.0,0.0,0.0,0.0,0.0,0.0,0.0,0.0,0.0,0.0,0.0,0.0,0.0,0.0,0.0,0.0,0.0,0.0,0.0,0.0,0.0,0.0,0.0,0.0,0.0,0.0,0.0,0.0,0.0,0.0,0.0,0.0,0.0,0.0,0.0,0.0,0.0,0.0,0.0,0.0,0.0,0.0,0.0,0.0,0.0,0.0,0.0,0.0,0.0,0.0,0.0,0.0,0.0,0.0,0.0,0.0,0.0,0.0,0.0,0.0,0.0,0.0,0.0,0.0,0.0,0.0,0.0,0.0,0.0,0.0,0.0,0.0,0.0,0.0,0.0,0.0,0.0,0.0,0.0,0.0,0.0,0.0,0.0,0.0,0.0,0.0,0.0,0.0,0.0,0.0,0.0,0.0,0.0,0.0,0.0,0.0,0.0,0.0,0.0,0.0,0.0,0.0,0.0,0.0,0.0,0.0,0.0,0.0,0.0,0.0,0.0,0.0,0.0,0.0,0.0,0.0,0.0,0.0,0.0,0.0,0.0,0.0,0.0,0.0,0.0,0.0,0.0,0.0,0.0,0.0,0.0,0.0,0.0,0.0,0.0,0.0,0.0,0.0,0.0,0.0,0.0,0.0,0.0,0.0,0.0,0.0,0.0,0.0,0.0,0.0,0.0,0.0,0.0,0.0,0.0,0.0,0.0,0.0,0.0,0.0,0.0,0.0,0.0,0.0,0.0,0.0,0.0,0.0,0.0,0.0,0.0,0.0,0.0,0.0,0.0,0.0,0.0,0.0,0.0,0.0,0.0,0.0,0.0,0.0,0.0,0.0,0.0,0.0,0.0,0.0,0.0,0.0,0.0,0.0,0.0,0.0,0.0,0.0,0.0,0.0,0.0,0.0,0.0,0.0,0.0,0.0,0.0,0.0,0.0,0.0,0.0,0.0,0.0,0.0,0.0,0.0,0.0,0.0,0.0,0.0,0.0,0.0,0.0,0.0,0.0,0.0,0.0,0.0,0.0,0.0,0.0,0.0,0.0,0.0,0.0,0.0,0.0,0.0,0.0,0.0,0.0,0.0,0.0,0.0,0.0,0.0,0.0,0.0,0.0,0.0,0.0,0.0,0.0,0.0,0.0,0.0,0.0,0.0,0.0,0.0,0.0,0.0,0.0,0.0,0.0,0.0,0.0,0.0,0.0,0.0,0.0,0.0,0.0,0.0,0.0,0.0,0.0,0.0,0.0,0.0,0.0,0.0,0.0,0.0,0.0,0.0,0.0,0.0,0.0,0.0,0.0,0.0,0.0,0.0,0.0,0.0,0.0,0.0,0.0,0.0,0.0,0.0,0.0,0.0,0.0,0.0,0.0,0.0,0.0,0.0,0.0,0.0,0.0,0.0,0.0,0.0,0.0,0.0,0.0,0.0,0.0,0.0,0.0,0.0,0.0,0.0,0.0,0.0,0.0,0.0,0.0,0.0,0.0,0.0,0.0,0.0,0.0,0.0,0.0,0.0,0.0,0.0,0.0,0.0,0.0,0.0,0.0,0.0,0.0,0.0,0.0,0.0,0.0,0.0,0.0,0.0,0.0,0.0,0.0,0.0,0.0,0.0,0.0,0.0,0.0,0.0,0.0,0.0,0.0,0.0,0.0,0.0,0.0,0.0,0.0,0.0,0.0,0.0,0.0,0.0,0.0,0.0,0.0,0.0,0.0,0.0,0.0,0.0,0.0,0.0,0.0,0.0,0.0,0.0,0.0,0.0,0.0,0.0,0.0,0.0,0.0,0.0,0.0,0.0,0.0,0.0,0.0,0.0,0.0,0.0,0.0,0.0,0.0,0.0,0.0,0.0,0.0,0.0,0.0,0.0,0.0,0.0,0.0,0.0,0.0,0.0,0.0,0.0,0.0,0.0,0.0,0.0,0.0,0.0,0.0,0.0,0.0,0.0,0.0,0.0,0.0,0.0,0.0,0.0,0.0,0.0,0.0,0.0,0.0,0.0,0.0,0.0,0.0,0.0,0.0,0.0,0.0,0.0,0.0,0.0,0.0,0.0,0.0,0.0,0.0,0.0,0.0,0.0,0.0,0.0,0.0,0.0,0.0,0.0,0.0,0.0,0.0,0.0,0.0,0.0,0.0,0.0,0.0,0.0,0.0,0.0,0.0,0.0,0.0,0.0,0.0,0.0,0.0,0.0,0.0,0.0,0.0,0.0,0.0,0.0,0.0,0.0,0.0,0.0,0.0,0.0,0.0,0.0,0.0,0.0,0.0,0.0,0.0,0.0,0.0,0.0,0.0,0.0,0.0,0.0,0.0,0.0,0.0,0.0,0.0,0.0,0.0,0.0,0.0,0.0,0.0,0.0,0.0,0.0,0.0,0.0,0.0,0.0,0.0,0.0,0.0,0.0,0.0,0.0,0.0,0.0,0.0,0.0,0.0,0.0,0.0,0.0,0.0,0.0,0.0,0.0,0.0,0.0,0.0,0.0,0.0,0.0,0.0,0.0,0.0,0.0,0.0,0.0,0.0,0.0,0.0,0.0,0.0,0.0,0.0,0.0,0.0,0.0,0.0,0.0,0.0,0.0,0.0,0.0,0.0,0.0,0.0,0.0,0.0,0.0,0.0,0.0,0.0,0.0,0.0,0.0,0.0,0.0,0.0,0.0,0.0,0.0,0.0,0.0,0.0,0.0,0.0,0.0,0.0,0.0,0.0,0.0,0.0,0.0,0.0,0.0,0.0,0.0,0.0,0.0,0.0,0.0,0.0,0.0,0.0,0.0,0.0,0.0,0.0,0.0,0.0,0.0,0.0,0.0,0.0,0.0,0.0,0.0,0.0,0.0,0.0,0.0,0.0,0.0,0.0,0.0,0.0,0.0,0.0,0.0,0.0,0.0,0.0,0.0,0.0,0.0,0.0,0.0,0.0,0.0,0.0,0.0,0.0,0.0,0.0,0.0,0.0,0.0,0.0,0.0,0.0,0.0,0.0,0.0,0.0,0.0,0.0,0.0,0.0,0.0,0.0,0.0,0.0,0.0,0.0,0.0,0.0,0.0,0.0,0.0,0.0,0.0,0.0,0.0,0.0,0.0,0.0,0.0,0.0,0.0,0.0,0.0,0.0,0.0,0.0,0.0,0.0,0.0,0.0,0.0,0.0,0.0,0.0,0.0,0.0,0.0,0.0,0.0,0.0,0.0,0.0,0.0,0.0,0.0,0.0,0.0,0.0,0.0,0.0,0.0,0.0,0.0,0.0,0.0,0.0,0.0,0.0,0.0,0.0,0.0,0.0,0.0,0.0,0.0,0.0,0.0,0.0,0.0,0.0,0.0,0.0,0.0,0.0,0.0,0.0,0.0,0.0,0.0,0.0,0.0,0.0,0.0,0.0,0.0,0.0,0.0,0.0,0.0,0.0,0.0,0.0,0.0,0.0,0.0,0.0,0.0,0.0,0.0,0.0,0.0,0.0,0.0,0.0,0.0,0.0,0.0,0.0,0.0,0.0,0.0,0.0,0.0,0.0,0.0,0.0,0.0,0.0,0.0,0.0,0.0,0.0,0.0,0.0,0.0,0.0,0.0,0.0,0.0,0.0,0.0,0.0,0.0,0.0,0.0,0.0,0.0,0.0,0.0,0.0,0.0,0.0,0.0,0.0,0.0,0.0,0.0,0.0,0.0,0.0,0.0,0.0,0.0,0.0,0.0,0.0,0.0,0.0,0.0,0.0,0.0,0.0,0.0,0.0,0.0,0.0,0.0,0.0,0.0,0.0,0.0,0.0,0.0,0.0,0.0,0.0,0.0,0.0,0.0,0.0,0.0,0.0,0.0,0.0,0.0,0.0,0.0,0.0,0.0,0.0,0.0,0.0,0.0,0.0,0.0,0.0,0.0,0.0,0.0,0.0,0.0,0.0,0.0,0.0,0.0,0.0,0.0,0.0,0.0,0.0,0.0,0.0,0.0,0.0,0.0,0.0,0.0,0.0,0.0,0.0,0.0,0.0,0.0,0.0,0.0,0.0,0.0,0.0,0.0,0.0,0.0,0.0,0.0,0.0,0.0,0.0,0.0,0.0,0.0,0.0,0.0,0.0,0.0,0.0,0.0,0.0,0.0,0.0,0.0,0.0,0.0,0.0,0.0,0.0,0.0,0.0,0.0,0.0,0.0,0.0,0.0,0.0,0.0,0.0,0.0,0.0,0.0,0.0,0.0,0.0,0.0,0.0,0.0,0.0,0.0,0.0,0.0,0.0,0.0,0.0,0.0,0.0,0.0,0.0,0.0,0.0,0.0,0.0,0.0,0.0,0.0,0.0,0.0,0.0,0.0,0.0,0.0,0.0,0.0,0.0,0.0,0.0,0.0,0.0,0.0,0.0,0.0,0.0,0.0,0.0,0.0,0.0,0.0,0.0,0.0,0.0,0.0,0.0,0.0,0.0,0.0,0.0,0.0,0.0,0.0,0.0,0.0,0.0,0.0,0.0,0.0,0.0,0.0,0.0,0.0,0.0,0.0,0.0,0.0,0.0,0.0,0.0,0.0,0.0,0.0,0.0,0.0,0.0,0.0,0.0,0.0,0.0,0.0,0.0,0.0,0.0,0.0,0.0,0.0,0.0,0.0,0.0,0.0,0.0,0.0,0.0,0.0,0.0,0.0,0.0,0.0,0.0,0.0,0.0,0.0,0.0,0.0,0.0,0.0,0.0,0.0,0.0,0.0,0.0,0.0,0.0,0.0,0.0,0.0,0.0,0.0,0.0,0.0,0.0,0.0,0.0,0.0,0.0,0.0,0.0,0.0,0.0,0.0,0.0,0.0,0.0,0.0,0.0,0.0,0.0,0.0,0.0,0.0,0.0,0.0,0.0,0.0,0.0,0.0,0.0,0.0,0.0,0.0,0.0,0.0,0.0,0.0,0.0,0.0,0.0,0.0,0.0,0.0,0.0,0.0,0.0,0.0,0.0,0.0,0.0,0.0,0.0,0.0,0.0,0.0,0.0,0.0,0.0,0.0,0.0,0.0,0.0,0.0,0.0,0.0,0.0,0.0,0.0,0.0,0.0,0.0,0.0,0.0,0.0,0.0,0.0,0.0,0.0,0.0,0.0,0.0,0.0,0.0,0.0,0.0,0.0,0.0,0.0,0.0,0.0,0.0,0.0,0.0,0.0,0.0,0.0,0.0,0.0,0.0,0.0,0.0,0.0,0.0,0.0,0.0,0.0,0.0,0.0,0.0,0.0,0.0,0.0,0.0,0.0,0.0,0.0,0.0,0.0,0.0,0.0,0.0,0.0,0.0,0.0,0.0,0.0,0.0,0.0,0.0,0.0,0.0,0.0,0.0,0.0,0.0,0.0,0.0,0.0,0.0,0.0,0.0,0.0,0.0,0.0,0.0,0.0,0.0,0.0,0.0,0.0,0.0,0.0,0.0,0.0,0.0,0.0,0.0,0.0,0.0,0.0,0.0,0.0,0.0,0.0,0.0,0.0,0.0,0.0,0.0,0.0,0.0,0.0,0.0,0.0,0.0,-3.8091,0.0,0.0,0.0,0.0,0.0,0.0,0.0,0.0,0.0,0.0,0.0,0.0,0.0,0.0,0.0,0.0,0.0,0.0,0.0,0.0,0.0,0.0,0.0,0.0,-2.1809,-2.1974,-2.1945,-2.1554,-2.1384,-2.1582,0.0,0.0,0.0,0.0,0.0,-2.1597,-2.163,-2.1687,-2.1842,-2.2246,-2.2902,-2.3786,-2.3753,-2.3128,-2.2048,0.0,0.0,0.0,0.0,0.0,0.0,0.0,0.0,0.0,0.0,0.0,0.0,0.0,0.0,0.0,0.0,0.0,0.0,0.0,0.0,0.0,0.0,0.0,0.0,0.0,0.0,0.0,0.0,0.0,0.0,0.0,0.0,0.0,0.0,0.0,0.0,0.0,0.0,0.0,0.0,0.0,0.0,0.0,0.0,0.0,0.0,0.0,0.0,0.0,0.0,0.0,0.0,0.0,0.0,0.0,0.0,0.0,0.0,0.0,0.0,0.0,0.0,0.0,0.0,0.0,0.0,0.0,0.0,0.0,0.0,0.0,-3.8807,0.0,0.0,0.0,0.0,0.0,0.0,0.0,0.0,0.0,0.0,0.0,0.0,0.0,0.0,0.0,0.0,0.0,0.0,0.0,0.0,0.0,-2.0734,-2.2155,-2.1959,-2.1934,-2.2468,-2.2067,-2.1825,-2.19,-2.184,0.0,0.0,0.0,-2.2032,-2.1735,-2.2151,-2.2501,-2.284,-2.3597,-2.4729,-2.6218,-2.6962,-2.6521,-2.5111,-2.4208,0.0,0.0,0.0,0.0,0.0,0.0,0.0,0.0,0.0,0.0,0.0,0.0,0.0,0.0,0.0,0.0,0.0,0.0,0.0,0.0,0.0,0.0,0.0,0.0,0.0,0.0,0.0,0.0,0.0,0.0,0.0,0.0,0.0,0.0,0.0,0.0,0.0,0.0,0.0,0.0,0.0,0.0,0.0,0.0,0.0,0.0,0.0,0.0,0.0,0.0,0.0,0.0,0.0,0.0,0.0,0.0,0.0,0.0,0.0,0.0,0.0,0.0,0.0,-4.1737,-4.2584,-4.4953,-4.3809,-4.4045,-4.5258,-4.3369,-4.1479,-3.9638,-3.8804,0.0,0.0,0.0,0.0,0.0,0.0,0.0,0.0,0.0,0.0,0.0,0.0,0.0,0.0,0.0,0.0,0.0,0.0,0.0,-2.1352,-2.2212,-2.2237,-2.2507,-2.3207,-2.283,-2.2738,-2.3152,-2.2784,0.0,0.0,-2.1868,-2.1853,-2.2194,-2.2515,-2.2848,-2.3302,-2.5288,-2.7029,-2.857,-2.9296,-2.9867,-3.0133,-2.7448,-2.6139,-2.5875,0.0,0.0,0.0,0.0,0.0,0.0,0.0,0.0,0.0,0.0,0.0,0.0,0.0,0.0,0.0,0.0,0.0,0.0,0.0,0.0,0.0,0.0,0.0,0.0,0.0,0.0,0.0,0.0,0.0,0.0,0.0,0.0,0.0,0.0,0.0,0.0,0.0,0.0,0.0,0.0,0.0,-3.3543,-3.4837,0.0,0.0,0.0,0.0,0.0,0.0,0.0,0.0,0.0,0.0,0.0,0.0,0.0,-4.223,-4.2801,-4.4248,-4.4756,-4.431,-4.5399,-4.6109,-4.6515,-4.6955,-4.7631,-4.8409,-4.8105,0.0,-4.2693,-4.1229,0.0,0.0,0.0,0.0,0.0,0.0,0.0,0.0,0.0,0.0,0.0,0.0,0.0,0.0,0.0,0.0,0.0,0.0,0.0,0.0,0.0,-2.2936,-2.3207,-2.3966,-2.4202,-2.4094,-2.3614,-2.3659,-2.3325,-2.2518,-2.256,-2.2694,-2.2902,-2.385,-2.5076,-2.6539,-2.8349,-2.9788,-3.0871,-3.1596,-3.2138,-3.2374,-3.1055,-2.9513,-2.7873,-2.6633,0.0,0.0,0.0,0.0,0.0,0.0,0.0,0.0,0.0,0.0,0.0,0.0,0.0,0.0,0.0,0.0,0.0,0.0,0.0,0.0,0.0,0.0,0.0,0.0,0.0,0.0,0.0,0.0,0.0,0.0,0.0,0.0,0.0,0.0,0.0,0.0,0.0,0.0,0.0,-3.3322,-3.4977,-3.5988,-3.6112,-3.6199,0.0,0.0,0.0,0.0,0.0,0.0,0.0,0.0,0.0,-4.1922,-4.3809,-4.4993,-4.5331,-4.6819,-4.7597,-4.7729,-4.8342,-4.8883,-4.9289,-4.9627,-4.9932,-5.0236,-5.0236,-4.9304,-4.7517,-4.4171,-4.1203,-3.8652,0.0,0.0,0.0,0.0,-3.7255,-3.7345,0.0,0.0,0.0,0.0,0.0,0.0,0.0,0.0,0.0,0.0,0.0,0.0,-2.3298,-2.3609,-2.4099,-2.4966,-2.5541,-2.5563,-2.4779,-2.4791,-2.4285,-2.3156,-2.3466,-2.3579,-2.341,-2.5236,-2.73,-2.9551,-3.0852,-3.1955,-3.2869,-3.3423,-3.3795,-3.3977,-3.4167,-3.2814,-3.033,-2.8958,-2.7362,-2.5629,0.0,0.0,0.0,0.0,0.0,0.0,0.0,0.0,0.0,0.0,0.0,0.0,0.0,0.0,0.0,0.0,0.0,0.0,0.0,0.0,0.0,0.0,0.0,0.0,0.0,0.0,0.0,0.0,0.0,0.0,0.0,0.0,0.0,0.0,0.0,0.0,0.0,-3.5126,-3.6502,-3.7269,-3.754,-3.7642,0.0,0.0,0.0,0.0,0.0,0.0,-4.1982,-4.2929,-4.3775,-4.4525,-4.6549,-4.7733,-4.7902,-4.9018,-4.983,-5.0371,-5.0371,-5.0777,-5.1488,-5.1488,-5.1589,-5.1792,-5.1792,-5.1526,-5.0826,-4.6709,-4.3504,-4.1102,-4.0437,-4.0068,-3.9948,-4.0098,-4.0157,-4.0277,0.0,0.0,0.0,0.0,0.0,0.0,0.0,0.0,0.0,0.0,0.0,-2.276,-2.3332,-2.4197,-2.5228,-2.6488,-2.6623,-2.6911,-2.7552,-2.632,-2.5187,-2.4443,-2.4425,-2.4135,-2.341,-2.6201,-2.8804,-3.1089,-3.1887,-3.297,-3.437,-3.4438,-3.481,-3.5532,-3.6265,-3.5746,-3.4032,-3.119,-3.0292,-3.0528,-2.6894,0.0,0.0,0.0,0.0,0.0,0.0,0.0,0.0,0.0,0.0,0.0,0.0,0.0,0.0,0.0,0.0,0.0,0.0,0.0,0.0,0.0,0.0,0.0,0.0,0.0,0.0,0.0,0.0,0.0,0.0,0.0,0.0,0.0,0.0,0.0,0.0,0.0,0.0,-3.8802,-3.9503,0.0,0.0,0.0,0.0,-4.1914,-4.2117,-4.2821,-4.4344,-4.5771,-4.6921,-4.7635,-4.9154,-5.027,-5.098,-5.1082,-5.1116,-5.115,-5.115,-5.1555,-5.2232,-5.2232,-5.2672,-5.3382,-5.3382,-5.2437,-5.0742,-4.8181,-4.6689,-4.5706,-4.3243,-4.1871,-4.1392,-4.2021,-4.2261,-4.2351,0.0,0.0,0.0,0.0,0.0,-1.8494,-1.9436,-1.9704,-2.0222,-2.1438,-2.2222,-2.322,-2.4648,-2.5529,-2.6622,-2.8044,-2.8619,-2.8661,-2.8096,-2.6976,-2.6253,-2.6161,-2.5563,-2.6218,-2.8383,-2.9465,-3.1089,-3.3322,-3.3592,-3.4493,-3.5983,-3.5983,-3.6366,-3.711,-3.7381,-3.7212,-3.6535,-3.3998,-3.2273,-3.0987,-2.8687,-2.6961,0.0,0.0,0.0,0.0,0.0,0.0,0.0,0.0,0.0,0.0,0.0,0.0,0.0,0.0,0.0,0.0,0.0,0.0,0.0,0.0,0.0,0.0,0.0,0.0,0.0,0.0,0.0,0.0,0.0,0.0,0.0,0.0,0.0,0.0,0.0,0.0,0.0,-4.0967,-4.1779,0.0,-4.2929,-4.276,-4.3132,-4.4384,-4.4925,-4.5838,-4.7361,-4.8376,-4.9255,-5.0002,-5.098,-5.1657,-5.1928,-5.2435,-5.2706,-5.2706,-5.2706,-5.2841,-5.3078,-5.3078,-5.3247,-5.3518,-5.3518,-5.277,-5.1457,-4.9918,-4.8269,-4.6548,-4.4889,-4.4107,-4.3928,-4.4167,-4.4257,-4.4287,0.0,0.0,0.0,0.0,-1.8386,-1.8865,-1.9429,-1.9613,-2.0192,-2.1598,-2.2606,-2.3918,-2.578,-2.6926,-2.8052,-2.9262,-2.9837,-2.984,-2.9249,-2.7884,-2.7161,-2.7326,-2.6689,-2.7875,-3.1123,-3.1698,-3.2916,-3.4878,-3.5148,-3.5926,-3.7178,-3.7178,-3.7415,-3.7922,-3.8159,-3.8125,-3.7821,-3.6535,-3.4709,-3.2577,-3.1089,-2.9567,-2.8112,0.0,0.0,0.0,0.0,0.0,0.0,0.0,0.0,0.0,0.0,0.0,0.0,0.0,0.0,0.0,0.0,0.0,0.0,0.0,0.0,0.0,0.0,0.0,0.0,0.0,0.0,0.0,0.0,0.0,0.0,0.0,0.0,0.0,0.0,-3.9469,-4.1297,-4.2523,-4.3572,-4.4384,-4.4925,-4.5224,-4.5737,-4.6752,-4.7496,-4.8443,-4.9695,-5.0439,-5.1082,-5.1555,-5.23,-5.2706,-5.2706,-5.3247,-5.3518,-5.3518,-5.3518,-5.3518,-5.3518,-5.3518,-5.3518,-5.3518,-5.3518,-5.2904,-5.1849,-5.0817,-4.9275,-4.7468,-4.6392,-4.5963,-4.5963,-4.5963,-4.5963,-4.5963,0.0,0.0,0.0,-1.8476,-1.8732,-1.8942,-1.9636,-2.0037,-2.0734,-2.1935,-2.3333,-2.4854,-2.6522,-2.8263,-2.9516,-3.0104,-3.0123,-3.0446,-3.1157,-2.9075,-2.7824,-2.7858,-2.7891,-2.9007,-3.1292,-3.2747,-3.418,-3.5667,-3.6434,-3.7212,-3.7922,-3.7922,-3.7956,-3.799,-3.87,-3.8633,-3.8024,-3.8734,-3.7753,-3.5566,-3.41,-3.2611,-3.1123,0.0,0.0,0.0,0.0,0.0,0.0,0.0,0.0,0.0,0.0,0.0,0.0,0.0,0.0,0.0,0.0,0.0,0.0,0.0,0.0,0.0,0.0,0.0,0.0,0.0,0.0,0.0,0.0,0.0,0.0,0.0,0.0,0.0,-3.9073,-4.0967,-4.2658,-4.3436,-4.4891,-4.5805,-4.5838,-4.6481,-4.753,-4.8951,-4.9729,-5.0473,-5.1217,-5.1961,-5.2334,-5.2334,-5.3078,-5.3518,-5.3518,-5.3518,-5.3518,-5.3518,-5.3518,-5.3518,-5.3518,-5.3518,-5.3518,-5.3518,-5.3518,-5.2904,-5.1849,-5.0817,-4.9773,-4.8718,-4.7679,-4.7309,-4.7309,-4.7309,-4.7309,-4.7309,0.0,0.0,-1.8267,-1.8642,-1.9091,-1.9574,-2.0058,-2.0244,-2.0717,-2.1883,-2.3245,-2.4848,-2.6766,-2.8331,-2.9696,-3.0813,-3.0886,-3.0987,-3.119,-2.9075,-2.806,-2.8619,-3.0209,-3.2104,-3.4349,-3.4788,-3.5735,-3.728,-3.7483,-3.7956,-3.87,-3.87,-3.8971,-3.9503,-3.9706,-3.9673,-3.9537,-3.9706,-3.9131,-3.7922,-3.6468,-3.4945,-3.3491,0.0,0.0,0.0,0.0,0.0,0.0,0.0,0.0,0.0,0.0,0.0,0.0,0.0,0.0,0.0,0.0,0.0,0.0,0.0,0.0,0.0,0.0,0.0,0.0,0.0,0.0,0.0,0.0,0.0,0.0,0.0,-3.87,-3.9977,-4.0527,-4.2523,-4.4445,-4.5703,-4.7192,-4.8308,-4.8815,-4.956,-5.0168,-5.0574,-5.1285,-5.1792,-5.1995,-5.2739,-5.3179,-5.3179,-5.3382,-5.3518,-5.3518,-5.3518,-5.3518,-5.3518,-5.3518,-5.3518,-5.3518,-5.3518,-5.3518,-5.3518,-5.3518,-5.2904,-5.1849,-5.0817,-4.9773,-4.8718,-4.7679,-4.7309,-4.7309,-4.7309,-4.7309,-4.7309,0.0,-1.7349,-1.8172,-1.8696,-1.9133,-1.9533,-1.9967,-2.0037,-2.0549,-2.1971,-2.3399,-2.5099,-2.7306,-2.8814,-2.9941,-3.0678,-3.1021,-3.092,-3.033,-2.933,-2.9127,-2.989,-3.2056,-3.3964,-3.5566,-3.6242,-3.7155,-3.8362,-3.8362,-3.8734,-3.9469,-3.9469,-3.9706,-4.0113,-4.0113,-4.0113,-4.0113,-4.0113,-3.9876,-3.9402,-3.8522,-3.7303,-3.5825,-3.5115,-3.4269,-3.341,-3.2341,-3.1732,-3.136,-3.0635,0.0,0.0,0.0,0.0,0.0,0.0,0.0,0.0,0.0,0.0,0.0,0.0,0.0,0.0,0.0,0.0,0.0,0.0,0.0,0.0,0.0,0.0,0.0,0.0,-4.062,-4.2245,-4.2997,-4.4215,-4.5703,-4.7496,-4.8748,-4.9763,-5.0473,-5.1251,-5.1657,-5.1657,-5.2367,-5.2807,-5.2807,-5.3247,-5.3518,-5.3518,-5.3518,-5.3518,-5.3518,-5.3518,-5.3518,-5.3518,-5.3518,-5.3518,-5.3518,-5.3518,-5.3518,-5.3518,-5.3518,-5.2904,-5.1849,-5.1266,-5.0435,-4.9336,0.0,0.0,0.0,0.0,-4.7309,-4.7309,0.0,-1.6877,-1.7636,-1.8627,-1.8912,-1.9118,-1.9533,-1.9672,-2.0322,-2.2096,-2.3471,-2.5242,-2.7722,-2.9161,-2.9992,-3.0085,-3.0625,-3.0437,-2.9222,-2.9901,-3.0717,-3.1529,-3.3525,-3.5047,-3.5938,-3.7313,-3.8396,-3.9106,-3.9106,-3.9469,-4.0113,-4.0113,-4.0113,-4.0113,-4.0113,-4.0113,-4.0113,-4.0113,-4.0113,-4.0113,-4.0113,-3.9276,-3.7956,-3.728,-3.6998,-3.6761,-3.5351,-3.4472,-3.3829,-3.3173,0.0,0.0,0.0,0.0,0.0,0.0,0.0,0.0,0.0,0.0,0.0,0.0,0.0,0.0,0.0,0.0,0.0,0.0,0.0,0.0,0.0,0.0,0.0,0.0,-4.2787,-4.4919,-4.5838,-4.6041,-4.6819,-4.8883,-4.983,-5.0608,-5.1285,-5.1995,-5.2435,-5.2435,-5.3112,-5.3518,-5.3518,-5.3518,0.0,0.0,0.0,-5.3518,-5.3518,-5.3518,-5.3518,-5.3518,-5.3518,-5.3518,-5.3518,-5.3518,-5.3518,-5.3518,-5.3518,-5.2939,-5.2065,-5.1957,-5.1303,-5.0204,-4.824,-4.7409,-4.7309,-4.7309,-4.7309,-4.7309,0.0,-1.7815,-1.8503,-1.8308,-1.8968,-1.9424,-1.9099,-1.9424,-2.0224,-2.1642,-2.2536,-2.3979,-2.6402,-2.7384,-2.8486,-2.9945,-2.9788,-2.9715,-3.0046,-3.1207,-3.2462,-3.3795,-3.4844,-3.6309,-3.8294,-3.8633,-3.914,-3.991,-3.991,-3.9977,-4.0113,-4.0113,-4.0113,-4.0113,-4.0113,-4.0113,-4.0113,-4.0113,-4.0113,-4.0113,-4.0113,-3.9571,-3.8768,-3.8633,-3.8193,-3.7652,-3.7347,-3.7144,-3.7009,-3.6874,-3.5419,-3.3645,-3.3503,-3.2212,0.0,0.0,0.0,0.0,0.0,0.0,0.0,0.0,0.0,0.0,0.0,0.0,0.0,0.0,0.0,0.0,0.0,0.0,0.0,-4.2354,-4.3809,-4.5263,-4.7225,-4.8003,-4.8748,-4.9763,-5.1048,-5.1928,-5.2063,-5.2807,-5.3281,-5.3281,-5.3416,-5.3518,-5.3518,-5.3518,-5.3518,-5.3518,-5.3518,-5.3518,-5.3518,-5.3518,-5.3518,-5.3518,-5.3518,0.0,-5.3518,-5.3518,-5.3518,-5.3518,-5.3518,-5.3382,-5.311,-5.2277,-5.1303,-5.0281,-4.9004,-4.803,-4.7309,-4.7309,-4.7309,-4.7309,-1.6656,-1.7504,-1.7993,-1.7733,-1.8347,-1.8817,-1.8521,-1.8949,-1.9784,-2.1127,-2.212,-2.3611,-2.605,-2.6671,-2.7357,-2.8496,-2.8641,-2.9164,-3.0273,-3.2274,-3.3897,-3.5013,-3.6502,-3.7821,-3.8971,-3.9343,-3.974,-4.0113,-4.0113,-4.0113,-4.0113,-4.0113,-4.0113,-4.0113,-4.0113,-4.0113,-4.0113,-4.0113,-4.0113,-4.0113,-4.0113,-3.9876,-3.9571,-3.9571,-3.9309,-3.9005,-3.9005,-3.8768,-3.8464,-3.8464,-3.695,-3.5159,-3.5542,-3.413,-3.2275,0.0,0.0,0.0,0.0,0.0,0.0,0.0,0.0,0.0,0.0,0.0,0.0,0.0,0.0,-3.7753,-3.9276,0.0,-4.2286,-4.3741,-4.5263,-4.6786,-4.824,-4.9424,-5.0236,-5.0608,-5.1623,-5.2469,-5.2875,-5.3281,-5.3518,-5.3518,-5.3518,-5.3518,-5.3518,-5.3518,-5.3518,-5.3518,-5.3518,-5.3518,-5.3518,-5.3856,-5.4059,-5.4059,-5.4431,-5.46,-5.46,-5.46,-5.46,-5.46,-5.4194,-5.4059,-5.3991,-5.3072,-5.2098,-5.108,-5.0557,-4.9416,-4.7988,-4.7495,-4.7309,-4.7309,-1.6421,-1.6942,-1.7271,-1.7146,-1.7653,-1.8052,-1.7953,-1.8482,-1.9315,-2.0538,-2.1768,-2.3325,-2.5497,-2.5822,-2.6083,-2.6561,-2.7715,-2.9009,-3.0333,-3.3016,-3.5003,-3.6005,-3.7956,-3.9073,-3.9208,-3.9808,-4.0113,-4.0113,-4.0113,-4.0113,-4.0113,-4.0113,-4.0113,-4.0113,-4.0113,-4.0113,-4.0113,-4.0113,-4.0113,-4.0113,-4.0113,-4.0113,-4.0113,-4.0113,-4.0113,-4.0113,-4.0113,-3.9639,-3.9005,-3.9174,-3.7834,-3.6234,-3.6801,-3.577,-3.4298,-3.394,-3.3823,0.0,0.0,0.0,0.0,0.0,0.0,0.0,0.0,-3.6163,-3.6907,-3.8464,-3.9242,-4.0087,-4.1576,-4.3335,-4.475,-4.5162,-4.6853,-4.8376,-4.912,-5.0507,-5.1388,-5.1388,-5.2097,-5.2807,-5.345,-5.3518,-5.3518,-5.3518,-5.3518,-5.3518,-5.3518,-5.3518,-5.3518,-5.3518,-5.3653,-5.3721,-5.3721,-5.4431,-5.4803,-5.4803,-5.5446,-5.5681,-5.5681,-5.5681,-5.5681,-5.5683,-5.4905,-5.46,-5.4532,-5.3788,-5.2973,-5.2205,-5.1993,-5.0779,-4.9004,-4.7946,-4.7452,-4.7309,0.0,-1.6942,-1.7146,-1.6667,-1.7435,-1.7933,-1.7476,-1.8249,-1.9171,-1.9921,-2.1049,-2.2294,-2.3581,-2.3756,-2.4004,-2.4655,-2.7508,-2.9659,-3.0513,-3.3102,-3.5504,-3.756,-3.8497,-3.9309,-3.9977,-4.0079,-4.0113,-4.0113,-4.0113,-4.0113,-4.0113,-4.0113,-4.0113,-4.0113,-4.0113,-4.0113,-4.0113,-4.0113,-4.0113,-4.0113,-4.0113,-4.0113,-4.0113,-4.0113,-4.0113,-4.0113,-4.0113,-3.9639,-3.9073,-3.9774,-3.8965,-3.7642,-3.7665,-3.7544,-3.7138,-3.5786,-3.5375,-3.5329,-3.5228,-3.5329,-3.5633,-3.6366,-3.6592,-3.7337,0.0,-3.9986,-4.0045,-4.1474,-4.188,-4.2388,-4.3938,-4.4445,-4.5229,-4.7225,-4.8308,-4.912,-4.9864,-5.1251,-5.2198,-5.2198,-5.2875,-5.3416,-5.3484,-5.3518,-5.3518,-5.3518,-5.3518,-5.3518,-5.3518,-5.3518,-5.3518,-5.3518,-5.4126,-5.4465,-5.4465,-5.5209,-5.5581,-5.5581,-5.5683,-5.5681,-5.5681,-5.5681,-5.5681,-5.5683,-5.4905,-5.46,-5.4532,-5.3788,-5.3416,-5.3246,-5.2277,-5.1192,-5.0087,-4.9013,-4.8072,-4.7309,0.0,-1.6667,-1.6752,-1.6543,-1.7126,-1.7456,-1.6921,-1.7733,-1.8697,-1.9357,-2.043,-2.1549,-2.2697,-2.3188,-2.3526,-2.3903,-2.7012,-2.9099,-2.9398,-3.3083,-3.5649,-3.6587,-3.7701,-3.8644,-3.9394,-3.9394,-3.9636,-4.0113,-4.0113,-4.0113,-4.0113,-4.0113,-4.0113,-4.0113,-4.0113,-4.0113,-4.0113,-4.0113,-4.0113,-4.0113,-4.0113,-3.9825,-3.9394,-3.9394,-3.8891,-3.8282,-3.916,-3.9242,0.0,-3.8372,-3.75,-3.6626,-3.6625,-3.6313,-3.6022,-3.6247,-3.661,-3.7144,-3.799,-3.7584,-3.7144,-3.7889,-3.8734,-3.958,-4.0392,-4.1001,-4.1677,-4.2726,-4.3301,-4.3972,-4.5026,-4.594,-4.6955,-4.8342,-4.9154,-5.0033,-5.1217,-5.1894,-5.2469,-5.2942,-5.3315,-5.3518,-5.3518,-5.3518,-5.3518,-5.3518,-5.3518,-5.3518,-5.3518,-5.3923,-5.4126,-5.4126,-5.4871,-5.5243,-5.5243,-5.5987,-5.6359,-5.6359,-5.6799,-5.6968,-5.6968,-5.6968,-5.6765,-5.6325,-5.6021,-5.5649,-5.5209,-5.4938,-5.4532,-5.4092,-5.3646,-5.2569,-5.1155,-5.0126,-4.8708,-4.7366,0.0,-1.65,-1.65,-1.65,-1.6816,-1.6964,-1.6565,-1.7415,-1.8278,-1.8761,-1.9914,-2.108,-2.2106,-2.2955,-2.3437,-2.3353,-2.6245,-2.8199,-2.8575,-3.253,-3.5131,-3.5678,-3.6862,-3.7854,-3.858,-3.8799,-3.9102,-3.9454,-3.9876,-3.9978,-3.9765,-3.9978,-4.0113,-4.0113,-4.0113,-4.0113,-4.0113,-4.0113,-4.0113,-4.0087,-3.9876,-3.942,-3.8848,-3.8461,-3.7713,-3.6985,-3.8225,-3.8295,-3.7666,-3.7028,-3.6313,-3.5695,-3.5726,-3.5649,-3.5701,-3.6755,-3.777,-3.8599,-3.9063,-3.8836,-3.8633,-3.9174,-4.0257,-4.117,-4.1043,-4.1847,-4.2828,-4.3572,-4.435,-4.5128,-4.5872,-4.7056,-4.821,-4.9154,-4.9932,-5.0845,-5.2131,-5.2503,-5.2841,-5.345,-5.3518,-5.3518,-5.3518,-5.3518,-5.3518,-5.3518,-5.3518,-5.3585,-5.3788,-5.4296,-5.4668,-5.4905,-5.5615,-5.6021,-5.6021,-5.6731,-5.7103,-5.7103,-5.7645,-5.7881,-5.7881,-5.7881,-5.7611,-5.7103,-5.69,-5.6494,-5.6021,-5.5749,-5.5412,-5.4871,-5.4668,-5.3606,-5.2148,-5.1475,-4.9734,-4.7849,0.0,0.0,-1.65,-1.65,-1.6522,-1.6522,-1.65,-1.7415,-1.812,-1.812,-1.9633,-2.0976,-2.1655,-2.2823,-2.3362,-2.2793,-2.5152,-2.7213,-2.852,-3.1239,-3.3657,-3.5619,-3.6437,-3.7142,-3.7819,-3.8525,-3.8553,-3.7879,-3.9375,-3.9688,-3.8962,-3.9714,-4.0113,-4.0113,-4.0113,-4.0113,-4.0113,-4.0113,-4.0113,-4.0003,-3.9262,-3.8908,-3.8761,-3.7386,-3.6818,-3.6901,-3.7588,0.0,-3.4934,-3.6327,-3.6253,-3.5609,-3.5613,-3.6612,-3.7797,-3.7779,-3.8846,-3.9571,-3.7472,-3.842,-4.0045,-4.0062,-4.0663,-4.1576,-4.297,-4.3308,-4.3606,-4.4412,-4.5128,-4.5906,-4.6616,-4.7394,-4.8376,-4.983,-5.0676,-5.1454,-5.2198,-5.2976,-5.3484,-5.3518,-5.3518,-5.3518,-5.3518,-5.3518,-5.3518,-5.3518,-5.3518,-5.3822,-5.4532,-5.4566,-5.4938,-5.5649,-5.6393,-5.6765,-5.6765,-5.7476,-5.7848,-5.7848,-5.7881,-5.7881,-5.7881,-5.7881,-5.7881,-5.7814,-5.7103,-5.6799,-5.6697,-5.6021,-5.5716,-5.5615,-5.4871,-5.3908,-5.3023,-5.3276,-5.1447,-4.8759,0.0,0.0,0.0,-1.65,-1.65,-1.65,-1.65,-1.7105,-1.7712,-1.8093,-1.9294,0.0,0.0,0.0,0.0,0.0,-2.4926,-2.6333,-2.7206,-2.9754,-3.1746,-3.2857,-3.4419,-3.5612,-3.6305,-3.701,-3.7528,-3.7793,-3.8334,-3.8446,-3.8189,-3.8968,-3.9315,-3.9315,-3.9315,-3.9315,-3.9315,-3.9315,-3.9286,-3.921,-3.8997,-3.8561,-3.7953,-3.702,-3.554,-3.4044,0.0,0.0,-3.446,-3.358,-3.335,-3.3333,-3.2478,-3.3502,-3.5347,-3.7309,-3.8235,-3.87,-3.8928,-3.9537,-4.0214,-4.0696,-4.1745,-4.2767,-4.3274,-4.3809,-4.4248,-4.4547,-4.5196,-4.5771,-4.6007,-4.709,-4.8376,-4.9864,-5.071,-5.1657,-5.2909,-5.3348,-5.3518,-5.3518,-5.3518,-5.3518,-5.3518,-5.3518,-5.3518,-5.3518,-5.3957,-5.4329,-5.4566,-5.5513,-5.6156,-5.6427,-5.7137,-5.7509,-5.7509,-5.778,-5.7881,-5.7881,-5.7881,-5.7881,-5.7881,-5.7881,-5.7881,-5.7881,-5.7645,-5.7509,-5.7509,-5.7273,-5.6867,-5.6427,-5.6156,-5.554,-5.4821,-5.4901,-5.3844,-5.2114,0.0,0.0,0.0,0.0,0.0,0.0,0.0,0.0,0.0,0.0,0.0,0.0,0.0,0.0,0.0,0.0,0.0,-2.5313,-2.6183,-2.804,-2.9733,-3.1092,-3.2377,-3.3517,-3.4482,-3.4963,-3.5539,-3.6244,-3.6826,-3.7195,-3.7381,-3.8161,-3.8497,-3.8497,-3.8497,-3.8497,-3.8497,-3.8497,-3.8476,-3.84,-3.7923,-3.7401,-3.6755,-3.5584,-3.4031,0.0,0.0,0.0,-3.2959,-3.1843,-3.204,-3.2574,-3.1518,-3.2805,-3.5066,-3.6946,-3.8058,-3.887,-3.9842,-4.0282,-4.073,-4.1745,-4.2699,-4.3477,-4.3775,-4.4215,-4.4513,-4.4215,-4.479,-4.5297,-4.5297,-4.6312,-4.7767,-4.9763,-5.0507,-5.1454,-5.3247,-5.3518,-5.3518,-5.3518,-5.3518,-5.3518,-5.3518,-5.3518,-5.3518,-5.3518,-5.416,-5.4702,-5.4972,-5.6156,-5.6934,-5.7171,-5.7645,-5.7881,-5.7881,-5.7881,-5.7881,-5.7881,-5.7881,-5.7881,-5.7881,-5.7881,-5.7881,-5.7881,-5.7881,-5.7881,-5.7881,-5.7881,-5.7611,-5.7171,-5.69,-5.6528,-5.6089,-5.5818,-5.501,-5.3785,0.0,0.0,0.0,0.0,0.0,0.0,0.0,0.0,0.0,0.0,0.0,0.0,0.0,0.0,0.0,0.0,0.0,0.0,-2.5401,-2.618,-2.7676,-3.0225,-3.0462,-3.112,-3.2437,-3.2609,-3.2946,-3.3484,-3.4986,-3.5928,-3.6445,-3.7257,-3.7636,-3.7636,-3.7636,-3.7636,-3.7636,-3.7636,-3.7639,-3.752,-3.6123,-3.5547,-3.5304,-3.3336,0.0,0.0,0.0,-3.0019,-3.0585,-3.1125,-3.2197,-3.3223,-3.2661,-3.4421,-3.6695,-3.6865,-3.843,-4.0113,-4.018,-4.073,-4.1644,-4.3037,-4.3409,-4.3673,-4.4445,-4.4581,-4.4316,-4.3572,-4.3978,-4.4479,-4.4479,-4.5128,-4.665,-4.9526,-5.0067,-5.0947,-5.3179,-5.3518,-5.3518,-5.3518,-5.3518,-5.3518,-5.3518,-5.3518,-5.3518,-5.3551,-5.4228,-5.4972,-5.5647,-5.6461,-5.7171,-5.7881,-5.7881,-5.7881,-5.7881,-5.7881,-5.7881,-5.7881,-5.7881,-5.7881,-5.7881,-5.7881,-5.7881,-5.7881,-5.7881,-5.7881,-5.7881,-5.7881,-5.7881,-5.7814,-5.7137,-5.6867,-5.6765,-5.6089,-5.518,-5.4025,0.0,0.0,0.0,0.0,0.0,0.0,0.0,0.0,0.0,0.0,0.0,0.0,0.0,0.0,0.0,0.0,0.0,0.0,-2.4107,-2.5259,-2.6652,-2.8278,-2.9714,-3.0883,-3.175,-3.2283,-3.2855,-3.3484,-3.3909,-3.4151,-3.4303,-3.5114,-3.5493,-3.5493,-3.5493,-3.5493,-3.5493,-3.5493,-3.5422,-3.5309,0.0,-3.4878,-3.4665,0.0,0.0,0.0,0.0,-3.0357,-3.0432,-3.0089,-3.0851,-3.2139,-3.347,-3.4484,-3.5675,-3.7767,-3.9175,-4.0358,-4.1441,-4.2286,-4.2902,-4.3308,-4.3842,-4.4378,-4.4547,-4.4147,-4.3673,-4.3443,-4.3132,-4.2888,-4.2888,-4.4418,-4.6312,-4.8173,-4.9864,-5.1522,-5.3281,-5.3518,-5.3518,-5.3518,-5.3518,-5.3518,-5.3518,-5.3518,-5.3721,-5.4262,-5.5006,-5.5513,-5.5716,-5.6934,-5.7712,-5.7881,-5.7881,-5.7881,-5.7881,-5.7881,-5.7881,-5.7881,-5.7881,-5.7881,-5.7881,-5.7881,-5.7881,-5.7881,-5.7881,-5.7881,-5.7881,-5.7881,-5.7881,-5.7881,-5.7679,-5.7611,-5.7577,-5.7408,-5.7161,-5.6697,0.0,0.0,0.0,0.0,0.0,0.0,0.0,0.0,0.0,0.0,0.0,0.0,0.0,0.0,0.0,0.0,0.0,0.0,0.0,-2.3775,-2.4914,-2.6191,-2.7847,-2.904,-2.9746,-3.0413,-3.112,0.0,0.0,0.0,0.0,-3.3089,-3.3291,-3.3291,-3.3291,-3.3291,-3.3291,-3.3291,0.0,0.0,0.0,0.0,0.0,0.0,0.0,0.0,0.0,-3.0712,-3.0921,-3.083,-3.1478,-3.2633,-3.4663,-3.5411,-3.6038,-3.858,-3.9879,-4.0822,-4.2348,-4.3098,-4.3477,-4.3842,-4.4248,-4.4513,-4.4147,-4.3741,-4.3206,-4.2564,-4.2117,-4.1813,-4.1813,-4.3403,-4.5399,-4.7534,-4.9492,-5.1386,-5.3247,-5.3518,-5.3518,-5.3518,-5.3783,-5.3977,-5.3977,-5.4264,-5.4762,-5.5554,-5.5655,-5.5993,-5.6679,-5.7773,-5.8599,-5.9011,-5.9011,-5.8806,-5.8458,-5.8458,-5.8246,-5.7881,-5.7881,-5.7881,-5.7881,-5.7881,-5.7881,-5.7881,-5.7881,-5.7881,-5.7881,-5.7881,-5.7881,-5.7881,-5.7881,-5.7881,-5.7881,-5.7881,-5.7881,-5.7741,0.0,0.0,0.0,0.0,0.0,0.0,0.0,0.0,0.0,0.0,-1.9233,0.0,0.0,0.0,0.0,0.0,0.0,0.0,0.0,0.0,0.0,-2.4417,-2.5701,-2.6678,-2.7335,-2.7964,-2.8693,-2.9456,0.0,0.0,0.0,0.0,0.0,0.0,0.0,0.0,0.0,0.0,0.0,0.0,0.0,0.0,0.0,0.0,0.0,0.0,0.0,-3.1002,-3.163,-3.2407,-3.3062,-3.3889,-3.5891,-3.662,-3.7154,-3.9372,-4.0578,-4.1526,-4.3115,-4.3572,-4.3741,-4.4445,-4.4513,-4.4248,-4.3572,-4.324,-4.276,-4.1474,-4.1136,-4.1068,-4.1068,-4.2252,-4.422,-4.7229,-4.8984,-5.0777,-5.3179,-5.3518,-5.3518,-5.3518,-5.4171,-5.4606,-5.4606,-5.5367,-5.6184,-5.6992,-5.6519,-5.6781,-5.8099,-5.8861,-5.9639,-6.0401,-6.0397,-6.0023,-5.9278,-5.9144,-5.8737,-5.8029,-5.7954,-5.7881,-5.7881,-5.7881,-5.7881,-5.7881,-5.7881,-5.7881,-5.7881,-5.7881,-5.7881,-5.7881,-5.7881,-5.7881,-5.7881,-5.7881,-5.7881,-5.7881,0.0,0.0,0.0,0.0,0.0,0.0,0.0,0.0,0.0,0.0,-1.9685,-1.9862,0.0,0.0,0.0,0.0,0.0,0.0,0.0,0.0,0.0,-2.4391,-2.5162,-2.5911,-2.6581,-2.6722,-2.7399,-2.8622,0.0,0.0,0.0,0.0,0.0,0.0,0.0,0.0,0.0,0.0,0.0,0.0,0.0,0.0,0.0,0.0,0.0,0.0,-3.1361,-3.1391,-3.169,-3.2916,-3.3756,-3.4571,-3.6025,-3.6931,-3.7873,-4.0128,-4.1371,-4.2315,-4.3951,-4.4384,-4.4445,-4.4581,-4.4079,-4.3544,-4.3409,-4.2455,-4.1508,-4.1271,-4.0696,-4.0282,-4.0282,-4.1474,-4.347,-4.6481,-4.824,-5.0202,-5.3078,-5.3518,-5.3518,-5.3518,-5.4171,-5.4606,-5.4606,-5.5853,-5.7027,-5.7812,-5.8351,-5.8783,-5.9046,-5.9757,-6.0242,-6.0401,-6.0397,-6.0304,-6.018,-5.9476,-5.901,-5.8875,-5.8244,-5.7881,-5.7881,-5.7881,-5.7881,-5.7881,-5.7881,-5.7881,-5.7881,-5.7881,-5.7881,-5.7881,-5.7881,-5.7881,-5.7881,-5.7881,-5.7881,-5.7881,0.0,0.0,0.0,0.0,0.0,0.0,0.0,-1.8681,-1.9434,-2.0539,-2.0941,-2.0991,-2.0715,-2.069,-2.079,0.0,0.0,0.0,0.0,0.0,0.0,0.0,0.0,-2.4986,-2.5285,-2.6015,-2.6524,-2.6834,0.0,0.0,0.0,0.0,0.0,0.0,0.0,0.0,0.0,0.0,0.0,0.0,0.0,0.0,0.0,0.0,0.0,0.0,0.0,-3.172,-3.2108,-3.2766,-3.3664,-3.4743,-3.6091,-3.6957,-3.7945,-4.0325,-4.1526,-4.2468,-4.4169,-4.4615,-4.4615,-4.4615,-4.4012,-4.3274,-4.2929,-4.1982,-4.1102,-4.0696,-4.035,-4.0113,-4.0113,-4.1331,-4.3031,-4.5292,-4.6887,-4.8883,-5.1894,-5.23,-5.2735,-5.3941,-5.4695,-5.532,-5.5759,-5.7191,-5.8445,-5.9239,-6.0034,-6.0511,-6.0511,-6.122,-6.1632,-6.1632,-6.1632,-6.1464,-6.1026,-6.0211,-5.9541,-5.9077,-5.8281,-5.7881,-5.7881,-5.7881,-5.7881,-5.7881,-5.7881,-5.7881,-5.7881,-5.7881,-5.7881,-5.7881,-5.7881,-5.7881,-5.7881,-5.7881,-5.7881,-5.7881,0.0,0.0,0.0,0.0,0.0,0.0,0.0,-1.9459,-2.0238,-2.1493,-2.2146,-2.2322,-2.1895,-2.1744,-2.1669,0.0,0.0,0.0,0.0,0.0,0.0,0.0,0.0,-2.4044,-2.4044,0.0,0.0,-2.5352,-2.5984,0.0,0.0,0.0,0.0,0.0,0.0,0.0,0.0,0.0,0.0,0.0,0.0,0.0,0.0,0.0,0.0,0.0,0.0,-3.1839,-3.2288,-3.2437,-3.3396,-3.4724,-3.5931,-3.67,-3.7718,-4.0262,-4.1373,-4.2201,-4.4088,-4.4615,-4.4615,-4.4615,-4.3876,-4.3031,-4.2422,-4.161,-4.0798,-4.0214,-4.0113,-4.0113,-4.0113,-4.106,-4.2502,-4.447,-4.5784,-4.7751,-5.1182,-5.1668,-5.2469,-5.4583,-5.5495,-5.6204,-5.6861,-5.8458,-5.9722,-6.0346,-6.13,-6.1883,-6.1879,-6.2464,-6.278,-6.278,-6.278,-6.2515,-6.1851,-6.1055,-6.0242,-5.9377,-5.8529,-5.8065,-5.7881,-5.7881,-5.7881,-5.7881,-5.7881,-5.7881,-5.7881,-5.7881,-5.7881,-5.7881,-5.7881,-5.7881,-5.7881,-5.7881,-5.7881,-5.7881,0.0,0.0,0.0,0.0,0.0,0.0,0.0,-1.9459,-2.0388,-2.202,-2.2694,-2.302,-2.297,-2.2518,-2.2246,0.0,0.0,0.0,0.0,0.0,0.0,0.0,0.0,0.0,0.0,0.0,0.0,-2.513,-2.5686,0.0,0.0,0.0,0.0,0.0,0.0,-2.6575,0.0,0.0,0.0,0.0,0.0,0.0,0.0,0.0,0.0,0.0,0.0,-3.154,-3.169,-3.2288,-3.3483,-3.4806,-3.5487,-3.6099,-3.7144,-4.0135,-4.1052,-4.1586,-4.3982,-4.4615,-4.4615,-4.4615,-4.347,-4.2388,-4.232,-4.123,-4.018,-4.0113,-4.0113,-4.0113,-4.0113,-4.0214,-4.1401,-4.4863,-4.5616,-4.7512,-5.2418,-5.3206,-5.3848,-5.5418,-5.6313,-5.6835,-5.6887,-5.8969,-6.0309,-6.0382,-6.1814,-6.2682,-6.2705,-6.2755,-6.278,-6.278,-6.278,-6.2755,-6.2705,-6.1915,-6.1084,-6.0273,-5.941,-5.8599,-5.7881,-5.7881,-5.7881,-5.7881,-5.7881,-5.7881,-5.7881,-5.7881,-5.7881,-5.7881,-5.7881,-5.7881,-5.7881,-5.7881,-5.7881,-5.7881,0.0,0.0,0.0,0.0,0.0,0.0,-1.8882,-1.9761,-2.079,-2.2146,-2.307,-2.3653,-2.3653,-2.3753,-2.3521,-2.2844,0.0,0.0,0.0,0.0,0.0,0.0,0.0,0.0,0.0,0.0,-2.4134,-2.4443,-2.4981,0.0,0.0,0.0,0.0,0.0,0.0,-2.6133,-2.5879,0.0,0.0,0.0,0.0,0.0,0.0,0.0,0.0,0.0,0.0,0.0,-3.154,-3.1809,-3.2815,-3.4027,-3.4247,-3.5417,-3.7118,-3.9677,-4.104,-4.2061,-4.3496,-4.4215,-4.4615,-4.4615,-4.3464,-4.2286,-4.2286,-4.1162,-4.0113,-4.0113,-4.0113,-4.0113,-4.0113,-4.0113,-4.0722,-4.2612,-4.3657,-4.5423,-4.8765,-5.0457,-5.2243,-5.4678,-5.5687,-5.6523,-5.7462,-5.9285,-6.0823,-6.1777,-6.2438,-6.278,-6.278,-6.278,-6.278,-6.278,-6.278,-6.278,-6.278,-6.1996,-6.1464,-6.1113,-5.9733,-5.8943,-5.8599,-5.8137,-5.7881,-5.7881,-5.7881,-5.7881,-5.7881,-5.7881,-5.7881,-5.7881,-5.7881,-5.7881,-5.7881,-5.7881,-5.7881,-5.7881,0.0,0.0,0.0,0.0,0.0,-1.8381,-1.8933,-2.0087,-2.1242,-2.2196,-2.3301,-2.4004,-2.4004,-2.4356,-2.4255,-2.3421,-2.3195,0.0,0.0,0.0,0.0,0.0,0.0,0.0,0.0,0.0,-2.4305,-2.4481,-2.5034,-2.5209,0.0,0.0,-2.5631,-2.5357,0.0,0.0,0.0,0.0,0.0,0.0,0.0,0.0,0.0,0.0,0.0,0.0,0.0,0.0,0.0,0.0,0.0,-3.3562,-3.3562,-3.5015,-3.7117,-3.9161,-4.0781,-4.2113,-4.3115,-4.3978,-4.4615,-4.4615,-4.3464,-4.2286,-4.2286,-4.1162,-4.0113,-4.0113,-4.0113,-4.0113,-4.0113,-4.0113,-4.0425,-4.135,-4.2693,-4.455,-4.7197,-4.928,-5.1618,-5.4472,-5.5342,-5.6188,-5.751,-5.9318,-6.097,-6.2365,-6.2695,-6.278,-6.278,-6.278,-6.278,-6.278,-6.278,-6.278,-6.278,-6.2245,-6.1824,-6.1604,-6.0145,-5.9344,-5.9077,-5.8246,-5.7881,-5.7881,-5.7881,-5.7881,-5.7881,-5.7881,-5.7881,-5.7881,-5.7881,-5.7881,-5.7881,-5.7881,-5.7881,-5.7881,0.0,0.0,0.0,0.0,0.0,0.0,-1.8933,-2.0413,-2.1669,-2.2246,-2.3301,-2.4004,-2.4004,-2.4004,-2.4004,-2.3979,-2.3421,0.0,0.0,0.0,0.0,0.0,0.0,0.0,0.0,0.0,-2.5059,-2.5586,-2.6197,-2.6172,-2.5586,-2.5586,-2.5716,-2.588,0.0,0.0,0.0,0.0,0.0,0.0,0.0,0.0,0.0,0.0,0.0,0.0,0.0,0.0,0.0,0.0,0.0,0.0,0.0,-3.5129,-3.7081,0.0,-3.999,-4.1541,-4.3008,-4.3978,-4.4615,-4.4615,-4.3464,-4.2286,-4.2286,-4.1162,-4.0113,-4.0113,-4.0113,-4.0113,-4.0113,-4.0113,-4.0542,-4.1947,-4.3429,-4.5663,-4.9361,-5.1148,-5.2961,-5.5324,-5.5611,-5.5904,-5.6748,-5.8988,-6.075,-6.1557,-6.2365,-6.278,-6.278,-6.278,-6.278,-6.278,-6.278,-6.278,-6.278,-6.278,-6.2376,-6.1604,-6.076,-5.9928,-5.9077,-5.8246,-5.7881,-5.7881,-5.7881,-5.7881,-5.7881,-5.7881,-5.7881,-5.7881,-5.7881,-5.7881,-5.7881,-5.7881,-5.7881,-5.7881,0.0,0.0,0.0,0.0,0.0,0.0,0.0,-1.9208,-2.0137,-2.1094,-2.182,-2.2573,-2.3296,-2.3371,-2.3547,-2.3954,-2.3446,0.0,0.0,0.0,0.0,0.0,0.0,0.0,0.0,0.0,-2.5051,-2.5586,-2.6565,-2.6776,-2.6223,-2.66,-2.6375,-2.5702,-2.5524,-2.5243,0.0,0.0,0.0,0.0,0.0,0.0,0.0,0.0,0.0,0.0,0.0,0.0,0.0,0.0,0.0,0.0,0.0,0.0,0.0,-3.6594,-3.8484,-4.0673,-4.1625,-4.2455,-4.3058,-4.3058,-4.2286,-4.1542,-4.1542,-4.0798,-4.0113,-4.0113,-4.0113,-4.0113,-4.0113,-4.0113,-4.0595,-4.2023,-4.3476,-4.5177,-4.7352,-5.0222,-5.258,-5.3865,-5.5935,-5.7556,-5.834,-5.9648,-6.075,-6.152,-6.2365,-6.278,-6.278,-6.278,-6.278,-6.278,-6.278,-6.278,-6.278,-6.278,-6.2679,-6.2402,-6.1604,-6.079,-5.996,-5.9112,-5.8423,-5.7881,-5.7881,-5.7881,-5.7881,-5.7881,-5.7881,-5.7881,-5.7881,-5.7881,-5.7881,-5.7881,-5.7881,-5.7881,0.0,0.0,0.0,0.0,0.0,0.0,0.0,-1.8706,-1.956,-2.0289,-2.1043,-2.192,-2.297,-2.292,-2.312,-2.3929,-2.3446,0.0,0.0,0.0,0.0,0.0,0.0,0.0,-2.428,-2.4625,-2.5285,-2.6239,-2.6942,-2.7218,-2.7128,-2.7444,-2.7118,-2.6214,-2.6013,-2.5611,0.0,0.0,0.0,0.0,0.0,0.0,0.0,0.0,0.0,0.0,0.0,0.0,0.0,0.0,0.0,0.0,0.0,0.0,0.0,0.0,-3.682,-3.8799,-4.0375,-4.1508,-4.2286,-4.2286,-4.1745,-4.1204,-4.1204,-4.0629,-4.0113,-4.0113,-4.0113,-4.0113,-4.0113,-4.0113,-4.0417,-4.1331,-4.2877,-4.4505,-4.6005,-4.9397,-5.2302,-5.3984,-5.6177,-5.774,-5.823,-5.9318,-6.0272,-6.108,-6.1887,-6.2475,-6.278,-6.278,-6.278,-6.278,-6.278,-6.278,-6.278,-6.278,-6.278,-6.278,-6.1659,-6.0879,-6.0335,-5.9179,-5.8388,-5.7881,-5.7881,-5.7881,0.0,-5.7881,-5.7881,-5.7881,-5.7881,-5.7881,-5.7881,-5.7881,-5.7881,-5.7881,0.0,0.0,0.0,0.0,0.0,0.0,0.0,-1.8681,-1.971,-1.9736,-2.069,-2.1769,-2.2819,-2.2518,-2.2698,-2.3778,0.0,0.0,0.0,0.0,0.0,0.0,0.0,0.0,-2.4775,-2.48,-2.5636,-2.7293,-2.7318,-2.7595,-2.8097,-2.8147,-2.7846,-2.7304,-2.6776,-2.6223,0.0,0.0,0.0,0.0,0.0,0.0,0.0,0.0,0.0,0.0,0.0,0.0,0.0,0.0,0.0,0.0,0.0,0.0,0.0,0.0,0.0,0.0,0.0,-4.0907,-4.2049,-4.2049,-4.1576,-4.1136,-4.1136,-4.0595,0.0,-4.0113,-4.0113,-4.0113,-4.018,-4.0146,-4.0146,-4.0316,-4.2028,-4.3865,-4.5459,-4.8875,-5.2331,-5.5397,-5.6418,-5.6895,-5.6895,-5.8267,-5.9515,-6.0346,-6.1153,-6.1961,-6.2768,-6.278,-6.278,-6.278,-6.278,-6.278,-6.278,-6.278,-6.278,-6.278,-6.1236,-6.0463,-6.0371,-5.8703,-5.7954,-5.7881,-5.7881,-5.7881,-5.7881,-5.7881,-5.7881,-5.7881,-5.7881,-5.7881,-5.7881,-5.7881,-5.7881,-5.7881,0.0,0.0,0.0,0.0,0.0,0.0,0.0,0.0,0.0,0.0,-1.9786,-2.0464,-2.1194,-2.1518,-2.197,0.0,0.0,0.0,0.0,0.0,0.0,0.0,0.0,0.0,-2.4775,-2.48,-2.5636,-2.7293,-2.7695,-2.7971,-2.8122,-2.8524,-2.8222,-2.7268,-2.7178,-2.6826,0.0,0.0,0.0,0.0,0.0,0.0,0.0,0.0,0.0,0.0,-3.0569,-3.0955,0.0,0.0,0.0,0.0,0.0,0.0,0.0,0.0,-3.3974,-3.5195,-3.6406,0.0,-3.9783,-3.9783,-4.0054,-4.0383,0.0,-4.0214,-4.0113,-4.0113,-4.0113,-4.0282,-4.0832,-4.0485,-4.0629,-4.2354,-4.3064,-4.4089,-4.6226,-5.0212,-5.4029,-5.7075,-5.7593,-5.7703,-5.7703,-5.8621,-5.9515,-6.0346,-6.1153,-6.1961,-6.2768,-6.278,-6.278,-6.278,-6.278,-6.278,-6.278,-6.278,-6.278,-6.278,-6.177,-6.0997,-6.0335,-5.9278,-5.8459,-5.7881,-5.7881,-5.7881,-5.7881,-5.7881,-5.7881,-5.7881,-5.7881,-5.7881,-5.7881,-5.7881,-5.7881,-5.7881,0.0,0.0,0.0,0.0,0.0,0.0,0.0,0.0,0.0,0.0,0.0,-2.0037,-2.0641,-2.1194,0.0,0.0,0.0,0.0,0.0,0.0,0.0,0.0,0.0,-2.3622,-2.4775,-2.48,-2.5636,-2.7293,-2.7846,-2.8097,-2.8122,-2.8637,-2.8348,-2.7268,-2.7052,-2.6776,0.0,0.0,0.0,0.0,0.0,0.0,0.0,0.0,0.0,0.0,-3.0299,-3.0807,0.0,-3.1511,-3.1511,-3.1511,0.0,0.0,0.0,0.0,-3.3119,-3.3884,-3.4529,-3.6579,-3.8623,-3.8897,-3.9571,-4.0113,-4.0113,-4.0113,-4.0113,-4.0113,-4.0113,-4.0214,-4.0595,-4.0629,-4.1001,-4.2219,-4.3267,-4.5205,-4.8875,-5.1771,-5.4603,-5.7637,-5.7997,-5.7997,-5.7997,-5.84,-5.8988,-5.9795,-6.0603,-6.141,-6.2218,-6.2622,-6.278,-6.278,-6.278,-6.278,-6.278,-6.278,-6.278,-6.278,-6.1604,-6.082,-6.0371,-5.9112,-5.8317,-5.7881,-5.7881,-5.7881,-5.7881,-5.7881,-5.7881,-5.7881,-5.7881,-5.7881,-5.7881,-5.7881,-5.7881,-5.7881,0.0,0.0,0.0,0.0,0.0,0.0,0.0,0.0,0.0,0.0,0.0,0.0,0.0,0.0,0.0,0.0,0.0,0.0,0.0,0.0,0.0,0.0,-2.3145,-2.3622,-2.4775,-2.48,-2.5636,-2.7293,-2.7846,-2.8147,-2.8247,-2.8762,-2.8473,-2.7394,-2.6876,-2.6575,0.0,0.0,0.0,0.0,0.0,0.0,0.0,0.0,0.0,0.0,0.0,0.0,0.0,-3.1277,-3.1424,-3.1511,-3.1511,0.0,0.0,0.0,0.0,0.0,-3.3388,-3.5511,-3.7669,-3.8447,-3.932,-3.9952,-4.0087,-4.0113,-4.0113,-4.0113,-4.0113,-4.0146,-4.0248,-4.0865,-4.1407,-4.1542,-4.3538,-4.6781,-5.1581,-5.306,-5.4668,-5.734,-5.7844,-5.7973,-5.7821,-5.795,-5.8327,-5.9148,-5.9832,-6.0639,-6.1557,-6.2254,-6.267,-6.278,-6.278,-6.278,-6.278,-6.278,-6.273,-6.2592,-6.112,-6.0304,-6.0149,-5.8599,-5.7881,-5.7881,-5.7881,-5.7881,-5.7881,-5.7881,-5.7881,-5.7881,-5.7881,-5.7881,-5.7881,-5.7881,-5.7881,-5.7881,0.0,0.0,0.0,0.0,0.0,0.0,0.0,0.0,0.0,0.0,0.0,0.0,0.0,0.0,0.0,0.0,0.0,0.0,0.0,0.0,0.0,-2.3904,-2.3371,-2.3622,-2.4775,-2.48,-2.5636,-2.7293,-2.7846,-2.8348,-2.8787,-2.9377,-2.9051,-2.7946,-2.7394,-2.6927,-2.6499,-2.6499,0.0,0.0,0.0,0.0,0.0,0.0,0.0,0.0,0.0,0.0,0.0,-3.0335,-3.0925,-3.1511,-3.1511,0.0,0.0,0.0,0.0,0.0,-3.3197,-3.4341,-3.551,-3.6795,-3.8103,-3.9262,-3.9952,-4.0113,-4.0113,-4.0113,-4.0113,-4.0282,-4.0933,-4.1644,-4.2354,-4.2936,-4.55,-4.8362,-5.1078,-5.319,-5.4835,-5.5925,-5.7216,-5.775,-5.7116,-5.7655,-5.8327,-5.9148,-5.9294,-6.0052,-6.152,-6.1704,-6.2108,-6.278,-6.278,-6.278,-6.278,-6.278,-6.2464,-6.177,-6.082,-6.0023,-5.9278,-5.8317,-5.7881,-5.7881,-5.7881,-5.7881,-5.7881,-5.7881,-5.7881,-5.7881,-5.7881,-5.7881,-5.7881,-5.7881,-5.7881,-5.7881,0.0,0.0,0.0,0.0,0.0,0.0,0.0,0.0,0.0,0.0,0.0,0.0,0.0,0.0,0.0,0.0,0.0,0.0,0.0,0.0,-2.4833,-2.4858,-2.4299,-2.4249,-2.4775,-2.5084,-2.5912,-2.7293,-2.8122,-2.8524,-2.8473,-2.8448,-2.8147,-2.7645,-2.7128,-2.6725,-2.6499,-2.6499,-2.6499,0.0,0.0,0.0,0.0,0.0,0.0,0.0,0.0,0.0,0.0,0.0,-3.0539,-3.0925,-3.1336,0.0,0.0,0.0,0.0,0.0,-3.2243,-3.3209,-3.4326,-3.5407,-3.7017,-3.8386,-3.8778,-3.8859,-3.8968,-3.9368,-3.9447,-3.9819,-4.0991,-4.2151,-4.3673,-4.6041,-4.7936,-4.9869,-5.2156,-5.3369,-5.4448,-5.5561,-5.6331,-5.6632,-5.6286,-5.6554,-5.7098,-5.7885,-5.8346,-5.9103,-6.0248,-6.1117,-6.1777,-6.2144,-6.2585,-6.278,-6.278,-6.235,-6.1969,-6.1604,-6.03,-5.9509,-5.9077,-5.8246,-5.7881,-5.7881,-5.7881,-5.7881,-5.7881,-5.7881,-5.7881,-5.7881,-5.7881,-5.7881,-5.7881,-5.7881,-5.7881,-5.7881,0.0,0.0,0.0,0.0,0.0,0.0,0.0,0.0,0.0,0.0,0.0,0.0,0.0,0.0,0.0,0.0,0.0,0.0,0.0,-2.4725,-2.4976,-2.5385,-2.5159,-2.5008,-2.5008,-2.5536,-2.6289,-2.7293,-2.8373,-2.8737,-2.8499,-2.7921,-2.7595,-2.7444,-2.6927,-2.6625,-2.6499,-2.6499,-2.6499,0.0,0.0,0.0,0.0,0.0,0.0,0.0,0.0,0.0,0.0,0.0,0.0,0.0,0.0,0.0,0.0,-3.1453,-3.1511,-3.154,-3.169,-3.2617,-3.3667,-3.4481,-3.6119,-3.7621,-3.7956,-3.8017,-3.8255,-3.8954,-3.9237,-3.9737,-4.0936,-4.2658,-4.5128,-4.868,-4.9864,-5.1031,-5.2957,-5.3545,-5.4131,-5.5044,-5.5495,-5.5638,-5.5466,-5.561,-5.5948,-5.6589,-5.7181,-5.7851,-5.8614,-5.983,-6.0584,-6.0803,-6.1579,-6.198,-6.198,-6.1356,-6.1113,-6.1286,-5.9797,-5.8976,-5.8806,-5.8209,-5.7881,-5.7881,-5.7881,-5.7881,-5.7881,-5.7881,-5.7881,-5.7881,-5.7881,-5.7881,-5.7881,-5.7881,-5.7881,-5.7881,0.0,0.0,0.0,0.0,0.0,0.0,0.0,0.0,0.0,0.0,0.0,0.0,0.0,0.0,0.0,0.0,0.0,0.0,0.0,-2.4531,-2.48,-2.485,-2.531,-2.5536,-2.5536,-2.6147,-2.6725,-2.7293,-2.8373,-2.9176,-2.9654,-2.9076,-2.8524,-2.8021,-2.7469,-2.6977,-2.6499,-2.6499,-2.6499,-2.6499,-2.6499,0.0,0.0,0.0,0.0,0.0,0.0,0.0,0.0,0.0,0.0,0.0,0.0,0.0,-3.051,-3.1278,-3.1511,-3.163,-3.2258,-3.2946,-3.3665,-3.4326,-3.5615,-3.703,-3.8414,-3.8722,-3.8914,-3.9583,-4.0339,-4.0893,-4.0983,-4.3499,-4.6515,-4.9526,-5.0642,-5.142,-5.2297,-5.3619,-5.4322,-5.3717,-5.4848,-5.5437,-5.4757,-5.5291,-5.5724,-5.578,-5.5844,-5.6227,-5.7022,-5.7192,-5.7619,-5.843,-5.9147,-5.9574,-5.9574,-5.9351,-5.9704,-6.0458,-5.9541,-5.8703,-5.7991,-5.7918,-5.7881,-5.7881,-5.7881,-5.7881,-5.7881,-5.7881,-5.7881,-5.7881,-5.7881,-5.7881,-5.7881,-5.7881,-5.7881,-5.7881,0.0,0.0,0.0,0.0,0.0,0.0,0.0,0.0,0.0,0.0,0.0,0.0,0.0,0.0,0.0,0.0,0.0,0.0,0.0,-2.3973,-2.4607,-2.5285,-2.5485,-2.5762,-2.6147,-2.6725,-2.7394,-2.8298,-2.9076,-2.9578,-2.9779,-2.885,-2.8298,-2.8072,-2.7203,-2.67,-2.6499,-2.6499,-2.6499,-2.6499,-2.6499,0.0,0.0,0.0,0.0,0.0,0.0,0.0,0.0,0.0,-2.7602,-2.8722,-2.9913,-3.0658,-3.1131,-3.1424,-3.1511,-3.157,-3.1809,-3.2677,-3.3544,-3.3814,-3.4904,-3.6189,-3.7148,-3.7642,-3.8263,-3.9401,-4.0227,-4.1374,-4.3375,-4.5547,-4.7872,-5.0371,-5.142,-5.2164,-5.2942,-5.3546,-5.3816,-5.3517,-5.4011,-5.4235,-5.3946,-5.4171,-5.4513,-5.4999,-5.5029,-5.5373,-5.6113,-5.6637,-5.7056,-5.7375,-5.8219,-5.8645,-5.8645,-5.8034,-5.7886,-5.8241,-5.829,-5.8209,-5.7881,-5.7881,-5.7881,-5.7881,-5.7881,-5.7881,-5.7881,-5.7881,-5.7881,-5.7881,-5.7881,-5.7881,-5.7881,-5.7881,-5.7881,-5.7881,0.0,0.0,0.0,0.0,0.0,0.0,0.0,0.0,0.0,0.0,0.0,0.0,0.0,0.0,0.0,0.0,0.0,0.0,-2.2794,-2.3371,-2.413,-2.5059,-2.5259,-2.5711,-2.6474,-2.6876,-2.757,-2.8674,-2.9428,-2.9704,-2.9503,-2.8549,-2.8097,-2.8047,-2.6977,-2.66,-2.6751,-2.6575,-2.6499,-2.6499,-2.6499,-2.6499,0.0,0.0,0.0,0.0,0.0,0.0,0.0,0.0,-2.6796,-2.802,-2.9235,-3.0335,-3.1161,-3.1453,-3.166,-3.1809,-3.1809,-3.2796,-3.3814,-3.3814,-3.4831,-3.5998,-3.6626,-3.7255,-3.8116,-3.9581,-4.0447,-4.1949,-4.5146,-4.6697,-4.827,-5.0781,-5.1826,-5.257,-5.3382,-5.3518,-5.3518,-5.3518,-5.3518,-5.3518,-5.3518,-5.3518,-5.3717,-5.42,-5.4232,-5.4451,-5.4969,-5.5549,-5.5828,-5.5828,-5.6628,-5.7048,-5.7048,-5.669,-5.6501,-5.6535,-5.6982,-5.734,-5.7543,-5.778,-5.7881,-5.7881,-5.7881,-5.7881,-5.7881,-5.7881,-5.7881,-5.7881,-5.7881,-5.7881,-5.7881,-5.7881,-5.7881,-5.7881,0.0,0.0,0.0,0.0,0.0,0.0,0.0,0.0,0.0,0.0,0.0,0.0,0.0,0.0,0.0,0.0,0.0,0.0,-2.2221,-2.2794,-2.3346,-2.3979,-2.4531,-2.5335,-2.6474,-2.6499,-2.7027,-2.8097,-2.9227,-2.9478,-2.8863,-2.8373,-2.8097,-2.8047,-2.6977,-2.6801,-2.7278,-2.6725,-2.6499,-2.6499,-2.6499,-2.6499,0.0,0.0,0.0,0.0,0.0,0.0,0.0,0.0,-2.5286,-2.7062,-2.7937,-2.9179,-3.045,-3.1278,-3.1959,-3.2527,-3.2497,-3.3455,-3.4503,-3.4503,-3.5522,-3.6656,-3.7285,-3.7943,-3.8781,-4.0157,-4.1132,-4.2705,-4.5898,-4.6583,-4.7601,-5.0716,-5.1826,-5.257,-5.3382,-5.3518,-5.3518,-5.3518,-5.3518,-5.3518,-5.3518,-5.3518,-5.3518,-5.3518,-5.3518,-5.3518,-5.3518,-5.3518,-5.3518,-5.3518,-5.4194,-5.4566,-5.4566,-5.531,-5.5647,-5.5647,-5.5716,-5.6089,-5.6799,-5.7543,-5.7881,-5.7881,-5.7881,-5.7881,-5.7881,-5.7881,-5.7881,-5.7881,-5.7881,-5.7881,-5.7881,-5.7881,-5.7881,-5.7881,0.0,0.0,0.0,0.0,0.0,0.0,0.0,0.0,0.0,0.0,0.0,0.0,0.0,0.0,0.0,0.0,0.0,0.0,-2.1719,-2.2246,-2.2769,-2.3346,-2.4274,-2.5134,-2.5837,-2.6675,-2.7394,-2.8097,-2.8825,-2.89,-2.8348,-2.8172,-2.7896,-2.7519,-2.7193,-2.6952,-2.6725,-2.6575,-2.6499,-2.6499,-2.6499,-2.6499,-2.6424,0.0,0.0,0.0,0.0,0.0,0.0,0.0,0.0,0.0,-2.8621,-2.9987,-3.119,-3.1453,-3.1959,-3.2378,-3.1929,-3.2796,-3.3784,-3.3784,-3.516,-3.6776,-3.7853,-3.899,-4.0307,-4.2064,-4.2802,-4.3742,-4.5899,-4.6845,-4.8166,-5.0784,-5.1826,-5.257,-5.3382,-5.3518,-5.3518,-5.3518,-5.3518,-5.3518,-5.3518,-5.3518,-5.3518,-5.3518,-5.3518,-5.3518,-5.3518,-5.3518,-5.3518,-5.3518,-5.3721,-5.3822,-5.3822,-5.4059,-5.416,-5.416,-5.4668,-5.531,-5.6055,-5.6258,-5.6359,-5.6393,-5.69,-5.7137,-5.7171,-5.7679,-5.7881,-5.7881,-5.7881,-5.7881,-5.7881,-5.7881,-5.7881,-5.7881,0.0,0.0,0.0,0.0,0.0,0.0,0.0,0.0,0.0,0.0,-2.0541,-2.0943,0.0,0.0,0.0,0.0,0.0,0.0,0.0,-2.1794,-2.2221,-2.2744,-2.3847,-2.4833,-2.5586,-2.6716,-2.7344,-2.7444,-2.8222,-2.8323,-2.7795,-2.7996,-2.7921,-2.762,-2.762,-2.7419,-2.7128,-2.6927,-2.67,-2.6499,-2.6499,-2.6499,-2.6449,0.0,0.0,0.0,0.0,0.0,0.0,0.0,0.0,0.0,-2.88,-2.9957,-3.1152,-3.1421,-3.1959,-3.2527,-3.2677,-3.3484,-3.4352,-3.4622,-3.5759,-3.7345,-3.917,-4.0397,-4.1594,-4.2991,-4.3257,-4.371,-4.5326,-4.6358,-4.7749,-5.0259,-5.1497,-5.2437,-5.3349,-5.3518,-5.3518,-5.3518,-5.3518,-5.3518,-5.3518,-5.3518,-5.3518,-5.3518,-5.3518,-5.3518,-5.3518,-5.3518,-5.3518,-5.3518,-5.3518,-5.3518,-5.3518,-5.3518,-5.3518,-5.3518,-5.3957,-5.4397,-5.4871,-5.5446,-5.5681,-5.575,-5.619,-5.6528,-5.6833,-5.7273,-5.7645,-5.7881,-5.7881,-5.7881,-5.7881,-5.7881,-5.7881,-5.7881,0.0,0.0,0.0,0.0,0.0,0.0,0.0,0.0,0.0,0.0,-2.0289,-2.0641,0.0,0.0,0.0,0.0,0.0,0.0,0.0,-2.1568,-2.182,-2.2372,-2.3527,-2.4632,-2.5661,-2.6691,-2.6977,-2.6424,-2.7494,-2.7745,-2.7253,-2.7821,-2.8072,-2.8021,-2.8072,-2.8047,-2.7921,-2.7369,-2.6851,-2.6348,-2.6399,-2.6399,-2.6348,-2.6467,0.0,0.0,0.0,0.0,0.0,0.0,0.0,0.0,-2.8769,-2.9484,-3.0642,-3.1301,-3.1959,-3.2766,-3.3963,-3.4891,-3.5639,-3.6237,-3.7045,-3.8332,-4.0816,-4.1961,-4.2611,-4.317,-4.2851,-4.296,-4.45,-4.5439,-4.6811,-4.9267,-5.0859,-5.2134,-5.3179,-5.3348,-5.3382,-5.3518,-5.3518,-5.3518,-5.3518,-5.3518,-5.3518,-5.3518,-5.3518,-5.3518,-5.3518,-5.3518,-5.3518,-5.3518,-5.3518,-5.3518,-5.3518,-5.3518,-5.3518,-5.3518,-5.3518,-5.3518,-5.3551,-5.4905,-5.5547,-5.5615,-5.5615,-5.6021,-5.6697,-5.6697,-5.7137,-5.778,-5.778,-5.7814,-5.7881,-5.7881,-5.7881,-5.7881,0.0,0.0,0.0,0.0,0.0,0.0,0.0,0.0,0.0,0.0,0.0,0.0,0.0,0.0,0.0,0.0,0.0,0.0,0.0,-2.2121,-2.2372,-2.2895,-2.4431,-2.5586,-2.6298,-2.6549,-2.6399,-2.5787,-2.6917,-2.7203,-2.67,-2.7645,-2.7871,-2.7469,-2.7921,-2.762,-2.6826,-2.6248,-2.5661,-2.5209,-2.5611,-2.5536,-2.5275,-2.6278,-2.6329,0.0,0.0,0.0,0.0,0.0,0.0,0.0,-2.9941,-3.0261,-3.0642,-3.1301,-3.1959,-3.2587,-3.2856,-3.4203,-3.5549,-3.5669,-3.7764,-4.0038,-4.1145,-4.2282,-4.311,-4.326,-4.32,-4.3464,-4.4593,-4.5811,-4.7112,-4.84,-4.9807,-5.108,-5.2101,-5.2241,-5.2557,-5.3382,-5.3518,-5.3518,-5.3518,-5.3518,-5.3518,-5.3518,-5.3518,-5.3518,-5.3518,-5.3518,-5.3518,-5.3518,-5.3518,-5.3518,-5.3518,-5.3518,-5.3518,-5.3518,-5.3518,-5.3518,-5.3518,-5.3822,-5.4296,-5.4837,-5.4837,-5.5277,-5.5953,-5.5953,-5.6393,-5.7036,-5.7036,-5.7374,-5.7881,-5.7881,-5.7881,-5.7881,0.0,0.0,0.0,0.0,0.0,0.0,0.0,0.0,0.0,0.0,0.0,0.0,0.0,0.0,0.0,0.0,0.0,0.0,0.0,-2.2094,-2.2702,-2.4442,-2.5312,-2.622,-2.7216,-2.645,-2.6089,-2.6121,-2.6139,-2.6088,-2.6122,-2.7469,-2.7946,-2.7695,-2.7971,-2.7645,-2.6826,-2.5963,-2.5435,-2.5184,-2.5209,-2.5413,-2.5743,-2.6164,-2.6357,-2.6523,-2.7415,0.0,0.0,0.0,0.0,0.0,0.0,0.0,-3.0642,-3.1301,-3.175,-3.2228,-3.3215,-3.4203,-3.525,-3.6178,-3.8422,-4.0576,-4.1235,-4.2162,-4.294,-4.323,-4.329,-4.3448,-4.4004,-4.4943,-4.6102,-4.7428,-4.8488,-4.9628,-5.0978,-5.1192,-5.141,-5.1954,-5.2026,-5.2026,-5.2026,-5.2026,-5.2205,-5.2697,-5.2732,-5.2939,-5.345,-5.3518,-5.3518,-5.3518,-5.3518,-5.3518,-5.3518,-5.3518,-5.3518,-5.3518,-5.3518,-5.3518,-5.3518,-5.3518,-5.3721,-5.4059,-5.4059,-5.4499,-5.5175,-5.5175,-5.5615,-5.6325,-5.6664,-5.7036,-5.7408,-5.7746,-5.7554,-5.7076,0.0,0.0,0.0,0.0,0.0,0.0,0.0,0.0,0.0,0.0,0.0,0.0,0.0,0.0,0.0,0.0,0.0,0.0,0.0,-2.2368,-2.3324,-2.6001,-2.61,-2.6643,-2.7803,-2.6548,-2.6078,-2.6617,-2.5639,-2.548,-2.6074,-2.7359,-2.8021,-2.8097,-2.8279,-2.7814,-2.6952,-2.6197,-2.5695,-2.5362,-2.5135,-2.563,-2.6431,-2.6218,-2.6457,-2.7051,-2.7997,-2.8712,-2.929,-3.0208,0.0,0.0,0.0,0.0,-3.0492,-3.1271,-3.1511,-3.1899,-3.3664,-3.4503,-3.5282,-3.7135,-3.899,-4.0576,-4.1235,-4.1931,-4.259,-4.317,-4.329,-4.329,-4.329,-4.3828,-4.478,-4.6348,-4.7145,-4.8146,-4.9875,-5.0126,-5.0204,-5.0358,-5.0397,-5.0397,-5.0397,-5.0397,-5.0741,-5.1561,-5.1667,-5.2026,-5.2904,-5.311,-5.3213,-5.3213,-5.3382,-5.3518,-5.3518,-5.3518,-5.3518,-5.3518,-5.3518,-5.3518,-5.3518,-5.3518,-5.3518,-5.3518,-5.3518,-5.3856,-5.4397,-5.4397,-5.4733,-5.5301,-5.5907,-5.6205,-5.6328,-5.6932,-5.664,-5.5896,0.0,0.0,0.0,0.0,0.0,0.0,0.0,0.0,0.0,0.0,-1.9811,-2.0016,-2.0597,-2.075,0.0,0.0,0.0,0.0,-2.3248,0.0,0.0,-2.6147,-2.661,-2.6941,-2.7113,-2.6903,-2.6655,-2.6282,-2.6573,-2.7091,-2.7841,-2.755,-2.7645,-2.8133,-2.8876,-2.7954,-2.5887,-2.6672,-2.6001,-2.4557,-2.5603,-2.5842,-2.5685,-2.6722,-2.6886,-2.6732,-2.8092,-2.8628,-2.8893,-3.0105,-3.0193,0.0,0.0,0.0,-2.9953,-3.1152,-3.1511,-3.169,-3.2557,-3.4472,-3.6537,-3.7913,-3.9349,-4.0576,-4.1235,-4.1931,-4.259,-4.317,-4.329,-4.329,-4.329,-4.3828,-4.4567,-4.5391,-4.6052,-4.7092,-4.8789,-4.9013,-4.9376,-5.0281,-5.0397,-5.0397,-5.0397,-5.0397,-5.0435,-5.0589,-5.0589,-5.0665,-5.0779,-5.1631,-5.2101,-5.2101,-5.3041,-5.3518,-5.3518,-5.3518,-5.3518,-5.3518,-5.3518,-5.3518,-5.3518,-5.3518,-5.3518,-5.3518,-5.3518,-5.3551,-5.3653,-5.3653,-5.3509,-5.3361,-5.346,-5.3727,-5.4051,-5.4148,-5.4446,-5.4838,0.0,0.0,0.0,0.0,0.0,0.0,0.0,0.0,0.0,0.0,0.0,-2.0622,-2.1259,-2.128,0.0,0.0,0.0,0.0,-2.2908,-2.4873,0.0,-2.6354,-2.6891,-2.74,-2.7905,-2.7029,-2.6631,-2.6807,-2.6355,-2.712,-2.9081,-2.8496,-2.8936,-3.0148,-2.9861,-2.8912,-2.7461,-2.6966,-2.6205,-2.5395,-2.5656,-2.6497,-2.7541,-2.7023,-2.743,-2.821,-2.8085,-2.8278,-2.8697,-2.9235,-2.9505,-2.9711,-3.0253,0.0,0.0,0.0,-3.0432,-3.0731,-3.2138,-3.4203,-3.6237,-3.7524,-3.8571,-3.9559,-4.0606,-4.1055,-4.1564,-4.2581,-4.2791,-4.291,-4.323,-4.3529,-4.3947,-4.4646,-4.5304,-4.613,-4.7266,-4.7703,-4.8157,-4.8625,-4.8666,-4.8666,-4.8666,-4.8666,-4.8882,-4.9456,-4.9496,-4.9773,-5.0358,-5.0817,-5.1043,-5.1043,-5.1521,-5.2026,-5.2592,-5.2592,-5.2904,-5.3518,-5.2904,-5.2592,-5.2592,-5.2592,-5.2939,-5.3518,-5.3518,-5.3518,-5.345,-5.287,-5.2511,-5.2379,-5.2253,-5.2275,-5.2525,-5.3326,-5.3353,-5.3153,0.0,0.0,0.0,0.0,0.0,0.0,0.0,0.0,0.0,0.0,0.0,0.0,-2.1875,0.0,0.0,0.0,0.0,0.0,-2.3086,0.0,0.0,0.0,-2.691,-2.7524,-2.8338,-2.7016,-2.6661,-2.7374,-2.6429,-2.7427,-3.021,-3.0023,-3.0934,-3.2693,-3.1387,-3.0118,-2.8955,-2.7876,-2.7173,-2.6748,-2.6553,-2.7625,-2.9232,-2.8155,-2.8716,-2.9894,-2.8573,-2.8453,-2.8816,-2.8667,-2.8816,-2.9142,-2.9502,-2.9475,0.0,0.0,0.0,-3.0163,-3.1839,-3.3724,-3.5519,-3.6656,-3.7674,-3.8691,-3.9888,-4.0277,-4.0726,-4.1901,-4.2141,-4.2351,-4.297,-4.32,-4.3499,-4.4197,-4.4736,-4.5334,-4.616,-4.6741,-4.713,-4.7279,-4.7309,-4.7309,-4.7309,-4.7309,-4.7593,-4.8377,-4.8418,-4.8759,-4.9567,-4.9852,-5.0009,-5.0009,-5.0242,-5.0741,-5.1488,-5.1488,-5.1921,-5.2696,-5.1885,-5.1488,-5.1488,-5.1488,-5.199,-5.2731,-5.2731,-5.2731,-5.2661,-5.1849,-5.134,-5.1075,-5.0863,-5.0747,-5.079,-5.1862,-5.1911,-5.1563,0.0,0.0,0.0,0.0,0.0,0.0,0.0,0.0,0.0,0.0,0.0,0.0,-2.2512,-2.2649,-2.2875,-2.345,-2.3493,0.0,0.0,0.0,0.0,0.0,0.0,0.0,-2.7645,-2.6971,-2.6917,-2.7594,-2.7539,-2.883,-3.1395,-3.202,-3.3391,-3.5237,-3.3649,-3.1517,-2.9171,-2.9929,-2.9513,-2.8338,-2.9091,-2.9453,-2.9689,-3.0796,-3.1302,-3.1241,-2.9953,-2.9532,-2.9472,-2.8816,-2.8188,-2.7914,-2.9202,-2.9146,-2.8786,0.0,0.0,0.0,-3.1361,-3.3036,-3.4743,-3.5429,-3.7015,-3.8571,-3.932,-3.9948,-4.0606,-4.1294,-4.1482,-4.1662,-4.2321,-4.291,-4.3499,-4.4197,-4.4347,-4.4825,-4.6142,-4.6309,-4.6621,-4.7219,-4.7309,-4.7309,-4.7309,-4.7309,-4.7309,-4.7366,-4.7396,-4.7409,-4.7452,-4.8377,-4.8851,-4.8851,-4.9852,-5.0435,-5.0474,-5.0474,-5.0512,-5.055,-5.0512,-5.0474,-5.0474,-5.0474,-5.0512,-5.055,-5.055,-5.055,-5.055,-5.0512,-4.9891,-4.8932,-4.8953,-4.8753,-4.8487,-4.8577,-4.9299,-5.0288,0.0,0.0,0.0,0.0,0.0,0.0,0.0,0.0,0.0,0.0,0.0,0.0,0.0,-2.3275,-2.3363,-2.3588,-2.361,0.0,0.0,0.0,0.0,0.0,0.0,0.0,-2.7585,-2.7375,-2.7375,-2.7585,-2.7585,-2.8723,-3.0853,-3.112,-3.2287,-3.4203,-3.3621,-3.2572,-3.1243,-3.0713,-2.9995,-2.9237,-2.9931,-3.0702,-3.148,-3.1481,-3.2019,-3.2617,-3.13,-3.0552,-3.0133,-2.9894,-2.9116,-2.8308,-2.8816,-2.8487,-2.8004,-2.8244,-2.9082,-3.0043,-3.0702,-3.2018,-3.3574,-3.513,-3.6357,-3.7434,-3.8512,-3.929,-3.9948,-4.0606,-4.0756,-4.1085,-4.2201,-4.259,-4.291,-4.3569,-4.4007,-4.4496,-4.4975,-4.5741,-4.6369,-4.6651,-4.704,-4.7309,-4.7309,-4.7309,-4.7309,-4.7309,-4.7309,-4.7309,-4.7309,-4.7636,-4.7849,-4.7849,-4.8198,-4.8749,-4.9376,-4.9376,-4.9734,-5.0397,-4.9694,-4.9376,-4.9376,-4.9376,-4.9044,-4.8418,-4.8418,-4.9166,-5.0358,-4.9655,-4.9135,-4.8759,-4.8115,-4.7744,-4.7698,-4.8117,-4.8865,-4.9673,0.0,0.0,0.0,0.0,0.0,0.0,0.0,0.0,-2.1115,-2.1922,0.0,0.0,0.0,0.0,-2.361,-2.361,-2.361,-2.361,-2.361,-2.4007,0.0,0.0,0.0,0.0,-2.7585,-2.7375,-2.7375,-2.7585,-2.7585,-2.8483,-3.0193,-3.0402,-3.145,-3.3155,-3.2677,-3.2617,-3.2796,-3.1898,-3.1031,-3.0313,-3.115,-3.1898,-3.2527,-3.2736,-3.3425,-3.3993,-3.2647,-3.1898,-3.145,-3.1001,-3.0133,-2.9205,-2.8996,-2.8334,-2.7585,-2.7585,-2.8543,-2.9711,-3.0073,-3.133,-3.2886,-3.4442,-3.5489,-3.6447,-3.7494,-3.8452,-3.92,-3.9649,-3.9918,-4.0397,-4.1542,-4.1931,-4.2312,-4.314,-4.3648,-4.4047,-4.4287,-4.5095,-4.5813,-4.6262,-4.6711,-4.707,-4.7279,-4.7309,-4.7309,-4.7309,-4.7309,-4.7309,-4.7309,-4.7309,-4.7309,-4.7309,-4.7309,-4.7593,-4.8293,-4.8293,-4.8636,-4.9367,-4.8666,-4.8293,-4.8293,-4.8293,-4.7904,-4.7309,-4.7309,-4.8072,-4.9327,-4.8594,-4.8293,-4.821,-4.7581,-4.7309,-4.7369,-4.7788,-4.8506,-4.9389,0.0,0.0,0.0,0.0,0.0,0.0,0.0,0.0,-2.1286,-2.2563,0.0,0.0,0.0,0.0,0.0,-2.367,-2.364,-2.364,-2.364,-2.361,0.0,0.0,0.0,0.0,-2.7555,-2.6956,-2.6956,-2.7585,-2.7585,-2.8274,-2.9592,-3.0163,-3.118,-3.2407,-3.1091,-3.1569,-3.3395,-3.3395,-3.2677,-3.163,-3.2946,-3.3095,-3.2766,-3.4741,-3.5489,-3.534,-3.4023,-3.3544,-3.3335,-3.2019,-3.1122,-3.0462,-2.9774,-2.8693,-2.7615,-2.7615,-2.8543,-2.9621,0.0,0.0,0.0,-3.3305,-3.4472,-3.5609,-3.6297,-3.7434,-3.8332,-3.8392,-3.8931,-3.9589,-4.0277,-4.0935,-4.1773,-4.305,-4.329,-4.3529,-4.4197,-4.4317,-4.4796,-4.607,-4.6249,-4.6561,-4.7219,-4.7309,-4.7309,-4.7309,-4.7309,-4.7309,-4.7309,-4.7309,-4.7309,-4.7309,-4.7309,-4.7309,-4.7309,-4.7309,-4.7309,-4.7309,-4.7309,-4.7309,-4.7309,-4.7309,-4.7309,-4.7309,-4.7309,-4.7309,-4.7309,-4.7309,-4.7309,-4.7309,-4.7309,-4.7309,-4.7309,-4.7309,-4.8147,-4.9299,0.0,0.0,0.0,0.0,0.0,-2.0524,-2.0775,-2.1161,-2.1924,0.0,0.0,0.0,-2.4313,-2.4306,-2.4515,-2.5016,-2.4605,-2.4306,-2.4306,-2.3879,-2.4208,-2.5555,-2.5615,-2.6213,-2.7555,-2.7405,-2.7405,-2.7585,-2.7585,-2.8034,-2.8876,-2.9056,-2.9834,-3.1061,-3.0672,-3.0821,-3.13,-3.0851,-3.127,-3.2198,-3.2079,-3.2826,-3.3993,-3.4532,-3.507,-3.5459,-3.507,-3.4622,-3.4174,-3.3784,-3.2916,-3.1689,-3.0073,-2.8996,-2.8218,-2.7735,-2.8543,-2.9621,-2.9621,0.0,0.0,0.0,0.0,0.0,-3.5519,-3.6417,-3.7285,-3.8212,-3.8542,-3.902,-4.0187,-4.0546,-4.1115,-4.2402,-4.303,-4.3349,-4.3529,-4.3977,-4.4466,-4.4825,-4.5681,-4.6339,-4.6591,-4.704,-4.7309,-4.7309,-4.7309,-4.7309,-4.7309,-4.7309,-4.7309,-4.7309,-4.7309,-4.7309,-4.7309,-4.7309,-4.7309,-4.7309,-4.7309,-4.7309,-4.7309,-4.7309,-4.7309,-4.7309,-4.7309,-4.7309,-4.7309,-4.7309,-4.7309,-4.7309,-4.7309,-4.7309,-4.7309,-4.7309,-4.8147,-4.9299,0.0,0.0,-2.1393,-2.1094,-2.129,-2.1615,-2.1919,-2.2508,-2.3326,0.0,0.0,0.0,-2.5023,-2.5262,-2.5495,-2.5585,-2.5232,-2.4903,-2.4634,-2.4216,-2.4507,-2.5555,-2.5615,-2.6363,-2.8004,-2.7735,-2.7735,-2.8034,-2.7735,-2.7794,-2.8158,-2.8158,-2.8727,-2.9714,-2.9415,-2.9594,-3.0043,-2.9172,-2.9894,-3.1749,-3.2467,-3.3275,-3.4113,-3.4681,-3.516,-3.5519,-3.5519,-3.5429,-3.528,-3.5011,-3.4023,-3.2617,-3.0941,-3.0133,-2.9624,-2.8723,-2.9355,-3.0402,-3.0402,-3.0913,-3.172,-3.2677,0.0,0.0,-3.4771,-3.5579,-3.6357,-3.7375,-3.7793,-3.8302,-3.9379,-3.9798,-4.0337,-4.1422,-4.2312,-4.303,-4.326,-4.3618,-4.4018,-4.4287,-4.5005,-4.5723,-4.6262,-4.6681,-4.701,-4.7279,-4.7309,-4.7309,-4.7309,-4.7309,-4.7309,-4.7309,-4.7309,-4.7309,-4.7309,-4.7309,-4.7309,-4.7309,-4.7309,-4.7309,-4.7309,-4.7309,-4.7309,-4.7309,-4.7309,-4.7309,-4.7309,-4.7309,-4.7309,-4.7309,-4.7309,-4.7309,-4.7309,-4.7309,-4.7967,-4.894,0.0,0.0,-2.1518,-2.1568,-2.2208,-2.2911,-2.3621,-2.4251,-2.5,0.0,-2.5944,-2.5974,-2.6033,-2.6422,-2.6482,-2.5974,-2.5794,-2.5435,-2.4754,-2.4634,-2.4903,-2.5561,-2.5615,-2.6512,-2.8457,-2.7914,-2.7884,-2.8487,-2.7884,-2.7585,-2.7585,-2.7585,-2.7914,-2.8457,-2.7794,-2.8184,-2.9322,-2.8184,-2.8813,-3.0702,-3.3126,-3.3873,-3.3724,-3.4951,-3.5489,-3.5609,-3.5609,-3.6028,-3.6477,-3.5818,-3.4771,-3.3484,-3.2138,-3.166,-3.1361,-3.0163,-3.0672,-3.16,-3.16,-3.166,-3.1989,-3.3125,-3.3006,0.0,-3.3993,-3.4831,-3.5579,-3.6237,-3.6866,-3.7494,-3.8153,-3.8781,-3.9409,-4.0068,-4.1235,-4.2312,-4.308,-4.326,-4.3499,-4.4137,-4.4257,-4.4796,-4.595,-4.613,-4.6441,-4.704,-4.716,-4.7219,-4.7309,-4.7309,-4.7309,-4.7309,-4.7309,-4.7309,-4.7309,-4.7309,-4.7309,-4.7309,-4.7309,-4.7309,-4.7309,-4.7309,-4.7309,-4.7309,-4.7309,-4.7309,-4.7309,-4.7309,-4.7309,-4.7309,-4.7309,-4.7309,-4.7309,-4.7309,-4.7728,-4.8386,-2.1142,-2.1446,-2.1619,-2.2071,-2.2749,-2.3472,-2.42,-2.4532,-2.5491,-2.7722,-2.8008,-2.8218,-2.8757,-2.7974,-2.7585,-2.7979,-2.7021,-2.6123,-2.5442,-2.4903,-2.4903,-2.5561,-2.5615,-2.6303,-2.7764,-2.7675,-2.7675,-2.7794,-2.7675,-2.7585,-2.7585,-2.7585,-2.7675,-2.7764,-2.7106,-2.7255,-2.8004,-2.8304,-2.9205,-3.0552,-3.1061,-3.2497,-3.4354,-3.4623,-3.537,-3.6297,-3.6297,-3.6686,-3.7135,-3.6507,-3.5759,-3.4891,-3.3544,-3.2736,-3.2138,-3.1361,-3.169,-3.2288,-3.2288,-3.2706,-3.3036,-3.2766,-3.3006,0.0,-3.2946,-3.3814,-3.4893,-3.5549,-3.6207,-3.6866,-3.7494,-3.7704,-3.8003,-3.8661,-3.9469,-4.0576,-4.2312,-4.3,-4.3349,-4.3469,-4.3947,-4.4407,-4.4676,-4.5185,-4.5544,-4.5663,-4.6202,-4.6741,-4.7279,-4.7309,-4.7309,-4.7309,-4.7309,-4.7309,-4.7309,-4.7309,-4.7309,-4.7309,-4.7309,-4.7309,-4.7309,-4.7309,-4.7309,-4.7309,-4.7309,-4.7309,-4.7309,-4.7309,-4.7309,-4.7309,-4.7309,-4.7309,-4.7309,-4.7309,-4.7728,-4.8297,-2.1043,-2.1744,-2.2412,-2.276,-2.373,-2.475,-2.5821,-2.6393,-2.7343,-2.9271,-2.9864,-2.9924,-2.9651,-2.8992,-2.8603,-2.8607,-2.7705,-2.6836,-2.6123,-2.5794,-2.5764,-2.6093,-2.6093,-2.6871,-2.8573,-2.7944,-2.7914,-2.8603,-2.7914,-2.7585,-2.7585,-2.7585,-2.7794,-2.8094,-2.7405,-2.7495,-2.8124,-2.8124,-2.8846,-3.0163,-3.148,-3.2976,-3.4563,-3.5252,-3.5908,-3.6537,-3.6836,-3.7135,-3.7315,-3.6686,-3.6267,-3.5699,-3.4023,-3.3724,-3.3814,-3.2796,-3.2976,-3.3484,-3.3484,-3.3484,-3.3484,-3.3484,-3.3484,0.0,0.0,-3.4024,-3.4713,-3.537,-3.5489,-3.5789,-3.6776,-3.6686,-3.6776,-3.7734,-3.8751,-3.9649,-4.0314,-4.1803,-4.297,-4.326,-4.3589,-4.3917,-4.4287,-4.4616,-4.4945,-4.5274,-4.5603,-4.6112,-4.677,-4.6501,-4.6621,-4.7279,-4.698,-4.698,-4.7309,-4.7309,-4.7309,-4.7309,-4.7309,-4.7309,-4.7309,-4.7309,-4.7309,-4.7309,-4.7309,-4.7309,-4.7309,-4.7309,-4.7309,-4.7309,-4.7309,-4.7309,-4.7309,-4.7309,-4.7519,-4.7848,-2.0792,-2.1933,-2.3083,-2.3349,-2.4613,-2.6048,-2.7305,-2.8036,-2.8906,-3.0313,-3.1182,-3.1331,-3.046,-3.0103,-2.9804,-2.9385,-2.8513,-2.7705,-2.7021,-2.6841,-2.6806,-2.6806,-2.6662,-2.747,-2.9382,-2.8214,-2.8124,-2.9202,-2.8124,-2.7525,-2.7405,-2.7525,-2.7824,-2.8188,-2.7794,-2.8034,-2.8757,-2.8094,-2.8783,-3.052,-3.2497,-3.3634,-3.4294,-3.5729,-3.6387,-3.6596,-3.7494,-3.7793,-3.7674,-3.6926,-3.6656,-3.6327,-3.4472,-3.4711,-3.5459,-3.4233,-3.4352,-3.4863,-3.4743,-3.4382,-3.4143,-3.4444,-3.4294,-3.4113,0.0,0.0,0.0,-3.522,-3.4981,-3.5043,-3.6088,-3.5848,-3.5848,-3.6866,-3.8063,-3.8691,-3.8272,-4.0194,-4.1893,-4.2632,-4.2841,-4.321,-4.3868,-4.3838,-4.4137,-4.5035,-4.4885,-4.5125,-4.6082,-4.5603,-4.5783,-4.689,-4.6411,-4.6381,-4.692,-4.704,-4.713,-4.713,-4.7249,-4.7309,-4.7309,-4.7309,-4.7309,-4.7309,-4.7309,-4.7309,-4.7309,-4.7309,-4.7309,-4.7309,-4.7309,-4.7309,-4.7309,-4.7309,-4.7309,-4.7369,-2.0691,-2.1739,-2.2799,-2.3303,-2.5051,-2.6646,-2.7387,-2.7623,-2.8393,-3.0253,-3.1599,-3.2557,-3.3006,-3.2018,-3.1481,-3.1989,-3.0402,-2.9112,-2.8427,-2.7824,-2.7495,-2.7495,-2.6926,-2.726,-2.8667,-2.7974,-2.7675,-2.7824,-2.7675,-2.7315,-2.6746,-2.7315,-2.7315,-2.6841,-2.7375,-2.8304,-2.9442,-2.8757,-3.0253,-3.3036,-3.2736,-3.2677,-3.2946,-3.4891,-3.5968,-3.6716,-3.8542,-3.9164,-3.899,-3.7734,-3.7315,-3.7075,-3.5699,-3.5789,-3.6237,-3.5489,-3.5759,-3.6118,-3.5549,-3.5759,-3.5878,-3.4803,-3.5342,-3.5699,-3.3993,0.0,-3.525,-3.4743,0.0,-3.5429,-3.5579,0.0,0.0,-3.5699,-3.6327,-3.6985,-3.7464,-3.8272,-3.932,-4.0576,-4.1235,-4.1901,-4.256,-4.2081,-4.2462,-4.4287,-4.3399,-4.3519,-4.5304,-4.5334,-4.5364,-4.5514,-4.5454,-4.5454,-4.5514,-4.6142,-4.6399,-4.6399,-4.704,-4.7309,-4.7309,-4.7309,-4.7309,-4.7309,-4.7309,-4.7309,-4.7309,-4.7309,-4.7309,-4.7309,-4.7309,-4.7309,-4.7309,-4.7309,-4.7309,-4.7309,-2.0682,-2.2009,-2.3178,-2.3504,-2.5213,-2.6744,-2.7453,-2.9223,-3.0731,-3.1569,-3.2826,-3.3604,-3.3514,-3.2647,-3.2168,-3.2497,-3.142,-3.0432,-2.9744,-2.9445,-2.9142,-2.8783,-2.8098,-2.8218,-2.9146,-2.8154,-2.7794,-2.8158,-2.7794,-2.7465,-2.7195,-2.7465,-2.7854,-2.8364,-2.8633,-2.9475,-3.0702,-3.0404,-3.0851,-3.1839,-3.2736,-3.2856,-3.2826,-3.5579,-3.7255,-3.8302,-3.914,-3.9373,-3.9194,-3.7853,-3.7404,-3.7255,-3.6357,-3.5998,-3.5938,-3.6058,-3.5998,-3.5848,-3.5579,-3.5998,-3.6267,-3.531,-3.5789,-3.6178,-3.4951,-3.51,-3.5429,-3.513,0.0,0.0,0.0,0.0,0.0,0.0,-3.6058,-3.6447,-3.6327,-3.7195,-3.8332,-3.9679,-4.0068,-4.0487,-4.1145,-4.0965,-4.1474,-4.306,-4.2351,-4.2641,-4.4616,-4.4377,-4.4496,-4.5274,-4.4915,-4.4915,-4.5304,-4.5574,-4.5933,-4.6279,-4.6621,-4.692,-4.7309,-4.7309,-4.7309,-4.7309,-4.7309,-4.7309,-4.7309,-4.7309,-4.7309,-4.7309,-4.7309,-4.7309,-4.7309,-4.7309,-4.7309,-4.7309,-2.0917,-2.2216,-2.3362,-2.3874,-2.5375,-2.6824,-2.7748,-3.0043,-3.1898,-3.2437,-3.3514,-3.4173,-3.4053,-3.3455,-3.3125,-3.3305,-3.2527,-3.1839,-3.136,-3.1001,-3.0672,-3.0402,-2.9415,-2.9175,-2.9834,-2.8543,-2.8034,-2.8308,-2.7854,-2.7585,-2.7585,-2.7585,-2.8124,-2.9082,-2.9621,-3.0462,-3.1511,-3.169,-3.1899,-3.2228,-3.3335,-3.3903,-3.4352,-3.6567,-3.8242,-3.9373,-3.9373,-3.9373,-3.9194,-3.8063,-3.7674,-3.7584,-3.6926,-3.6537,-3.6357,-3.6656,-3.6537,-3.6207,-3.5878,-3.6237,-3.6537,-3.5699,-3.5998,-3.6297,-3.5639,-3.5639,-3.5729,-3.5549,-3.525,0.0,0.0,0.0,-3.4921,-3.5429,0.0,-3.6058,-3.5579,-3.6297,-3.7315,-3.8482,-3.8931,-3.932,-3.9798,-3.9679,-4.0217,-4.1752,-4.1063,-4.1504,-4.3658,-4.3329,-4.3599,-4.4736,-4.4287,-4.4287,-4.4766,-4.4945,-4.5274,-4.5741,-4.61,-4.6561,-4.704,-4.7219,-4.7309,-4.7309,-4.7309,-4.7309,-4.7309,-4.7309,-4.7309,-4.7309,-4.7309,-4.7309,-4.7309,-4.7309,-4.7309,-4.7309,-2.1544,-2.2235,-2.3119,-2.4451,-2.5737,-2.7026,-2.8368,-2.9205,-3.0372,-3.2258,-3.3095,-3.4023,-3.531,-3.4831,-3.4713,-3.534,-3.4203,-3.3425,-3.3395,-3.2168,-3.175,-3.2407,-3.0582,-2.9834,-3.0462,-2.9235,-2.8248,-2.7615,-2.7615,-2.7585,-2.7585,-2.7585,-2.7615,-2.7735,-2.9624,-3.0853,-3.154,-3.2168,-3.3963,-3.6178,-3.4983,-3.5968,-3.8153,-3.7614,-3.8242,-3.9373,-3.9373,-3.9373,-3.9284,-3.8601,-3.8362,-3.8242,-3.7584,-3.7793,-3.8182,-3.7554,-3.7823,-3.8033,-3.6776,-3.6896,-3.7075,-3.5818,-3.5998,-3.6297,-3.5639,-3.5998,-3.6267,-3.5639,-3.5998,-3.6237,-3.5609,-3.5489,-3.5489,-3.5519,-3.5519,0.0,0.0,-3.5549,-3.5818,-3.6507,-3.7674,-3.8422,-3.8452,-3.7883,-3.8332,-4.0307,-3.923,-3.9685,-4.2321,-4.244,-4.2701,-4.3319,-4.3319,-4.3319,-4.3349,-4.3977,-4.4347,-4.4407,-4.5693,-4.6279,-4.6339,-4.701,-4.7309,-4.7309,-4.7309,-4.7309,-4.7309,-4.7309,-4.7309,-4.7309,-4.7309,-4.7309,-4.7309,-4.7309,-4.7309,-4.7309,-2.2828,-2.3578,-2.4,-2.3975,-2.5437,-2.72,-2.8966,-3.0163,-3.142,-3.2976,-3.3754,-3.4502,-3.54,-3.531,-3.525,-3.5489,-3.51,-3.4651,-3.4173,-3.3724,-3.3395,-3.3185,-3.2108,-3.142,-3.1152,-3.0313,-2.9325,-2.8248,-2.8248,-2.8248,-2.8248,-2.7824,-2.8064,-2.8992,-3.0492,-3.154,-3.2288,-3.4292,-3.516,-3.5222,-3.5672,-3.7105,-3.905,-3.8811,-3.902,-3.9373,-3.9373,-3.9373,-3.9379,-3.914,-3.8781,-3.8422,-3.8661,-3.8272,-3.7793,-3.8003,-3.7913,-3.7644,-3.7225,-3.7554,-3.7764,-3.6477,-3.6626,-3.6836,-3.5759,-3.5998,-3.6297,-3.5639,-3.6028,-3.6297,-3.5639,-3.5519,-3.5519,-3.5519,-3.5519,-3.5519,0.0,-3.5519,-3.5579,-3.5818,-3.6596,-3.7135,-3.7135,-3.6926,-3.7614,-3.9589,-3.8901,-3.9349,-4.1632,-4.2171,-4.25,-4.2671,-4.312,-4.329,-4.329,-4.3499,-4.3858,-4.4317,-4.5214,-4.5873,-4.6309,-4.701,-4.7309,-4.7309,-4.7309,-4.7309,-4.7309,-4.7309,-4.7309,-4.7309,-4.7309,-4.7309,-4.7309,-4.7309,-4.7309,-4.7369,-2.3947,-2.4573,-2.4952,-2.4709,-2.6123,-2.7829,-2.9382,-3.0702,-3.1989,-3.3335,-3.4053,-3.4863,-3.5759,-3.5848,-3.5938,-3.6178,-3.6178,-3.5908,-3.5252,-3.4981,-3.4651,-3.4233,-3.3335,-3.2647,-3.2198,-3.1569,-3.0582,-2.9295,-2.9295,-2.9295,-2.9265,-2.8368,-2.8543,-2.9681,-3.0913,-3.175,-3.2318,-3.525,-3.6118,-3.5639,-3.6985,-3.8302,-3.9373,-3.9373,-3.9373,-3.9373,-3.9373,-3.9373,-3.9373,-3.9373,-3.911,-3.8841,-3.9254,-3.8841,-3.8212,-3.8631,-3.8452,-3.8063,-3.7823,-3.8063,-3.8153,-3.7075,-3.7105,-3.7135,-3.6088,-3.6357,-3.6626,-3.5998,-3.6178,-3.6417,-3.6237,-3.5818,-3.5579,-3.5818,-3.5669,-3.5519,0.0,-3.5519,-3.5519,-3.5519,-3.5878,-3.6148,-3.6148,-3.6148,-3.6746,-3.8272,-3.8182,-3.8811,-4.0576,-4.1572,-4.2141,-4.2381,-4.3,-4.329,-4.329,-4.329,-4.3499,-4.3917,-4.4616,-4.5304,-4.5992,-4.6651,-4.707,-4.7309,-4.7309,-4.7309,-4.7309,-4.7309,-4.7309,-4.7309,-4.7309,-4.7309,-4.7309,-4.7309,-4.7309,-4.7399,-2.4887,-2.5295,-2.5974,-2.6632,-2.7739,-2.8816,-2.9592,-3.0731,-3.1989,-3.3365,-3.4113,-3.5073,-3.6387,-3.6537,-3.6776,-3.7375,-3.7404,-3.7165,-3.6567,-3.5938,-3.5609,-3.5609,-3.4352,-3.3634,-3.3604,-3.2946,-3.1958,-3.0612,-3.0582,-3.0552,-3.0522,-2.9235,-2.8996,-2.9711,-3.0972,-3.154,-3.178,-3.513,-3.6896,-3.7614,-3.8901,-3.9373,-3.9409,-3.9445,-3.9445,-3.9445,-3.9409,-3.9373,-3.9373,-3.9373,-3.9373,-3.9373,-3.9373,-3.9373,-3.9373,-3.9373,-3.9373,-3.929,-3.8661,-3.8482,-3.8332,-3.7704,-3.7524,-3.7345,-3.6716,-3.7045,-3.7285,-3.6656,-3.6567,-3.6746,-3.7255,-3.6387,-3.5759,-3.6327,-3.5908,-3.5519,-3.5519,-3.5519,-3.5519,-3.5519,-3.5519,-3.5519,-3.5519,-3.5519,-3.5789,-3.6447,-3.7015,-3.7943,-3.929,-4.0606,-4.1662,-4.2321,-4.297,-4.329,-4.329,-4.329,-4.329,-4.329,-4.3988,-4.4646,-4.5304,-4.5992,-4.6681,-4.7309,-4.7309,-4.7309,-4.7309,-4.7309,-4.7309,-4.7309,-4.7309,-4.7309,-4.7309,-4.7309,-4.7309,-4.7399,-2.6041,-2.7041,-2.8038,-2.8723,-2.8304,-2.8547,-3.0702,-3.1301,-3.2138,-3.3993,-3.4831,-3.5729,-3.7045,-3.7165,-3.7225,-3.7404,-3.7404,-3.7345,-3.7195,-3.7015,-3.6926,-3.6926,-3.6148,-3.5489,-3.5011,-3.4322,-3.3335,-3.1988,-3.1481,-3.1241,-3.1212,-2.9953,-2.9654,-3.0313,-3.163,-3.2228,-3.2437,-3.5789,-3.7823,-3.8931,-3.9254,-3.9373,-3.9481,-4.013,-4.0378,-4.0274,-3.9631,-3.9373,-3.9373,-3.9373,-3.9373,-3.9373,-3.9373,-3.9373,-3.9373,-3.9373,-3.9373,-3.9499,-3.9798,-3.9888,-3.9858,-3.9679,-3.926,-3.8721,-3.8063,-3.8033,-3.7943,-3.7315,-3.7554,-3.7674,-3.6866,-3.6447,-3.6118,-3.5818,-3.5609,-3.5519,-3.5519,-3.5519,-3.5519,-3.5519,-3.5519,-3.5519,-3.5519,-3.5519,-3.5789,-3.6447,-3.6626,-3.7285,-3.8571,-3.9918,-4.0935,-4.1662,-4.2731,-4.329,-4.329,-4.329,-4.329,-4.329,-4.3988,-4.4646,-4.5304,-4.5992,-4.6681,-4.7309,-4.7309,-4.7309,-4.7309,-4.7309,-4.7309,-4.7309,-4.7309,-4.7309,-4.7309,-4.7309,-4.7309,-4.7339,-2.7479,-2.8517,-2.9744,-3.0702,-3.0013,-2.9804,-3.1271,-3.1989,-3.2796,-3.3903,-3.4891,-3.5878,-3.6896,-3.7494,-3.7973,-3.8272,-3.8272,-3.8153,-3.7853,-3.7853,-3.7704,-3.7434,-3.7075,-3.6596,-3.5938,-3.5549,-3.4743,-3.3365,-3.2706,-3.2198,-3.1899,-3.0612,-3.0163,-3.0552,-3.1898,-3.2527,-3.2736,-3.6028,-3.8003,-3.9026,-3.9723,-3.9955,0.0,-4.0927,-4.1264,-4.1198,-4.0721,-4.0274,-4.0025,-4.0413,-4.0274,-4.0025,-4.0413,-4.0735,-4.0948,-4.0553,-4.0659,-4.0891,-4.0875,-4.0816,-4.0816,-4.0816,-4.0546,-4.0038,-3.905,-3.8841,-3.8661,-3.7973,-3.7913,-3.7913,-3.7793,-3.7075,-3.6267,-3.5609,-3.5519,-3.5519,-3.5519,-3.5519,-3.5519,-3.5519,-3.5519,-3.5519,-3.5519,-3.5519,-3.5669,-3.6028,-3.6327,-3.6806,-3.7524,-3.908,-4.0277,-4.0935,-4.2222,-4.303,-4.329,-4.329,-4.329,-4.329,-4.3678,-4.4377,-4.5304,-4.5693,-4.6411,-4.7309,-4.7309,-4.7309,-4.7309,-4.7309,-4.7309,-4.7309,-4.7309,-4.7309,-4.7309,-4.7309,-4.7309,-4.7339,-2.9086,-2.9953,-3.115,-3.2317,-3.2138,-3.1929,-3.2019,-3.2946,-3.3694,-3.3873,-3.504,-3.6148,-3.6806,-3.7853,-3.8781,-3.9379,-3.9373,-3.917,-3.8571,-3.8512,-3.8272,-3.7704,-3.7584,-3.7285,-3.6746,-3.6567,-3.5911,-3.4653,-3.3873,-3.3125,-3.2318,-3.118,-3.0582,-3.0552,-3.1898,-3.2647,-3.3095,-3.625,-3.7936,-3.8702,-4.0242,-4.0894,-4.0995,-4.182,-4.2173,-4.2205,-4.2429,-4.1786,-4.0995,-4.1883,-4.1653,-4.1153,-4.201,-4.2653,-4.29,-4.2077,-4.2231,-4.2442,-4.1739,-4.1542,-4.1572,-4.1624,-4.1564,-4.1175,-3.9948,-3.9582,-3.9349,-3.8661,-3.8063,-3.8003,-3.908,-3.7764,-3.6267,-3.5609,-3.5519,-3.5519,-3.5519,-3.5519,-3.5519,-3.5519,-3.5519,0.0,-3.5519,-3.5519,-3.5519,-3.5519,-3.6028,-3.6417,-3.6596,-3.8302,-3.9679,-4.0487,-4.1752,-4.2671,-4.329,-4.329,-4.329,-4.329,-4.329,-4.4018,-4.5304,-4.5304,-4.6022,-4.7309,-4.7309,-4.7309,-4.7309,-4.7309,-4.7309,-4.7309,-4.7309,-4.7309,-4.7309,-4.7309,-4.7309,-4.7399,-3.0913,-3.16,-3.2198,-3.2437,-3.3305,-3.4143,-3.4711,-3.4532,-3.4743,-3.5818,-3.7075,-3.8153,-3.8841,-3.911,-3.929,-3.9373,-3.9373,-3.9343,-3.926,-3.923,-3.92,-3.9044,-3.8512,-3.8182,-3.8063,-3.7015,-3.6118,-3.531,-3.4113,-3.2886,-3.166,-3.1421,-3.1032,-3.0552,-3.1898,-3.3425,-3.5132,-3.7481,-3.8851,-3.9596,-4.1177,-4.1756,-4.1853,-4.2738,-4.3078,-4.3267,-4.4556,-4.3631,-4.1884,-4.2653,-4.2813,-4.281,-4.3551,-4.3366,-4.2833,-4.2656,-4.2132,-4.1739,-4.2119,-4.2231,-4.2351,-4.2851,-4.2581,-4.2021,-4.1205,-4.0606,-4.0038,-3.9379,-3.914,-3.896,-3.8631,-3.7434,-3.6267,-3.5609,-3.5519,-3.5519,-3.5519,-3.5519,-3.5519,-3.5519,-3.5519,-3.5519,-3.5519,-3.5519,-3.5519,-3.5519,-3.5609,-3.6148,-3.7195,-3.8093,-3.9379,-4.1145,-4.1991,-4.2671,-4.329,-4.329,-4.329,-4.329,-4.329,-4.4018,-4.5304,-4.5304,-4.6022,-4.7309,-4.7309,-4.7309,-4.7309,-4.7309,-4.7309,-4.7309,-4.7309,-4.7309,-4.7309,-4.7309,-4.7309,-4.7399,-3.2856,-3.3036,-3.3125,-3.3484,-3.4352,-3.513,-3.5459,-3.6058,-3.6507,-3.6477,-3.7315,-3.8003,-3.8332,-3.8955,-3.9373,-3.9373,-3.9373,-3.9373,-3.9373,-3.9373,-3.9373,-3.9373,-3.911,-3.8751,-3.8392,-3.7464,-3.6656,-3.5998,-3.4322,-3.3185,-3.2497,-3.1839,-3.1331,-3.1062,-3.2437,-3.3933,-3.5644,-3.7797,-3.8863,-3.9397,-4.1724,-4.2676,-4.2834,-4.4082,-4.4545,-4.4704,-4.5862,-4.5503,-4.4535,-4.4898,-4.4747,-4.4494,-4.5301,-4.5503,-4.5242,-4.4259,-4.3944,-4.3741,-4.3072,-4.288,-4.294,-4.323,-4.309,-4.2611,-4.1594,-4.1145,-4.0636,-3.9619,-3.9373,-3.92,-3.8512,-3.7614,-3.6866,-3.6537,-3.5938,-3.5639,-3.5968,-3.5729,-3.5519,-3.5519,-3.5519,-3.5519,-3.5519,-3.5519,-3.5519,-3.5519,-3.5519,-3.5938,-3.6866,-3.7524,-3.8631,-4.0307,-4.1324,-4.2201,-4.2821,-4.311,-4.329,-4.329,-4.329,-4.4018,-4.5304,-4.5304,-4.6022,-4.7309,-4.7309,-4.7309,-4.7309,-4.7309,-4.7309,-4.7309,-4.7309,-4.7309,-4.7352,-4.7892,-4.8072,-4.814,-3.4294,-3.4173,-3.4053,-3.4444,-3.516,-3.5759,-3.5878,-3.7315,-3.8033,-3.7015,-3.7434,-3.7823,-3.7823,-3.8781,-3.9373,-3.9373,-3.9373,-3.9373,-3.9373,-3.9373,-3.9373,-3.9373,-3.9373,-3.917,-3.8631,-3.8151,-3.7429,-3.6477,-3.4963,-3.3818,-3.3066,-3.2288,-3.2017,-3.2221,-3.3427,-3.4696,-3.6129,-3.8309,-3.9314,-3.9724,-4.2657,-4.3823,-4.3983,-4.5404,-4.594,-4.6041,-4.6786,-4.7022,-4.7056,-4.7192,-4.67,-4.6167,-4.7012,-4.7545,-4.7517,-4.5819,-4.5617,-4.5525,-4.3741,-4.329,-4.329,-4.329,-4.329,-4.2961,-4.1683,-4.1422,-4.0995,-3.9679,-3.9373,-3.92,-3.8512,-3.7973,-3.7524,-3.7255,-3.6477,-3.5998,-3.6237,-3.5938,-3.5669,-3.5519,-3.537,-3.534,-3.5489,-3.537,-3.534,-3.5489,-3.5519,-3.5789,-3.6447,-3.6956,-3.7823,-3.917,-4.0487,-4.1542,-4.2171,-4.294,-4.3409,-4.3645,-4.3409,-4.4098,-4.5604,-4.5398,-4.6022,-4.7309,-4.7309,-4.7309,-4.7309,-4.7309,-4.7309,-4.7309,-4.7309,-4.7309,-4.7409,-4.846,-4.88,-4.8903,-3.4474,-3.4921,-3.513,-3.4623,-3.5582,-3.6596,-3.7135,-3.7883,-3.8332,-3.8212,-3.8811,-3.9194,-3.9194,-3.9313,-3.9373,-3.9373,-3.9373,-3.9373,-3.9373,-3.9373,-3.9373,-3.9373,-3.9373,-3.9379,-3.932,-3.9436,-3.8491,-3.6477,-3.6473,-3.4848,-3.172,-3.2796,-3.3697,-3.4434,-3.5085,-3.6246,-3.7828,-4.0033,-4.1333,-4.2173,-4.4524,-4.5486,-4.5554,-4.6384,-4.6684,-4.6786,-4.753,-4.78,-4.7872,-4.8578,-4.8281,-4.7781,-4.8548,-4.8251,-4.7408,-4.6392,-4.5534,-4.4699,-4.3576,-4.329,-4.329,-4.329,-4.329,-4.2961,-4.1683,-4.1422,-4.0995,-3.9679,-3.9373,-3.92,-3.8512,-3.8332,-3.7913,-3.6746,-3.6956,-3.6836,-3.5759,-3.6058,-3.6178,-3.5579,-3.4951,-3.4831,-3.5459,-3.4951,-3.4863,-3.5459,-3.5519,-3.5789,-3.6447,-3.6537,-3.7165,-3.8452,-3.9798,-4.0816,-4.1512,-4.2701,-4.3771,-4.4662,-4.3732,-4.4467,-4.6559,-4.5697,-4.6022,-4.7309,-4.7309,-4.7309,-4.7309,-4.7309,-4.7309,-4.7309,-4.7309,-4.7309,-4.7409,-4.846,-4.88,-4.9149,-3.51,-3.4981,-3.507,-3.5612,-3.6118,-3.6836,-3.7853,-3.8571,-3.902,-3.902,-3.926,-3.9373,-3.9373,-3.9373,-3.9373,-3.9373,-3.9373,-3.9373,-3.9373,-3.9373,-3.9373,-3.9373,-3.9373,-3.9373,-3.9373,-3.9596,-3.902,-3.7614,-3.709,-3.5799,-3.3872,-3.3634,-3.4364,-3.5975,-3.6224,-3.7394,-3.9312,-4.157,-4.2686,-4.3171,-4.5442,-4.6346,-4.6447,-4.7192,-4.7462,-4.7564,-4.8308,-4.8578,-4.8612,-4.8917,-4.8815,-4.8612,-4.8917,-4.8767,-4.8257,-4.7306,-4.6381,-4.5416,-4.4472,-4.3771,-4.329,-4.329,-4.329,-4.2961,-4.1683,-4.1422,-4.0995,-3.9679,-3.9373,-3.9313,-3.905,-3.8661,-3.8362,-3.8272,-3.7764,-3.7375,-3.7255,-3.6806,-3.6387,-3.6118,-3.5489,-3.519,-3.5489,-3.525,-3.522,-3.5489,-3.5519,-3.5789,-3.6447,-3.6477,-3.6896,-3.7764,-4.0046,-4.1367,-4.1612,-4.3919,-4.5232,-4.5634,-4.5232,-4.599,-4.7612,-4.6599,-4.6546,-4.7309,-4.7309,-4.7309,-4.7309,-4.7309,-4.7309,-4.7309,-4.7309,-4.7309,-4.7495,-4.9166,-5.0026,-5.0779,-3.5519,-3.528,-3.5402,-3.6327,-3.6806,-3.7345,-3.8242,-3.896,-3.9373,-3.9373,-3.9373,-3.9373,-3.9373,-3.9373,-3.9373,-3.9373,-3.9373,-3.9517,-3.9773,-3.9553,-3.9517,-3.9773,-3.9773,-3.9666,-3.9409,-4.0293,-4.0086,-3.878,-3.8529,-3.7776,-3.6472,-3.5306,-3.5952,-3.8074,-3.8054,-3.9269,-4.1452,-4.33,-4.4201,-4.4564,-4.6376,-4.7124,-4.7192,-4.797,-4.821,-4.8308,-4.8815,-4.9018,-4.9018,-4.9018,-4.9018,-4.9018,-4.9018,-4.9018,-4.8829,-4.7868,-4.7138,-4.6384,-4.5452,-4.4706,-4.409,-4.381,-4.3732,-4.3382,-4.2,-4.1542,-4.0995,-3.9679,-3.9373,-3.9373,-3.9373,-3.902,-3.8781,-3.908,-3.8482,-3.8033,-3.8093,-3.7315,-3.6686,-3.6507,-3.5729,-3.528,-3.5489,-3.531,-3.528,-3.5489,-3.5899,-3.6172,-3.6211,-3.6387,-3.679,-3.7479,-4.0293,-4.1922,-4.2166,-4.484,-4.6349,-4.6592,-4.6574,-4.7312,-4.8683,-4.806,-4.7781,-4.7722,-4.7722,-4.7581,-4.7309,-4.7309,-4.7309,-4.7309,-4.7309,-4.7495,-4.7946,-4.9734,-5.1077,-5.2292,-3.5519,-3.6028,-3.6477,-3.6477,-3.7524,-3.8362,-3.8392,-3.896,-3.9373,-3.9373,-3.9373,-3.9373,-3.9373,-3.9373,-3.9373,-3.9373,-3.9373,-3.9773,-4.0622,-3.9884,-3.9773,-4.0656,-4.069,-4.0274,-3.9409,-4.1949,-4.2102,-3.9668,-4.1387,-4.1118,-3.8929,-3.8058,-3.8926,-4.1115,-4.1005,-4.2297,-4.4587,-4.5336,-4.6109,-4.6819,-4.7567,-4.7872,-4.7973,-4.8714,-4.8984,-4.8984,-4.9018,-4.9018,-4.9018,-4.9018,-4.9018,-4.9018,-4.9018,-4.9018,-4.8829,-4.7868,-4.7572,-4.7373,-4.6419,-4.6173,-4.5925,-4.5005,-4.4774,-4.4363,-4.2762,-4.1901,-4.0995,-3.9679,-3.9373,-3.9373,-3.9373,-3.9373,-3.92,-3.8512,-3.896,-3.8931,-3.7614,-3.7404,-3.7165,-3.6567,-3.5342,-3.4771,-3.5429,-3.4891,-3.4771,-3.5459,-3.684,-3.7059,-3.5582,-3.6118,-3.6877,-3.7685,-4.0355,-4.22,-4.3071,-4.5152,-4.6662,-4.7572,-4.7405,-4.8117,-4.9709,-5.0171,-4.9781,-4.88,-4.88,-4.821,-4.7309,-4.7309,-4.7309,-4.7309,-4.7309,-4.7904,-4.8891,-5.0009,-5.1496,-5.3221,-3.6088,-3.6327,-3.6746,-3.7614,-3.8123,-3.8542,-3.902,-3.9254,-3.9373,-3.9373,-3.9373,-3.9373,-3.9373,-3.9373,-3.9373,-3.9373,-3.992,-4.0413,-4.069,-4.0995,-4.1028,-4.0724,-4.1264,-4.1196,-4.0309,-4.2269,-4.2641,-4.1276,-4.1952,-4.1413,-3.97,-3.9907,-4.0976,-4.2719,-4.3171,-4.4384,-4.6143,-4.6887,-4.7361,-4.7631,-4.8376,-4.8646,-4.868,-4.8917,-4.9018,-4.9018,-4.9018,-4.9018,-4.9018,-4.9018,-4.9018,-4.9018,-4.9018,-4.9018,-4.8923,-4.8639,-4.8129,-4.7506,-4.7239,-4.6696,-4.5961,-4.5005,-4.4812,-4.4363,-4.2762,-4.1542,-4.0606,-4.0187,-3.9738,-3.9373,-3.9373,-3.9373,-3.9313,-3.914,-3.926,-3.926,-3.8805,-3.8003,-3.7345,-3.7135,-3.5968,-3.528,-3.5489,-3.531,-3.528,-3.5489,-3.5929,-3.6187,-3.6259,-3.7935,-3.8998,-3.9244,-4.2106,-4.4008,-4.4816,-4.6975,-4.8257,-4.8545,-4.8991,-4.9625,-5.0469,-5.1136,-5.0855,-4.9891,-4.9891,-4.9694,-4.9407,-4.9407,-4.9407,-4.9407,-4.9407,-4.9615,-5.0009,-5.1043,-5.2421,-5.3952,-3.6716,-3.7015,-3.7434,-3.8242,-3.8601,-3.8931,-3.9349,-3.9373,-3.9373,-3.9373,-3.9373,-3.9517,-3.9849,-3.9884,-3.9773,-3.9409,-4.0205,-4.086,-4.1164,-4.1691,-4.2045,-4.2105,-4.2623,-4.2623,-4.205,-4.374,-4.4205,-4.333,-4.3773,-4.3488,-4.2548,-4.2702,-4.3436,-4.4693,-4.5086,-4.6024,-4.7259,-4.8003,-4.8311,-4.8376,-4.912,-4.9424,-4.9424,-4.9729,-4.983,-4.983,-4.983,-4.983,-4.983,-4.983,-4.983,-4.983,-4.983,-4.983,-4.9729,-4.9154,-4.8576,-4.8129,-4.8129,-4.7704,-4.6968,-4.5634,-4.5337,-4.4818,-4.2839,-4.1752,-4.1055,-4.0816,-4.0247,-3.9798,-3.9798,-3.9553,-3.9373,-3.9373,-3.9373,-3.932,-3.908,-3.8093,-3.7417,-3.7452,-3.6548,-3.6038,-3.6352,-3.6598,-3.6783,-3.6783,-3.7561,-3.8121,-3.8323,-3.9086,-4.0032,-4.1219,-4.3629,-4.5381,-4.6457,-4.8161,-4.9154,-4.9424,-5.0439,-5.1227,-5.1823,-5.2289,-5.1921,-5.0968,-5.0968,-5.0741,-5.0397,-5.0397,-5.0397,-5.0397,-5.0397,-5.0627,-5.1043,-5.1667,-5.3063,-5.4795,-3.7345,-3.7973,-3.8392,-3.8452,-3.899,-3.9373,-3.9373,-3.9373,-3.9373,-3.9373,-3.9373,-3.9737,-4.0588,-4.069,-4.0413,-3.9661,-4.0378,-4.1198,-4.1949,-4.2173,-4.2908,-4.4344,-4.4502,-4.4489,-4.4296,-4.5932,-4.6391,-4.5588,-4.6391,-4.6786,-4.6786,-4.5996,-4.6091,-4.6857,-4.6828,-4.7224,-4.8007,-4.8714,-4.9052,-4.9154,-4.983,-5.0135,-5.0236,-5.0947,-5.1185,-5.1185,-5.1185,-5.1185,-5.1185,-5.1185,-5.1185,-5.1185,-5.1185,-5.1185,-5.0947,-4.9492,-4.9086,-4.9086,-4.9018,-4.9018,-4.8576,-4.673,-4.6208,-4.548,-4.3023,-4.244,-4.2231,-4.1602,-4.0935,-4.0457,-4.0457,-3.9918,-3.9463,-3.9463,-3.9439,-3.917,-3.8482,-3.7853,-3.75,-3.765,-3.7126,-3.706,-3.7863,-3.8555,-3.8969,-3.8969,-4.0936,-4.1898,-4.1304,-3.9844,-4.0419,-4.3472,-4.4958,-4.6396,-4.7939,-4.868,-4.939,-5.0168,-5.1623,-5.2739,-5.3518,-5.3518,-5.2939,-5.1993,-5.1993,-5.1484,-5.0627,-5.0627,-5.0627,-5.0627,-5.0627,-5.1192,-5.1993,-5.1993,-5.3597,-5.5681,-3.8033,-3.8272,-3.8571,-3.908,-3.9284,-3.9373,-3.9373,-3.9373,-3.9373,-3.9373,-3.9373,-3.9737,-4.0588,-4.069,-4.0894,-4.1362,-4.2173,-4.2489,-4.2013,-4.3786,-4.47,-4.4405,-4.5581,-4.5888,-4.5208,-4.624,-4.6697,-4.6484,-4.6697,-4.6786,-4.6819,-4.7181,-4.745,-4.7669,-4.8192,-4.8529,-4.8748,-4.8951,-4.9323,-4.983,-5.0033,-5.0439,-5.098,-5.1117,-5.1185,-5.1185,-5.1185,-5.1185,-5.1185,-5.1185,-5.1185,-5.1185,-5.1185,-5.1185,-5.1048,-5.0101,-4.983,-4.9729,-4.9154,-4.9018,-4.8736,-4.7539,-4.6205,-4.4787,-4.3395,-4.2731,-4.2351,-4.2201,-4.1632,-4.1145,-4.1145,-4.0606,-4.0157,-4.0157,-3.9738,-3.917,-3.8482,-3.8242,-3.8228,-3.8425,-3.8305,-3.8529,-3.9388,-3.9638,-3.9734,-3.9734,-4.0236,-4.0981,-4.1964,-4.2196,-4.3191,-4.5076,-4.6585,-4.7787,-4.8748,-4.8917,-4.9661,-5.0947,-5.186,-5.2739,-5.3518,-5.3518,-5.3348,-5.311,-5.311,-5.3007,-5.2765,-5.2765,-5.2765,-5.2765,-5.2765,-5.2904,-5.311,-5.311,-5.4224,-5.5681,-3.8721,-3.8871,-3.9103,-3.9859,-3.9666,-3.9553,-3.992,-3.9631,-3.9553,-3.992,-3.999,-4.0481,-4.1723,-4.1885,-4.2109,-4.2552,-4.3342,-4.36,-4.3132,-4.5057,-4.6136,-4.6018,-4.6847,-4.7248,-4.7087,-4.7555,-4.78,-4.78,-4.78,-4.78,-4.78,-4.824,-4.8409,-4.8443,-4.8815,-4.9187,-4.9492,-4.9492,-4.9932,-5.0642,-5.098,-5.1352,-5.1758,-5.2131,-5.2266,-5.2266,-5.2266,-5.2266,-5.2266,-5.2266,-5.2266,-5.2266,-5.2266,-5.2266,-5.2097,-5.1319,-5.0879,-5.0507,-5.0135,-4.9763,-4.9203,-4.7902,-4.6205,-4.4662,-4.412,-4.3382,-4.2791,-4.2791,-4.2282,-4.1994,-4.2416,-4.1663,-4.0994,-4.103,-4.0493,-3.9702,-3.8656,-3.8836,-3.9151,-3.9334,-3.9617,-4.0142,-4.0964,-4.135,-4.1548,-4.1548,-4.1873,-4.2638,-4.3781,-4.4545,-4.5358,-4.6177,-4.7327,-4.8274,-4.8984,-4.9695,-5.0574,-5.1725,-5.2469,-5.3078,-5.3518,-5.3518,-5.3518,-5.3518,-5.3518,-5.3518,-5.3518,-5.3518,-5.3518,-5.3518,-5.3518,-5.3518,-5.3518,-5.3518,-5.4431,-5.5681,-3.932,-3.9517,-3.9844,-4.0554,-4.0205,-4.0025,-4.0792,-4.0274,-4.006,-4.0792,-4.0894,-4.1495,-4.3108,-4.3323,-4.3386,-4.3668,-4.436,-4.466,-4.4438,-4.5999,-4.7259,-4.7872,-4.8007,-4.8376,-4.8984,-4.9018,-4.9018,-4.9018,-4.9018,-4.9018,-4.9018,-4.9018,-4.9018,-4.9018,-4.912,-4.9492,-5.0101,-5.0202,-5.0676,-5.142,-5.2063,-5.2367,-5.257,-5.3247,-5.3518,-5.3518,-5.3518,-5.3518,-5.3518,-5.3518,-5.3518,-5.3518,-5.3518,-5.3518,-5.3382,-5.2672,-5.2063,-5.1522,-5.1252,-5.0676,-4.9708,-4.8167,-4.648,-4.519,-4.5042,-4.4243,-4.3527,-4.3527,-4.3115,-4.3001,-4.3803,-4.2905,-4.2039,-4.1973,-4.1459,-4.0484,-3.8832,-3.9535,-4.0234,-4.0264,-4.1007,-4.1853,-4.274,-4.3403,-4.3781,-4.3882,-4.4553,-4.5196,-4.5838,-4.6583,-4.6955,-4.6955,-4.7699,-4.8443,-4.9154,-5.0642,-5.1691,-5.23,-5.3112,-5.3518,-5.3518,-5.3518,-5.3518,-5.3518,-5.3518,-5.3518,-5.3518,-5.3518,-5.3518,-5.3518,-5.3518,-5.3518,-5.3518,-5.3518,-5.4431,-5.5681,-3.9409,-3.999,-4.0519,-4.069,-4.1229,-4.1626,-4.1756,-4.1658,-4.1657,-4.1756,-4.1788,-4.2205,-4.3169,-4.3323,-4.3857,-4.5202,-4.6001,-4.5835,-4.4502,-4.6502,-4.78,-4.7906,-4.8511,-4.8883,-4.9018,-4.9018,-4.9018,-4.9018,-4.9018,-4.9018,-4.9018,-4.9018,-4.9018,-4.9018,-4.9661,-4.9965,-5.0135,-5.0777,-5.1454,-5.2131,-5.2266,-5.2706,-5.3348,-5.345,-5.3518,-5.3518,-5.3518,-5.3518,-5.3518,-5.3518,-5.3518,-5.3518,-5.3518,-5.3518,-5.3484,-5.3348,-5.3247,-5.2875,-5.1523,-5.0676,-4.9843,-4.8796,-4.7832,-4.6968,-4.6138,-4.5264,-4.4548,-4.4548,-4.4493,-4.4469,-4.462,-4.4157,-4.3493,-4.2758,-4.2187,-4.1055,-3.8894,-4.0387,-4.1494,-4.1087,-4.2166,-4.3551,-4.5009,-4.5297,-4.5602,-4.621,-4.638,-4.6515,-4.6616,-4.7327,-4.7733,-4.7733,-4.8443,-4.9187,-4.9898,-5.1386,-5.2198,-5.23,-5.3112,-5.3518,-5.3518,-5.3518,-5.3518,-5.3518,-5.3518,-5.3518,-5.3518,-5.3518,-5.3518,-5.3518,-5.3518,-5.3518,-5.3518,-5.3518,-5.4431,-5.5681,-4.0619,-4.0378,-4.0447,-4.1853,-4.2268,-4.2488,-4.2676,-4.23,-4.2173,-4.2645,-4.2707,-4.3047,-4.3919,-4.4006,-4.4452,-4.5607,-4.638,-4.6638,-4.631,-4.7656,-4.8511,-4.8511,-4.8815,-4.9018,-4.9018,-4.9018,-4.9018,-4.9018,-4.9018,-4.9018,-4.9018,-4.9018,-4.9221,-4.9593,-4.9932,-5.0541,-5.1319,-5.1657,-5.2232,-5.2942,-5.2942,-5.3179,-5.3518,-5.3518,-5.3518,-5.3518,-5.3518,-5.3518,-5.3518,-5.3518,-5.3518,-5.3518,-5.3518,-5.3518,-5.3518,-5.3518,-5.3518,-5.3247,-5.2097,-5.1555,-5.0985,-4.9755,-4.8829,-4.7966,-4.7135,-4.6208,-4.5561,-4.5561,-4.5561,-4.5706,-4.6205,-4.5819,-4.5275,-4.4941,-4.4037,-4.2846,-4.1368,-4.2081,-4.2804,-4.3003,-4.3939,-4.5056,-4.6181,-4.6278,-4.6413,-4.6752,-4.6786,-4.6955,-4.7361,-4.7733,-4.8244,-4.9052,-4.9424,-5.0135,-5.1251,-5.1961,-5.2536,-5.2942,-5.3315,-5.3518,-5.3518,-5.3518,-5.3518,-5.3518,-5.3518,-5.3518,-5.3518,-5.3518,-5.3518,-5.3518,-5.3518,-5.3518,-5.3551,-5.3957,-5.4769,-5.5784,-4.1723,-4.1095,-4.0959,-4.2956,-4.3259,-4.3287,-4.3562,-4.3015,-4.2831,-4.3532,-4.3591,-4.386,-4.453,-4.475,-4.5128,-4.5906,-4.6616,-4.7361,-4.8139,-4.8714,-4.9018,-4.9018,-4.9018,-4.9018,-4.9018,-4.9018,-4.9018,-4.9018,-4.9018,-4.9086,-4.9255,-4.9255,-4.9661,-5.0371,-5.0541,-5.1217,-5.23,-5.2503,-5.2942,-5.3518,-5.3518,-5.3518,-5.3518,-5.3518,-5.3518,-5.3518,-5.3518,-5.3518,-5.3518,-5.3518,-5.3518,-5.3518,-5.3518,-5.3518,-5.3518,-5.3518,-5.3518,-5.3382,-5.2739,-5.2435,-5.2029,-5.0879,-4.9956,-4.9094,-4.8365,-4.7434,-4.6717,-4.6555,-4.6523,-4.673,-4.7473,-4.7175,-4.671,-4.6384,-4.5507,-4.45,-4.3476,-4.3667,-4.4181,-4.4756,-4.55,-4.6244,-4.6989,-4.7056,-4.7124,-4.7293,-4.7293,-4.7564,-4.8139,-4.8173,-4.8849,-5.0304,-5.0507,-5.115,-5.23,-5.2503,-5.2875,-5.3518,-5.3518,-5.3518,-5.3518,-5.3518,-5.3518,-5.3518,-5.3518,-5.3518,-5.3518,-5.3518,-5.3518,-5.3518,-5.3518,-5.3518,-5.3585,-5.4329,-5.5074,-5.5818,-4.182,-4.2552,-4.3078,-4.3292,-4.3948,-4.4468,-4.4497,-4.444,-4.444,-4.4497,-4.4497,-4.4525,-4.4615,-4.5196,-4.5906,-4.665,-4.7394,-4.8139,-4.8883,-4.8984,-4.9018,-4.9018,-4.9018,-4.9018,-4.9018,-4.9018,-4.9018,-4.9018,-4.9018,-4.9357,-4.9999,-4.9999,-5.0405,-5.115,-5.1826,-5.2198,-5.2367,-5.3112,-5.345,-5.3518,-5.3518,-5.3518,-5.3518,-5.3518,-5.3518,-5.3518,-5.3518,-5.3518,-5.3518,-5.3518,-5.3518,-5.3518,-5.3518,-5.3518,-5.3518,-5.3518,-5.3518,-5.3484,-5.345,-5.2875,-5.2266,-5.2164,-5.1558,-5.0816,-5.0073,-4.9193,-4.8295,-4.7637,-4.7473,-4.7506,-4.7605,-4.7721,-4.7298,-4.5818,-4.5574,-4.5072,-4.3542,-4.457,-4.5568,-4.5602,-4.6278,-4.7022,-4.7767,-4.7804,-4.8105,-4.8781,-4.8849,-4.8849,-4.8917,-4.8917,-4.9593,-5.1082,-5.1792,-5.2198,-5.23,-5.3044,-5.345,-5.3518,-5.3518,-5.3518,-5.3518,-5.3518,-5.3518,-5.3518,-5.3518,-5.3518,-5.3518,-5.3518,-5.3518,-5.3518,-5.3518,-5.3518,-5.3585,-5.4329,-5.5074,-5.5818,-4.335,-4.329,-4.3259,-4.3977,-4.4384,-4.4615,-4.4615,-4.4615,-4.4615,-4.4615,-4.4615,-4.4615,-4.4615,-4.5263,-4.6007,-4.6718,-4.7496,-4.821,-4.8951,-4.9018,-4.9018,-4.9018,-4.9018,-4.9018,-4.9018,-4.9018,-4.9018,-4.9018,-4.9458,-4.983,-5.0101,-5.0574,-5.1183,-5.1894,-5.2164,-5.257,-5.3078,-5.3382,-5.3518,-5.3518,-5.3518,-5.3518,-5.3518,-5.3518,-5.3518,-5.3518,-5.3518,-5.3518,-5.3518,-5.3518,-5.3518,-5.3518,-5.3518,-5.3518,-5.3518,-5.3518,-5.3518,-5.3518,-5.3518,-5.3281,-5.2909,-5.2435,-5.2097,-5.1691,-5.0947,-5.052,-5.0056,-4.9286,-4.9152,-4.9018,-4.8549,-4.8531,-4.8385,-4.7771,-4.7349,-4.6836,-4.6234,-4.6304,-4.6549,-4.7022,-4.7327,-4.7767,-4.8511,-4.8578,-4.8714,-4.8984,-4.9018,-4.9018,-4.9018,-4.9864,-5.0845,-5.186,-5.2638,-5.3044,-5.3044,-5.3348,-5.3518,-5.3518,-5.3518,-5.3518,-5.3518,-5.3518,-5.3518,-5.3518,-5.3518,-5.3518,-5.3518,-5.3518,-5.3518,-5.3518,-5.3518,-5.3788,-5.4262,-5.5006,-5.575,-5.6494,-4.4327,-4.3914,-4.3617,-4.444,-4.4615,-4.4615,-4.4615,-4.4615,-4.4615,-4.4615,-4.4615,-4.4716,-4.4919,-4.5602,-4.6346,-4.709,-4.7834,-4.8477,-4.8984,-4.9018,-4.9018,-4.9018,-4.9018,-4.9018,-4.9018,-4.9018,-4.9018,-4.9018,-4.9729,-5.0202,-5.0473,-5.1217,-5.1961,-5.2672,-5.2672,-5.2976,-5.3518,-5.3518,-5.3518,-5.3518,-5.3518,-5.3518,-5.3518,-5.3518,-5.3518,-5.3518,-5.3518,-5.3518,-5.3518,-5.3518,-5.3518,-5.3518,-5.3518,-5.3518,-5.3518,-5.3518,-5.3518,-5.3518,-5.3518,-5.3518,-5.3382,-5.2807,-5.2672,-5.2469,-5.1725,-5.1555,-5.1352,-5.0608,-5.0236,-4.9932,-4.9424,-4.9154,-4.8917,-4.8714,-4.824,-4.7906,-4.7906,-4.7462,-4.7428,-4.8173,-4.8274,-4.8443,-4.8951,-4.9018,-4.9018,-4.9018,-4.9221,-4.9458,-4.9695,-5.0879,-5.1792,-5.2266,-5.3078,-5.3518,-5.3518,-5.3518,-5.3518,-5.3518,-5.3518,-5.3518,-5.3518,-5.3518,-5.3518,-5.3518,-5.3518,-5.3518,-5.3518,-5.3518,-5.3518,-5.3518,-5.3518,-5.3957,-5.4668,-5.5446,-5.619,-5.69,-4.4412,-4.4615,-4.4615,-4.4615,-4.4615,-4.4615,-4.4615,-4.4615,-4.4615,-4.4615,-4.4615,-4.4857,-4.5635,-4.6346,-4.709,-4.7838,-4.8578,-4.9018,-4.9018,-4.9018,-4.9018,-4.9018,-4.9018,-4.9018,-4.9018,-4.9018,-4.9018,-4.9018,-4.9729,-5.0473,-5.1219,-5.1961,-5.2739,-5.3518,-5.3518,-5.3518,-5.3518,-5.3518,-5.3518,-5.3518,-5.3518,-5.3518,-5.3518,-5.3518,-5.3518,-5.3518,-5.3518,-5.3518,-5.3518,-5.3518,-5.3518,-5.3518,-5.3518,-5.3518,-5.3518,-5.3518,-5.3518,-5.3518,-5.3518,-5.3518,-5.3518,-5.3518,-5.3518,-5.3281,-5.2503,-5.23,-5.2097,-5.1386,-5.0642,-5.0101,-5.0101,-4.9492,-4.8781,-4.8007,-4.7906,-4.7906,-4.7906,-4.7906,-4.8206,-4.8917,-4.9018,-4.9018,-4.9018,-4.9018,-4.9018,-4.9018,-4.9695,-5.0439,-5.1183,-5.1894,-5.23,-5.23,-5.3078,-5.3518,-5.3518,-5.3518,-5.3518,-5.3518,-5.3518,-5.3518,-5.3518,-5.3518,-5.3518,-5.3518,-5.3518,-5.3518,-5.3518,-5.3518,-5.3518,-5.3518,-5.3518,-5.3957,-5.4702,-5.5446,-5.619,-5.69,-4.4559,-4.4615,-4.4615,-4.4615,-4.4615,-4.4615,-4.4615,-4.4615,-4.4615,-4.4615,-4.4615,-4.4857,-4.5635,-4.6346,-4.709,-4.7838,-4.8578,-4.9018,-4.9018,-4.9018,-4.9018,-4.9018,-4.9018,-4.9018,-4.9018,-4.9018,-4.9255,-4.9763,-5.0507,-5.1251,-5.1995,-5.2773,-5.3281,-5.3518,-5.3518,-5.3518,-5.3518,-5.3518,-5.3518,-5.3518,-5.3518,-5.3518,-5.3518,-5.3518,-5.3518,-5.3518,-5.3518,-5.3518,-5.3518,-5.3518,-5.3518,-5.3518,-5.3518,-5.3518,-5.3518,-5.3518,-5.3518,-5.3518,-5.3518,-5.3518,-5.3518,-5.3518,-5.3518,-5.345,-5.3213,-5.3145,-5.2909,-5.2131,-5.1792,-5.1319,-5.027,-4.9898,-4.9526,-4.8815,-4.868,-4.868,-4.868,-4.868,-4.8748,-4.8984,-4.9018,-4.9018,-4.9018,-4.9018,-4.9221,-4.9729,-5.0473,-5.1217,-5.1928,-5.2198,-5.257,-5.3112,-5.3382,-5.3518,-5.3518,-5.3518,-5.3518,-5.3518,-5.3518,-5.3518,-5.3518,-5.3518,-5.3518,-5.3518,-5.3518,-5.3518,-5.3518,-5.3518,-5.3518,-5.3551,-5.4059,-5.4735,-5.548,-5.6224,-5.6934,-5.7577,-4.4615,-4.4615,-4.4615,-4.4615,-4.4615,-4.4615,-4.4615,-4.4615,-4.4615,-4.4615,-4.4852,-4.5297,-4.6041,-4.6786,-4.753,-4.8274,-4.8748,-4.9018,-4.9018,-4.9018,-4.9018,-4.9018,-4.9018,-4.9018,-4.9018,-4.9289,-4.9661,-5.0101,-5.115,-5.186,-5.2334,-5.3112,-5.3518,-5.3518,-5.3518,-5.3518,-5.3518,-5.3518,-5.3518,-5.3518,-5.3518,-5.3518,-5.3518,-5.3518,-5.3518,-5.3518,-5.3518,-5.3518,-5.3518,-5.3518,-5.3518,-5.3518,-5.3518,-5.3518,-5.3518,-5.3518,-5.3518,-5.3518,-5.3518,-5.3518,-5.3518,-5.3518,-5.3518,-5.3518,-5.3518,-5.3518,-5.3382,-5.2875,-5.2536,-5.2029,-5.1116,-5.0473,-4.9932,-4.9492,-4.9187,-4.9018,-4.9018,-4.9018,-4.9018,-4.9018,-4.9255,-4.9424,-4.9424,-4.9695,-5.0168,-5.0913,-5.1386,-5.1961,-5.2739,-5.2773,-5.301,-5.3484,-5.3518,-5.3518,-5.3518,-5.3518,-5.3518,-5.3518,-5.3518,-5.3518,-5.3518,-5.3518,-5.3518,-5.3518,-5.3518,-5.3518,-5.3518,-5.3518,-5.3518,-5.3585,-5.4296,-5.504,-5.5818,-5.6528,-5.7273,-5.7881,-4.4615,-4.4615,-4.4615,-4.4615,-4.4615,-4.4615,-4.4615,-4.4615,-4.4615,-4.4615,-4.5229,-4.5974,-4.6718,-4.7462,-4.8206,-4.8951,-4.9018,-4.9018,-4.9018,-4.9018,-4.9018,-4.9018,-4.9018,-4.9052,-4.9086,-4.9763,-5.0135,-5.0202,-5.1623,-5.2334,-5.2435,-5.3179,-5.3518,-5.3518,-5.3518,-5.3518,-5.3518,-5.3518,-5.3518,-5.3518,-5.3518,-5.3518,-5.3518,-5.3518,-5.3518,-5.3518,-5.3518,-5.3518,-5.3518,-5.3518,-5.3518,-5.3518,-5.3518,-5.3518,-5.3518,-5.3518,-5.3518,-5.3518,-5.3518,-5.3518,-5.3518,-5.3518,-5.3518,-5.3518,-5.3518,-5.3518,-5.3518,-5.3518,-5.2909,-5.2401,-5.23,-5.1183,-5.027,-5.0202,-4.9627,-4.9221,-4.9221,-4.9221,-4.9221,-4.9221,-4.9796,-5.0202,-5.0202,-5.0879,-5.1589,-5.2266,-5.2367,-5.2739,-5.345,-5.3518,-5.3518,-5.3518,-5.3518,-5.3518,-5.3518,-5.3518,-5.3518,-5.3518,-5.3518,-5.3518,-5.3518,-5.3518,-5.3518,-5.3518,-5.3518,-5.3518,-5.3518,-5.3518,-5.3518,-5.3585,-5.4363,-5.5108,-5.5818,-5.6596,-5.7306,-5.7881,-4.4615,-4.4615,-4.4615,-4.4615,-4.4615,-4.4615,-4.4615,-4.4615,-4.4615,-4.4615,-4.5229,-4.5974,-4.6718,-4.7462,-4.8206,-4.8951,-4.9018,-4.9018,-4.9018,-4.9018,-4.9018,-4.9018,-4.9018,-4.9255,-4.983,-4.9999,-5.0371,-5.098,-5.186,-5.2638,-5.3247,-5.3416,-5.3518,-5.3518,-5.3518,-5.3518,-5.3518,-5.3518,-5.3518,-5.3518,-5.3518,-5.3518,-5.3518,-5.3518,-5.3518,-5.3518,-5.3518,-5.3518,-5.3518,-5.3518,-5.3518,-5.3518,-5.3518,-5.3518,-5.3518,-5.3518,-5.3518,-5.3518,-5.3518,-5.3518,-5.3518,-5.3518,-5.3518,-5.3518,-5.3518,-5.3518,-5.3518,-5.3518,-5.3382,-5.3044,-5.2435,-5.2029,-5.1623,-5.1082,-5.0845,-5.0744,-5.0744,-5.0744,-5.0744,-5.0744,-5.0879,-5.098,-5.098,-5.1623,-5.2131,-5.23,-5.2875,-5.3315,-5.3484,-5.3518,-5.3518,-5.3518,-5.3518,-5.3518,-5.3518,-5.3518,-5.3518,-5.3518,-5.3518,-5.3518,-5.3518,-5.3518,-5.3518,-5.3518,-5.3518,-5.3518,-5.3518,-5.3518,-5.3518,-5.3653,-5.4972,-5.5581,-5.5886,-5.7171,-5.7746,-5.7881,-4.4615,-4.4615,-4.4615,-4.4615,-4.4615,-4.4615,-4.4615,-4.4615,-4.475,-4.506,-4.5771,-4.6515,-4.7259,-4.8003,-4.8578,-4.8984,-4.9018,-4.9018,-4.9018,-4.9018,-4.9018,-4.9018,-4.9323,-4.9695,-5.0067,-5.0777,-5.1352,-5.1725,-5.2503,-5.3078,-5.3518,-5.3518,-5.3518,-5.3518,-5.3518,-5.3518,-5.3518,-5.3518,-5.3518,-5.3518,-5.3518,-5.3518,-5.3518,-5.3518,-5.3518,-5.3518,-5.3518,-5.3518,-5.3518,-5.3518,-5.3518,-5.3518,-5.3518,-5.3518,-5.3518,-5.3518,-5.3518,-5.3518,-5.3518,-5.3518,-5.3518,-5.3518,-5.3518,-5.3518,-5.3518,-5.3518,-5.3518,-5.3518,-5.3518,-5.3382,-5.2942,-5.257,-5.2164,-5.1792,-5.1454,-5.1185,-5.1185,-5.1185,-5.1185,-5.1185,-5.1522,-5.1894,-5.2266,-5.2672,-5.2875,-5.2875,-5.3281,-5.3518,-5.3518,-5.3518,-5.3518,-5.3518,-5.3518,-5.3518,-5.3518,-5.3518,-5.3518,-5.3518,-5.3518,-5.3518,-5.3518,-5.3518,-5.3518,-5.3518,-5.3518,-5.3518,-5.3518,-5.3518,-5.3518,-5.3653,-5.5141,-5.5681,-5.5886,-5.734,-5.7881,-5.7881,-4.4615,-4.4615,-4.4615,-4.4615,-4.4615,-4.4615,-4.4615,-4.4615,-4.4857,-4.5602,-4.6346,-4.709,-4.7804,-4.8578,-4.9018,-4.9018,-4.9018,-4.9018,-4.9018,-4.9018,-4.9052,-4.9187,-4.9763,-5.0202,-5.0473,-5.1657,-5.23,-5.23,-5.3112,-5.3518,-5.3518,-5.3518,-5.3518,-5.3518,-5.3518,-5.3518,-5.3518,-5.3518,-5.3518,-5.3518,-5.3518,-5.3518,-5.3518,-5.3518,-5.3518,-5.3518,-5.3518,-5.3518,-5.3518,-5.3518,-5.3518,-5.3518,-5.3518,-5.3518,-5.3518,-5.3518,-5.3518,-5.3518,-5.3518,-5.3518,-5.3518,-5.3518,-5.3518,-5.3518,-5.3518,-5.3518,-5.3518,-5.3518,-5.3518,-5.3518,-5.3518,-5.2942,-5.2503,-5.2503,-5.1995,-5.1589,-5.1589,-5.1589,-5.1589,-5.1589,-5.2131,-5.2773,-5.345,-5.3518,-5.3518,-5.3518,-5.3518,-5.3518,-5.3518,-5.3518,-5.3518,-5.3518,-5.3518,-5.3518,-5.3518,-5.3518,-5.3518,-5.3518,-5.3518,-5.3518,-5.3518,-5.3518,-5.3518,-5.3518,-5.3518,-5.3518,-5.3518,-5.3518,-5.3518,-5.3653,-5.5141,-5.5681,-5.5886,-5.734,-5.7881,-5.7881,-4.4615,-4.4615,-4.4615,-4.4615,-4.4615,-4.4615,-4.4615,-4.4615,-4.4857,-4.5602,-4.6346,-4.709,-4.7804,-4.8578,-4.9018,-4.9018,-4.9018,-4.9018,-4.9018,-4.9018,-4.9289,-4.9898,-5.0033,-5.0676,-5.1961,-5.2198,-5.23,-5.23,-5.3112,-5.3518,-5.3518,-5.3518,-5.3518,-5.3518,-5.3518,-5.3518,-5.3518,-5.3518,-5.3518,-5.3518,-5.3518,-5.3518,-5.3518,-5.3518,-5.3518,-5.3518,-5.3518,-5.3518,-5.3518,-5.3518,-5.3518,-5.3518,-5.3518,-5.3518,-5.3518,-5.3518,-5.3518,-5.3518,-5.3518,-5.3518,-5.3518,-5.3518,-5.3518,-5.3518,-5.3518,-5.3518,-5.3518,-5.3518,-5.3518,-5.3518,-5.3518,-5.3416,-5.3348,-5.3348,-5.3247,-5.3179,-5.3179,-5.3179,-5.3179,-5.3179,-5.3281,-5.3382,-5.3484,-5.3518,-5.3518,-5.3518,-5.3518,-5.3518,-5.3518,-5.3518,-5.3518,-5.3518,-5.3518,-5.3518,-5.3518,-5.3518,-5.3518,-5.3518,-5.3518,-5.3518,-5.3518,-5.3518,-5.3518,-5.3518,-5.3518,-5.3518,-5.3518,-5.3518,-5.3518,-5.3653,-5.5141,-5.5681,-5.5886,-5.734,-5.7881,-5.7881,-4.4615,-4.4615,-4.4615,-4.4615,-4.4615,-4.4615,-4.4615,-4.4615,-4.5021,-4.6143,-4.6583,-4.7225,-4.8409,-4.8815,-4.9018,-4.9018,-4.9018,-4.9018,-4.9018,-4.9018,-4.9323,-5.0067,-5.0473,-5.1217,-5.2266,-5.2739,-5.2976,-5.2976,-5.3348,-5.3518,-5.3518,-5.3518,-5.3518,-5.3518,-5.3518,-5.3518,-5.3518,-5.3518,-5.3518,-5.3518,-5.3518,-5.3518,-5.3518,-5.3518,-5.3518,-5.3518,-5.3518,-5.3518,-5.3518,-5.3518,-5.3518,-5.3518,-5.3518,-5.3518,-5.3518,-5.3518,-5.3518,-5.3518,-5.3518,-5.3518,-5.3518,-5.3518,-5.3518,-5.3518,-5.3518,-5.3518,-5.3518,-5.3518,-5.3518,-5.3518,-5.3518,-5.3518,-5.3518,-5.3518,-5.3518,-5.3518,-5.3518,-5.3518,-5.3518,-5.3518,-5.3518,-5.3518,-5.3518,-5.3518,-5.3518,-5.3518,-5.3518,-5.3518,-5.3518,-5.3518,-5.3518,-5.3518,-5.3518,-5.3518,-5.3518,-5.3518,-5.3518,-5.3518,-5.3518,-5.3518,-5.3518,-5.3518,-5.3518,-5.3518,-5.3518,-5.3518,-5.3518,-5.3518,-5.3518,-5.3653,-5.5141,-5.6224,-5.7002,-5.7645,-5.7881,-5.7881]},{"header":{"parameterUnit":"m.s-1","parameterCategory":1,"la1":30.6,"la2":28.766,"lo1":-90.7593,"lo2":-88.6598,"dy":0.0162,"dx":0.0183,"nx":116,"ny":114,"refTime":"2024-05-15T12:00:00:Z","depth":0,"parameterNumber":3,"parameterNumberName":"V-component_of_WINDS"},"data":[0.0,0.0,0.0,0.0,0.0,0.0,0.0,0.0,0.0,0.0,0.0,0.0,0.0,0.0,0.0,0.0,0.0,0.0,0.0,0.0,0.0,0.0,0.0,0.0,0.0,0.0,0.0,0.0,0.0,0.0,0.0,0.0,0.0,0.0,0.0,0.0,0.0,0.0,0.0,0.0,0.0,0.0,0.0,0.0,0.0,0.0,0.0,0.0,0.0,0.0,0.0,0.0,0.0,0.0,0.0,0.0,0.0,0.0,0.0,0.0,0.0,0.0,0.0,0.0,0.0,0.0,0.0,0.0,0.0,0.0,0.0,0.0,0.0,0.0,0.0,0.0,0.0,0.0,0.0,0.0,0.0,0.0,0.0,0.0,0.0,0.0,0.0,0.0,0.0,0.0,0.0,0.0,0.0,0.0,0.0,0.0,0.0,0.0,0.0,0.0,0.0,0.0,0.0,0.0,0.0,0.0,0.0,0.0,0.0,0.0,0.0,0.0,0.0,0.0,0.0,0.0,0.0,0.0,0.0,0.0,0.0,0.0,0.0,0.0,0.0,0.0,0.0,0.0,0.0,0.0,0.0,0.0,0.0,0.0,0.0,0.0,0.0,0.0,0.0,0.0,0.0,0.0,0.0,0.0,0.0,0.0,0.0,0.0,0.0,0.0,0.0,0.0,0.0,0.0,0.0,0.0,0.0,0.0,0.0,0.0,0.0,0.0,0.0,0.0,0.0,0.0,0.0,0.0,0.0,0.0,0.0,0.0,0.0,0.0,0.0,0.0,0.0,0.0,0.0,0.0,0.0,0.0,0.0,0.0,0.0,0.0,0.0,0.0,0.0,0.0,0.0,0.0,0.0,0.0,0.0,0.0,0.0,0.0,0.0,0.0,0.0,0.0,0.0,0.0,0.0,0.0,0.0,0.0,0.0,0.0,0.0,0.0,0.0,0.0,0.0,0.0,0.0,0.0,0.0,0.0,0.0,0.0,0.0,0.0,0.0,0.0,0.0,0.0,0.0,0.0,0.0,0.0,0.0,0.0,0.0,0.0,0.0,0.0,0.0,0.0,0.0,0.0,0.0,0.0,0.0,0.0,0.0,0.0,0.0,0.0,0.0,0.0,0.0,0.0,0.0,0.0,0.0,0.0,0.0,0.0,0.0,0.0,0.0,0.0,0.0,0.0,0.0,0.0,0.0,0.0,0.0,0.0,0.0,0.0,0.0,0.0,0.0,0.0,0.0,0.0,0.0,0.0,0.0,0.0,0.0,0.0,0.0,0.0,0.0,0.0,0.0,0.0,0.0,0.0,0.0,0.0,0.0,0.0,0.0,0.0,0.0,0.0,0.0,0.0,0.0,0.0,0.0,0.0,0.0,0.0,0.0,0.0,0.0,0.0,0.0,0.0,0.0,0.0,0.0,0.0,0.0,0.0,0.0,0.0,0.0,0.0,0.0,0.0,0.0,0.0,0.0,0.0,0.0,0.0,0.0,0.0,0.0,0.0,0.0,0.0,0.0,0.0,0.0,0.0,0.0,0.0,0.0,0.0,0.0,0.0,0.0,0.0,0.0,0.0,0.0,0.0,0.0,0.0,0.0,0.0,0.0,0.0,0.0,0.0,0.0,0.0,0.0,0.0,0.0,0.0,0.0,0.0,0.0,0.0,0.0,0.0,0.0,0.0,0.0,0.0,0.0,0.0,0.0,0.0,0.0,0.0,0.0,0.0,0.0,0.0,0.0,0.0,0.0,0.0,0.0,0.0,0.0,0.0,0.0,0.0,0.0,0.0,0.0,0.0,0.0,0.0,0.0,0.0,0.0,0.0,0.0,0.0,0.0,0.0,0.0,0.0,0.0,0.0,0.0,0.0,0.0,0.0,0.0,0.0,0.0,0.0,0.0,0.0,0.0,0.0,0.0,0.0,0.0,0.0,0.0,0.0,0.0,0.0,0.0,0.0,0.0,0.0,0.0,0.0,0.0,0.0,0.0,0.0,0.0,0.0,0.0,0.0,0.0,0.0,0.0,0.0,0.0,0.0,0.0,0.0,0.0,0.0,0.0,0.0,0.0,0.0,0.0,0.0,0.0,0.0,0.0,0.0,0.0,0.0,0.0,0.0,0.0,0.0,0.0,0.0,0.0,0.0,0.0,0.0,0.0,0.0,0.0,0.0,0.0,0.0,0.0,0.0,0.0,0.0,0.0,0.0,0.0,0.0,0.0,0.0,0.0,0.0,0.0,0.0,0.0,0.0,0.0,0.0,0.0,0.0,0.0,0.0,0.0,0.0,0.0,0.0,0.0,0.0,0.0,0.0,0.0,0.0,0.0,0.0,0.0,0.0,0.0,0.0,0.0,0.0,0.0,0.0,0.0,0.0,0.0,0.0,0.0,0.0,0.0,0.0,0.0,0.0,0.0,0.0,0.0,0.0,0.0,0.0,0.0,0.0,0.0,0.0,0.0,0.0,0.0,0.0,0.0,0.0,0.0,0.0,0.0,0.0,0.0,0.0,0.0,0.0,0.0,0.0,0.0,0.0,0.0,0.0,0.0,0.0,0.0,0.0,0.0,0.0,0.0,0.0,0.0,0.0,0.0,0.0,0.0,0.0,0.0,0.0,0.0,0.0,0.0,0.0,0.0,0.0,0.0,0.0,0.0,0.0,0.0,0.0,0.0,0.0,0.0,0.0,0.0,0.0,0.0,0.0,0.0,0.0,0.0,0.0,0.0,0.0,0.0,0.0,0.0,0.0,0.0,0.0,0.0,0.0,0.0,0.0,0.0,0.0,0.0,0.0,0.0,0.0,0.0,0.0,0.0,0.0,0.0,0.0,0.0,0.0,0.0,0.0,0.0,0.0,0.0,0.0,0.0,0.0,0.0,0.0,0.0,0.0,0.0,0.0,0.0,0.0,0.0,0.0,0.0,0.0,0.0,0.0,0.0,0.0,0.0,0.0,0.0,0.0,0.0,0.0,0.0,0.0,0.0,0.0,0.0,0.0,0.0,0.0,0.0,0.0,0.0,0.0,0.0,0.0,0.0,0.0,0.0,0.0,0.0,0.0,0.0,0.0,0.0,0.0,0.0,0.0,0.0,0.0,0.0,0.0,0.0,0.0,0.0,0.0,0.0,0.0,0.0,0.0,0.0,0.0,0.0,0.0,0.0,0.0,0.0,0.0,0.0,0.0,0.0,0.0,0.0,0.0,0.0,0.0,0.0,0.0,0.0,0.0,0.0,0.0,0.0,0.0,0.0,0.0,0.0,0.0,0.0,0.0,0.0,0.0,0.0,0.0,0.0,0.0,0.0,0.0,0.0,0.0,0.0,0.0,0.0,0.0,0.0,0.0,0.0,0.0,0.0,0.0,0.0,0.0,0.0,0.0,0.0,0.0,0.0,0.0,0.0,0.0,0.0,0.0,0.0,0.0,0.0,0.0,0.0,0.0,0.0,0.0,0.0,0.0,0.0,0.0,0.0,0.0,0.0,0.0,0.0,0.0,0.0,0.0,0.0,0.0,0.0,0.0,0.0,0.0,0.0,0.0,0.0,0.0,0.0,0.0,0.0,0.0,0.0,0.0,0.0,0.0,0.0,0.0,0.0,0.0,0.0,0.0,0.0,0.0,0.0,0.0,0.0,0.0,0.0,0.0,0.0,0.0,0.0,0.0,0.0,0.0,0.0,0.0,0.0,0.0,0.0,0.0,0.0,0.0,0.0,0.0,0.0,0.0,0.0,0.0,0.0,0.0,0.0,0.0,0.0,0.0,0.0,0.0,0.0,0.0,0.0,0.0,0.0,0.0,0.0,0.0,0.0,0.0,0.0,0.0,0.0,0.0,0.0,0.0,0.0,0.0,0.0,0.0,0.0,0.0,0.0,0.0,0.0,0.0,0.0,0.0,0.0,0.0,0.0,0.0,0.0,0.0,0.0,0.0,0.0,0.0,0.0,0.0,0.0,0.0,0.0,0.0,0.0,0.0,0.0,0.0,0.0,0.0,0.0,0.0,0.0,0.0,0.0,0.0,0.0,0.0,0.0,0.0,0.0,0.0,0.0,0.0,0.0,0.0,0.0,0.0,0.0,0.0,0.0,0.0,0.0,0.0,0.0,0.0,0.0,0.0,0.0,0.0,0.0,0.0,0.0,0.0,0.0,0.0,0.0,0.0,0.0,0.0,0.0,0.0,0.0,0.0,0.0,0.0,0.0,0.0,0.0,0.0,0.0,0.0,0.0,0.0,0.0,0.0,0.0,0.0,0.0,0.0,0.0,0.0,0.0,0.0,0.0,0.0,0.0,0.0,0.0,0.0,0.0,0.0,0.0,0.0,0.0,0.0,0.0,0.0,0.0,0.0,0.0,0.0,0.0,0.0,0.0,0.0,0.0,0.0,0.0,0.0,0.0,0.0,0.0,0.0,0.0,0.0,0.0,0.0,0.0,0.0,0.0,0.0,0.0,0.0,0.0,0.0,0.0,0.0,0.0,0.0,0.0,0.0,0.0,0.0,0.0,0.0,0.0,0.0,0.0,0.0,0.0,0.0,0.0,0.0,0.0,0.0,0.0,0.0,0.0,0.0,0.0,0.0,0.0,0.0,0.0,0.0,0.0,0.0,0.0,0.0,0.0,0.0,0.0,0.0,0.0,0.0,0.0,0.0,0.0,0.0,0.0,0.0,0.0,0.0,0.0,0.0,0.0,0.0,0.0,0.0,0.0,0.0,0.0,0.0,0.0,0.0,0.0,0.0,0.0,0.0,0.0,0.0,0.0,0.0,0.0,0.0,0.0,0.0,0.0,0.0,0.0,0.0,0.0,0.0,0.0,0.0,0.0,0.0,0.0,0.0,0.0,0.0,0.0,0.0,0.0,0.0,0.0,0.0,0.0,0.0,0.0,0.0,0.0,0.0,0.0,0.0,0.0,0.0,0.0,0.0,0.0,0.0,0.0,0.0,0.0,0.0,0.0,0.0,0.0,0.0,0.0,0.0,0.0,0.0,0.0,0.0,0.0,0.0,0.0,0.0,0.0,0.0,0.0,0.0,0.0,0.0,0.0,0.0,0.0,0.0,0.0,0.0,0.0,0.0,0.0,0.0,0.0,0.0,0.0,0.0,0.0,0.0,0.0,0.0,0.0,0.0,0.0,0.0,0.0,0.0,0.0,0.0,0.0,0.0,0.0,0.0,0.0,0.0,0.0,0.0,0.0,0.0,0.0,0.0,0.0,0.0,0.0,0.0,0.0,0.0,0.0,0.0,0.0,0.0,0.0,0.0,0.0,0.0,0.0,0.0,0.0,0.0,0.0,0.0,0.0,0.0,0.0,0.0,0.0,0.0,0.0,0.0,0.0,0.0,0.0,0.0,0.0,0.0,0.0,0.0,0.0,0.0,0.0,0.0,0.0,0.0,0.0,0.0,0.0,0.0,0.0,0.0,0.0,0.0,0.0,0.0,0.0,0.0,0.0,0.0,0.0,0.0,0.0,0.0,0.0,0.0,0.0,0.0,0.0,0.0,0.0,0.0,0.0,0.0,0.0,0.0,0.0,0.0,0.0,0.0,0.0,0.0,0.0,0.0,0.0,0.0,0.0,0.0,0.0,0.0,0.0,0.0,0.0,0.0,0.0,0.0,0.0,0.0,0.0,0.0,0.0,0.0,0.0,0.0,0.0,0.0,0.0,0.0,0.0,0.0,0.0,0.0,0.0,0.0,0.0,0.0,0.0,0.0,0.0,0.0,0.0,0.0,0.0,0.0,0.0,0.0,0.0,0.0,0.0,0.0,0.0,0.0,0.0,0.0,0.0,0.0,0.0,0.0,0.0,0.0,0.0,0.0,0.0,0.0,0.0,0.0,0.0,0.0,0.0,0.0,0.0,0.0,0.0,0.0,0.0,0.0,0.0,0.0,0.0,0.0,0.0,0.0,0.0,0.0,0.0,0.0,0.0,0.0,0.0,0.0,0.0,0.0,0.0,0.0,0.0,0.0,0.0,0.0,0.0,0.0,0.0,0.0,0.0,0.0,0.0,0.0,0.0,0.0,0.0,0.0,0.0,0.0,0.0,0.0,0.0,0.0,0.0,0.0,0.0,0.0,0.0,0.0,0.0,0.0,0.0,0.0,0.0,0.0,0.0,0.0,0.0,0.0,-2.1992,0.0,0.0,0.0,0.0,0.0,0.0,0.0,0.0,0.0,0.0,0.0,0.0,0.0,0.0,0.0,0.0,0.0,0.0,0.0,0.0,0.0,0.0,0.0,0.0,-1.3529,-1.3334,-1.3382,-1.3931,-1.412,-1.3815,0.0,0.0,0.0,0.0,0.0,-1.3792,-1.3813,-1.4084,-1.456,-1.3935,-1.4138,-1.5081,-1.506,-1.5164,-1.5367,0.0,0.0,0.0,0.0,0.0,0.0,0.0,0.0,0.0,0.0,0.0,0.0,0.0,0.0,0.0,0.0,0.0,0.0,0.0,0.0,0.0,0.0,0.0,0.0,0.0,0.0,0.0,0.0,0.0,0.0,0.0,0.0,0.0,0.0,0.0,0.0,0.0,0.0,0.0,0.0,0.0,0.0,0.0,0.0,0.0,0.0,0.0,0.0,0.0,0.0,0.0,0.0,0.0,0.0,0.0,0.0,0.0,0.0,0.0,0.0,0.0,0.0,0.0,0.0,0.0,0.0,0.0,0.0,0.0,0.0,0.0,-2.3317,0.0,0.0,0.0,0.0,0.0,0.0,0.0,0.0,0.0,0.0,0.0,0.0,0.0,0.0,0.0,0.0,0.0,0.0,0.0,0.0,0.0,-1.3401,-1.2953,-1.3358,-1.3474,-1.3037,-1.3556,-1.387,-1.3751,-1.3847,0.0,0.0,0.0,-1.3238,-1.3647,-1.3343,-1.352,-1.4237,-1.3969,-1.4277,-1.5137,-1.5566,-1.57,-1.5615,-1.5796,0.0,0.0,0.0,0.0,0.0,0.0,0.0,0.0,0.0,0.0,0.0,0.0,0.0,0.0,0.0,0.0,0.0,0.0,0.0,0.0,0.0,0.0,0.0,0.0,0.0,0.0,0.0,0.0,0.0,0.0,0.0,0.0,0.0,0.0,0.0,0.0,0.0,0.0,0.0,0.0,0.0,0.0,0.0,0.0,0.0,0.0,0.0,0.0,0.0,0.0,0.0,0.0,0.0,0.0,0.0,0.0,0.0,0.0,0.0,0.0,0.0,0.0,0.0,-2.4036,-2.4524,-2.5888,-2.5293,-2.543,-2.6064,-2.5039,-2.4862,-2.5313,-2.6297,0.0,0.0,0.0,0.0,0.0,0.0,0.0,0.0,0.0,0.0,0.0,0.0,0.0,0.0,0.0,0.0,0.0,0.0,0.0,-1.2546,-1.2856,-1.2968,-1.3126,-1.3398,-1.3956,-1.4105,-1.357,-1.4031,0.0,0.0,-1.3433,-1.3457,-1.3041,-1.3797,-1.4001,-1.3623,-1.4637,-1.5605,-1.6453,-1.6914,-1.7331,-1.7573,-1.6128,-1.6255,-1.7453,0.0,0.0,0.0,0.0,0.0,0.0,0.0,0.0,0.0,0.0,0.0,0.0,0.0,0.0,0.0,0.0,0.0,0.0,0.0,0.0,0.0,0.0,0.0,0.0,0.0,0.0,0.0,0.0,0.0,0.0,0.0,0.0,0.0,0.0,0.0,0.0,0.0,0.0,0.0,0.0,0.0,-1.8689,-1.8183,0.0,0.0,0.0,0.0,0.0,0.0,0.0,0.0,0.0,0.0,0.0,0.0,0.0,-2.4198,-2.4773,-2.5547,-2.584,-2.5518,-2.6211,-2.6621,-2.6855,-2.7109,-2.75,-2.7949,-2.7773,0.0,-2.7133,-2.794,0.0,0.0,0.0,0.0,0.0,0.0,0.0,0.0,0.0,0.0,0.0,0.0,0.0,0.0,0.0,0.0,0.0,0.0,0.0,0.0,0.0,-1.3242,-1.3398,-1.3802,-1.4327,-1.4584,-1.4471,-1.4321,-1.4119,-1.3867,-1.3723,-1.3501,-1.3223,-1.4154,-1.4845,-1.5284,-1.6367,-1.7155,-1.7779,-1.8242,-1.8555,-1.8691,-1.793,-1.7471,-1.7164,-1.6122,0.0,0.0,0.0,0.0,0.0,0.0,0.0,0.0,0.0,0.0,0.0,0.0,0.0,0.0,0.0,0.0,0.0,0.0,0.0,0.0,0.0,0.0,0.0,0.0,0.0,0.0,0.0,0.0,0.0,0.0,0.0,0.0,0.0,0.0,0.0,0.0,0.0,0.0,0.0,-1.9238,-2.0042,-2.0,-2.0017,-1.986,0.0,0.0,0.0,0.0,0.0,0.0,0.0,0.0,0.0,-2.4264,-2.5293,-2.5977,-2.6172,-2.7031,-2.748,-2.7487,-2.791,-2.8223,-2.8457,-2.8652,-2.8828,-2.9004,-2.9004,-2.8897,-2.8692,-2.9445,-3.028,-3.116,0.0,0.0,0.0,0.0,-3.126,-3.1336,0.0,0.0,0.0,0.0,0.0,0.0,0.0,0.0,0.0,0.0,0.0,0.0,-1.3553,-1.3872,-1.4195,-1.4414,-1.4746,-1.5095,-1.5409,-1.4713,-1.4341,-1.4469,-1.3961,-1.3613,-1.3516,-1.457,-1.5762,-1.7019,-1.7812,-1.8403,-1.8929,-1.9297,-1.9512,-1.9666,-1.9727,-1.8945,-1.7467,-1.6719,-1.6198,-1.5744,0.0,0.0,0.0,0.0,0.0,0.0,0.0,0.0,0.0,0.0,0.0,0.0,0.0,0.0,0.0,0.0,0.0,0.0,0.0,0.0,0.0,0.0,0.0,0.0,0.0,0.0,0.0,0.0,0.0,0.0,0.0,0.0,0.0,0.0,0.0,0.0,0.0,-2.0331,-2.1074,-2.1463,-2.1619,-2.1678,0.0,0.0,0.0,0.0,0.0,0.0,-2.4238,-2.4785,-2.5273,-2.5771,-2.6875,-2.7559,-2.7656,-2.8301,-2.8769,-2.9082,-2.9082,-2.9316,-2.9726,-2.9726,-2.9785,-2.9902,-2.9902,-3.0049,-3.0314,-3.099,-3.1898,-3.2914,-3.3482,-3.3621,-3.352,-3.3646,-3.3696,-3.3796,0.0,0.0,0.0,0.0,0.0,0.0,0.0,0.0,0.0,0.0,0.0,-1.4291,-1.3572,-1.4865,-1.5649,-1.537,-1.5371,-1.5576,-1.6028,-1.5272,-1.4578,-1.4148,-1.4102,-1.3899,-1.3516,-1.5165,-1.6672,-1.7949,-1.8364,-1.8987,-1.9844,-1.9883,-2.0098,-2.0566,-2.0937,-2.0586,-1.9648,-1.8008,-1.7533,-1.767,-1.5606,0.0,0.0,0.0,0.0,0.0,0.0,0.0,0.0,0.0,0.0,0.0,0.0,0.0,0.0,0.0,0.0,0.0,0.0,0.0,0.0,0.0,0.0,0.0,0.0,0.0,0.0,0.0,0.0,0.0,0.0,0.0,0.0,0.0,0.0,0.0,0.0,0.0,0.0,-2.2402,-2.275,0.0,0.0,0.0,0.0,-2.4199,-2.4316,-2.466,-2.5538,-2.6426,-2.709,-2.7571,-2.8379,-2.9023,-2.9434,-2.9492,-2.9512,-2.9531,-2.9531,-2.9766,-3.0156,-3.0156,-3.041,-3.082,-3.082,-3.1274,-3.2093,-3.2652,-3.2616,-3.2451,-3.4552,-3.5056,-3.4655,-3.5182,-3.5382,-3.5458,0.0,0.0,0.0,0.0,0.0,-1.4776,-1.458,-1.4349,-1.4094,-1.3822,-1.4191,-1.4439,-1.4339,-1.5076,-1.576,-1.6191,-1.6523,-1.684,-1.7175,-1.593,-1.5464,-1.6071,-1.5095,-1.5137,-1.6387,-1.7012,-1.7949,-1.9238,-1.9394,-1.9865,-2.0722,-2.0722,-2.0996,-2.1426,-2.1582,-2.1484,-2.1094,-1.9629,-1.8633,-1.7891,-1.6562,-1.5723,0.0,0.0,0.0,0.0,0.0,0.0,0.0,0.0,0.0,0.0,0.0,0.0,0.0,0.0,0.0,0.0,0.0,0.0,0.0,0.0,0.0,0.0,0.0,0.0,0.0,0.0,0.0,0.0,0.0,0.0,0.0,0.0,0.0,0.0,0.0,0.0,0.0,-2.3652,-2.4121,0.0,-2.4785,-2.4687,-2.4902,-2.5625,-2.5937,-2.6465,-2.7344,-2.793,-2.8437,-2.8941,-2.9434,-2.9824,-2.998,-3.0273,-3.043,-3.043,-3.043,-3.0508,-3.0644,-3.0644,-3.0742,-3.0898,-3.0898,-3.1629,-3.2861,-3.3988,-3.4509,-3.468,-3.6431,-3.701,-3.686,-3.7061,-3.7136,-3.7161,0.0,0.0,0.0,0.0,-1.5462,-1.562,-1.542,-1.5186,-1.4873,-1.4363,-1.4821,-1.5164,-1.5034,-1.5861,-1.6565,-1.6894,-1.7227,-1.7533,-1.7836,-1.6466,-1.5999,-1.6786,-1.58,-1.6094,-1.7969,-1.8301,-1.9004,-2.0137,-2.0293,-2.0742,-2.1465,-2.1465,-2.1602,-2.1894,-2.2031,-2.2012,-2.1836,-2.1094,-2.0039,-1.8809,-1.7949,-1.707,-1.623,0.0,0.0,0.0,0.0,0.0,0.0,0.0,0.0,0.0,0.0,0.0,0.0,0.0,0.0,0.0,0.0,0.0,0.0,0.0,0.0,0.0,0.0,0.0,0.0,0.0,0.0,0.0,0.0,0.0,0.0,0.0,0.0,0.0,0.0,-2.273,-2.3783,-2.4551,-2.5156,-2.5625,-2.5937,-2.6044,-2.6406,-2.6992,-2.7422,-2.7969,-2.8691,-2.9121,-2.9492,-2.9766,-3.0195,-3.043,-3.043,-3.0742,-3.0898,-3.0898,-3.0898,-3.0898,-3.0898,-3.0898,-3.0898,-3.0898,-3.0898,-3.171,-3.3191,-3.4681,-3.5718,-3.6506,-3.7988,-3.8567,-3.8567,-3.8567,-3.8567,-3.8567,0.0,0.0,0.0,-1.5537,-1.5718,-1.5894,-1.6403,-1.5974,-1.5518,-1.5324,-1.6187,-1.645,-1.5545,-1.7277,-1.8221,-1.7468,-1.7435,-1.7578,-1.7988,-1.6829,-1.6105,-1.6124,-1.6144,-1.6789,-1.8066,-1.8906,-1.9783,-2.0644,-2.1035,-2.1484,-2.1894,-2.1894,-2.1914,-2.1934,-2.2344,-2.2305,-2.1953,-2.2363,-2.1797,-2.0586,-1.9687,-1.8828,-1.7969,0.0,0.0,0.0,0.0,0.0,0.0,0.0,0.0,0.0,0.0,0.0,0.0,0.0,0.0,0.0,0.0,0.0,0.0,0.0,0.0,0.0,0.0,0.0,0.0,0.0,0.0,0.0,0.0,0.0,0.0,0.0,0.0,0.0,-2.2559,-2.3652,-2.4629,-2.5078,-2.5918,-2.6445,-2.6465,-2.6836,-2.7441,-2.8262,-2.8711,-2.9141,-2.957,-3.0,-3.0215,-3.0215,-3.0644,-3.0898,-3.0898,-3.0898,-3.0898,-3.0898,-3.0898,-3.0898,-3.0898,-3.0898,-3.0898,-3.0898,-3.0898,-3.171,-3.3191,-3.4681,-3.6162,-3.7636,-3.9129,-3.9697,-3.9697,-3.9697,-3.9697,-3.9697,0.0,0.0,-1.5361,-1.5643,-1.6019,-1.6172,-1.5884,-1.571,-1.5541,-1.5466,-1.6314,-1.6879,-1.6726,-1.7833,-1.8376,-1.788,-1.7832,-1.7891,-1.8008,-1.6829,-1.6242,-1.6523,-1.7441,-1.8535,-1.9881,-2.0136,-2.0683,-2.1523,-2.1641,-2.1914,-2.2344,-2.2344,-2.25,-2.275,-2.2867,-2.2847,-2.2769,-2.2867,-2.2535,-2.1894,-2.1055,-2.0176,-1.9336,0.0,0.0,0.0,0.0,0.0,0.0,0.0,0.0,0.0,0.0,0.0,0.0,0.0,0.0,0.0,0.0,0.0,0.0,0.0,0.0,0.0,0.0,0.0,0.0,0.0,0.0,0.0,0.0,0.0,0.0,0.0,-2.2344,-2.3023,-2.3398,-2.4551,-2.5596,-2.6387,-2.7246,-2.7891,-2.8184,-2.8613,-2.8965,-2.9199,-2.9609,-2.9902,-3.0019,-3.0449,-3.0703,-3.0703,-3.082,-3.0898,-3.0898,-3.0898,-3.0898,-3.0898,-3.0898,-3.0898,-3.0898,-3.0898,-3.0898,-3.0898,-3.0898,-3.171,-3.3191,-3.4681,-3.6162,-3.7636,-3.9129,-3.9697,-3.9697,-3.9697,-3.9697,-3.9697,0.0,-1.5759,-1.6362,-1.636,-1.6632,-1.6646,-1.6061,-1.5974,-1.6018,-1.6146,-1.7039,-1.7616,-1.748,-1.8312,-1.8573,-1.7801,-1.791,-1.7852,-1.7467,-1.6934,-1.6816,-1.7213,-1.8461,-1.9609,-2.0586,-2.0977,-2.1505,-2.2148,-2.2148,-2.2363,-2.273,-2.273,-2.2867,-2.3101,-2.3101,-2.3101,-2.3101,-2.3101,-2.2964,-2.2691,-2.2185,-2.1483,-2.0684,-2.0273,-1.9785,-1.9241,-1.8672,-1.832,-1.8105,-1.7642,0.0,0.0,0.0,0.0,0.0,0.0,0.0,0.0,0.0,0.0,0.0,0.0,0.0,0.0,0.0,0.0,0.0,0.0,0.0,0.0,0.0,0.0,0.0,0.0,-2.3393,-2.4329,-2.4824,-2.5527,-2.6387,-2.7422,-2.8144,-2.873,-2.9141,-2.959,-2.9824,-2.9824,-3.0234,-3.0488,-3.0488,-3.0742,-3.0898,-3.0898,-3.0898,-3.0898,-3.0898,-3.0898,-3.0898,-3.0898,-3.0898,-3.0898,-3.0898,-3.0898,-3.0898,-3.0898,-3.0898,-3.171,-3.3191,-3.4013,-3.5233,-3.6757,0.0,0.0,0.0,0.0,-3.9697,-3.9697,0.0,-1.6877,-1.7331,-1.737,-1.7291,-1.7063,-1.6646,-1.6543,-1.6678,-1.7147,-1.8051,-1.8423,-1.7917,-1.8712,-1.8787,-1.7501,-1.7815,-1.775,-1.7042,-1.735,-1.7734,-1.8203,-1.9355,-2.0234,-2.0801,-2.1543,-2.2168,-2.2578,-2.2578,-2.273,-2.3101,-2.3101,-2.3101,-2.3101,-2.3101,-2.3101,-2.3101,-2.3101,-2.3101,-2.3101,-2.3101,-2.2676,-2.1914,-2.1523,-2.1307,-2.1171,-2.041,-1.9902,-1.9531,-1.9104,0.0,0.0,0.0,0.0,0.0,0.0,0.0,0.0,0.0,0.0,0.0,0.0,0.0,0.0,0.0,0.0,0.0,0.0,0.0,0.0,0.0,0.0,0.0,0.0,-2.4641,-2.5869,-2.6465,-2.6582,-2.7031,-2.8223,-2.8769,-2.9219,-2.9609,-3.0019,-3.0273,-3.0273,-3.0664,-3.0898,-3.0898,-3.0898,0.0,0.0,0.0,-3.0898,-3.0898,-3.0898,-3.0898,-3.0898,-3.0898,-3.0898,-3.0898,-3.0898,-3.0898,-3.0898,-3.0898,-3.1652,-3.2851,-3.3021,-3.3957,-3.5563,-3.8372,-3.9517,-3.9697,-3.9697,-3.9697,-3.9697,0.0,-1.7204,-1.7444,-1.7874,-1.7229,-1.6774,-1.7084,-1.6774,-1.6857,-1.784,-1.8536,-1.8734,-1.8273,-1.8777,-1.8676,-1.7507,-1.8076,-1.8568,-1.8775,-1.852,-1.8695,-1.9512,-2.0117,-2.1016,-2.2109,-2.2305,-2.2598,-2.2984,-2.2984,-2.3023,-2.3101,-2.3101,-2.3101,-2.3101,-2.3101,-2.3101,-2.3101,-2.3101,-2.3101,-2.3101,-2.3101,-2.2789,-2.2383,-2.2305,-2.2051,-2.1738,-2.1562,-2.1445,-2.1367,-2.1289,-2.0604,-1.9769,-1.9392,-1.8738,0.0,0.0,0.0,0.0,0.0,0.0,0.0,0.0,0.0,0.0,0.0,0.0,0.0,0.0,0.0,0.0,0.0,0.0,0.0,-2.4453,-2.5293,-2.6133,-2.7266,-2.7715,-2.8144,-2.873,-2.9473,-2.998,-3.0059,-3.0488,-3.0762,-3.0762,-3.084,-3.0898,-3.0898,-3.0898,-3.0898,-3.0898,-3.0898,-3.0898,-3.0898,-3.0898,-3.0898,-3.0898,-3.0898,0.0,-3.0898,-3.0898,-3.0898,-3.0898,-3.0898,-3.1054,-3.1441,-3.2587,-3.3957,-3.5453,-3.7263,-3.8635,-3.9697,-3.9697,-3.9697,-3.9697,-1.8539,-1.8285,-1.819,-1.8444,-1.7834,-1.7394,-1.7653,-1.725,-1.7312,-1.8446,-1.885,-1.8823,-1.8368,-1.9113,-1.9022,-1.742,-1.7854,-1.849,-1.9147,-1.9249,-1.957,-2.0215,-2.1074,-2.1836,-2.25,-2.2715,-2.2886,-2.3101,-2.3101,-2.3101,-2.3101,-2.3101,-2.3101,-2.3101,-2.3101,-2.3101,-2.3101,-2.3101,-2.3101,-2.3101,-2.3101,-2.2964,-2.2789,-2.2789,-2.2695,-2.2519,-2.2519,-2.2383,-2.2207,-2.2207,-2.2312,-2.2238,-2.0936,-2.071,-2.0512,0.0,0.0,0.0,0.0,0.0,0.0,0.0,0.0,0.0,0.0,0.0,0.0,0.0,0.0,-2.1797,-2.2676,0.0,-2.4414,-2.5254,-2.6133,-2.7012,-2.7851,-2.8535,-2.9004,-2.9219,-2.9805,-3.0293,-3.0527,-3.0762,-3.0898,-3.0898,-3.0898,-3.0898,-3.0898,-3.0898,-3.0898,-3.0898,-3.0898,-3.0898,-3.0898,-3.1094,-3.1211,-3.1211,-3.1426,-3.1523,-3.1523,-3.1523,-3.1523,-3.1523,-3.1289,-3.1211,-3.125,-3.181,-3.2871,-3.4292,-3.4991,-3.6649,-3.8687,-3.9413,-3.9697,-3.9697,-1.957,-1.9277,-1.893,-1.9043,-1.8521,-1.8131,-1.823,-1.7693,-1.766,-1.8696,-1.884,-1.8679,-1.8271,-1.9151,-1.9125,-1.7622,-1.7999,-1.8659,-1.9417,-1.9985,-2.0465,-2.084,-2.1914,-2.2559,-2.2637,-2.2925,-2.3101,-2.3101,-2.3101,-2.3101,-2.3101,-2.3101,-2.3101,-2.3101,-2.3101,-2.3101,-2.3101,-2.3101,-2.3101,-2.3101,-2.3101,-2.3101,-2.3101,-2.3101,-2.3101,-2.3101,-2.3101,-2.2828,-2.2519,-2.2617,-2.3412,-2.4097,-2.2332,-2.2514,-2.2917,-2.0646,-1.9775,0.0,0.0,0.0,0.0,0.0,0.0,0.0,0.0,-2.0879,-2.1309,-2.2207,-2.2656,-2.3144,-2.4004,-2.5019,-2.5771,-2.6074,-2.7051,-2.793,-2.8359,-2.916,-2.9744,-2.9744,-3.0078,-3.0488,-3.0859,-3.0898,-3.0898,-3.0898,-3.0898,-3.0898,-3.0898,-3.0898,-3.0898,-3.0898,-3.0976,-3.1016,-3.1016,-3.1426,-3.1641,-3.1641,-3.2012,-3.2229,-3.2229,-3.2229,-3.2229,-3.2148,-3.1699,-3.1523,-3.1484,-3.1055,-3.1594,-3.2701,-3.2964,-3.4736,-3.7263,-3.8739,-3.9465,-3.9697,0.0,-1.9277,-1.9043,-1.9515,-1.8779,-1.8249,-1.8741,-1.7933,-1.7529,-1.8214,-1.8298,-1.8215,-1.7972,-1.8064,-1.8253,-1.8494,-1.9621,-2.0432,-2.0775,-2.1394,-2.1757,-2.174,-2.2227,-2.2695,-2.3023,-2.3081,-2.3101,-2.3101,-2.3101,-2.3101,-2.3101,-2.3101,-2.3101,-2.3101,-2.3101,-2.3101,-2.3101,-2.3101,-2.3101,-2.3101,-2.3101,-2.3101,-2.3101,-2.3101,-2.3101,-2.3101,-2.3101,-2.2828,-2.2559,-2.2906,-2.2667,-2.245,-2.3536,-2.3064,-2.215,-2.2416,-2.1519,-2.0449,-2.039,-2.0449,-2.0625,-2.0996,-2.1073,-2.1502,0.0,-2.3086,-2.3062,-2.3945,-2.418,-2.4473,-2.5304,-2.5596,-2.6113,-2.7266,-2.7891,-2.8359,-2.8789,-2.959,-3.0137,-3.0137,-3.0527,-3.084,-3.0879,-3.0898,-3.0898,-3.0898,-3.0898,-3.0898,-3.0898,-3.0898,-3.0898,-3.0898,-3.125,-3.1445,-3.1445,-3.1875,-3.209,-3.209,-3.2148,-3.2229,-3.2229,-3.2229,-3.2229,-3.2148,-3.1699,-3.1523,-3.1484,-3.1055,-3.0995,-3.1286,-3.2587,-3.4125,-3.5727,-3.7186,-3.8582,-3.9697,0.0,-1.9515,-1.9442,-1.9672,-1.9062,-1.876,-1.9295,-1.8444,-1.7977,-1.853,-1.8115,-1.7645,-1.7455,-1.7713,-1.8298,-1.927,-2.0494,-2.1288,-2.1408,-2.2897,-2.3708,-2.3703,-2.4425,-2.4619,-2.4082,-2.4082,-2.3757,-2.3101,-2.3101,-2.3101,-2.3101,-2.3101,-2.3101,-2.3101,-2.3101,-2.3101,-2.3101,-2.3101,-2.3101,-2.3101,-2.3101,-2.3517,-2.4082,-2.4082,-2.4302,-2.4388,-2.3182,-2.2656,0.0,-2.3056,-2.3432,-2.3785,-2.4357,-2.3978,-2.3281,-2.3148,-2.227,-2.1445,-2.1934,-2.1699,-2.1445,-2.1875,-2.2363,-2.2852,-2.332,-2.3672,-2.4062,-2.4668,-2.5,-2.5323,-2.5996,-2.6523,-2.7109,-2.791,-2.8379,-2.8887,-2.957,-2.9961,-3.0293,-3.0566,-3.0781,-3.0898,-3.0898,-3.0898,-3.0898,-3.0898,-3.0898,-3.0898,-3.0898,-3.1133,-3.125,-3.125,-3.168,-3.1894,-3.1894,-3.2324,-3.2539,-3.2539,-3.2793,-3.2891,-3.2891,-3.2891,-3.2773,-3.2519,-3.2344,-3.2129,-3.1875,-3.1719,-3.1484,-3.1309,-3.1916,-3.2929,-3.4181,-3.5672,-3.7713,-3.9569,0.0,-1.9708,-1.9708,-1.9708,-1.9387,-1.9258,-1.9654,-1.8798,-1.8238,-1.8638,-1.7931,-1.7416,-1.7388,-1.8015,-1.8727,-1.9509,-2.097,-2.1834,-2.1729,-2.3743,-2.4943,-2.4982,-2.5811,-2.5956,-2.5294,-2.4957,-2.4553,-2.4059,-2.343,-2.3256,-2.3541,-2.3256,-2.3101,-2.3101,-2.3101,-2.3101,-2.3101,-2.3101,-2.3101,-2.3144,-2.343,-2.4039,-2.4808,-2.4977,-2.5259,-2.5359,-2.3597,-2.2727,-2.2409,-2.2635,-2.319,-2.385,-2.4154,-2.3989,-2.363,-2.3585,-2.2919,-2.2285,-2.2496,-2.2422,-2.2305,-2.2617,-2.3242,-2.3769,-2.3756,-2.416,-2.4727,-2.5156,-2.5605,-2.6055,-2.6484,-2.7168,-2.7904,-2.8379,-2.8828,-2.9355,-3.0098,-3.0312,-3.0508,-3.0859,-3.0898,-3.0898,-3.0898,-3.0898,-3.0898,-3.0898,-3.0898,-3.0937,-3.1055,-3.1348,-3.1562,-3.1699,-3.2109,-3.2344,-3.2344,-3.2754,-3.2969,-3.2969,-3.3281,-3.3418,-3.3418,-3.3418,-3.3262,-3.2969,-3.2851,-3.2617,-3.2344,-3.2268,-3.1992,-3.168,-3.1562,-3.221,-3.3302,-3.3909,-3.6217,-3.8921,0.0,0.0,-1.9708,-1.9708,-1.969,-1.969,-1.9708,-1.8798,-1.812,-1.812,-1.7717,-1.7601,-1.813,-1.9108,-1.9559,-1.9083,-2.1011,-2.2135,-2.1737,-2.3647,-2.4848,-2.4998,-2.5395,-2.5887,-2.6419,-2.5378,-2.5336,-2.64,-2.4188,-2.3671,-2.4702,-2.3627,-2.3101,-2.3101,-2.3101,-2.3101,-2.3101,-2.3101,-2.3101,-2.3212,-2.4296,-2.4787,-2.4872,-2.5395,-2.5601,-2.548,-2.4527,0.0,-2.1935,-2.1451,-2.1036,-2.0976,-2.247,-2.2491,-2.2264,-2.3722,-2.363,-2.2789,-2.158,-2.2126,-2.3062,-2.3188,-2.3477,-2.4004,-2.4871,-2.5067,-2.5176,-2.5577,-2.6055,-2.6504,-2.6914,-2.7363,-2.793,-2.8769,-2.9258,-2.9707,-3.0137,-3.0586,-3.0879,-3.0898,-3.0898,-3.0898,-3.0898,-3.0898,-3.0898,-3.0898,-3.0898,-3.1074,-3.1484,-3.1504,-3.1719,-3.2129,-3.2559,-3.2773,-3.2773,-3.3184,-3.3398,-3.3398,-3.3418,-3.3418,-3.3418,-3.3418,-3.3418,-3.3379,-3.2969,-3.2793,-3.2734,-3.2344,-3.2168,-3.2109,-3.168,-3.2391,-3.3455,-3.1696,-3.381,-3.7583,0.0,0.0,0.0,-1.9708,-1.9708,-1.9708,-1.9708,-1.908,-1.8787,-1.9234,-1.921,0.0,0.0,0.0,0.0,0.0,-2.0916,-2.1852,-2.208,-2.4148,-2.5536,-2.596,-2.7134,-2.7574,-2.7049,-2.7013,-2.683,-2.6524,-2.5735,-2.5568,-2.588,-2.4766,-2.4211,-2.4211,-2.4211,-2.4211,-2.4211,-2.4211,-2.4848,-2.583,-2.5083,-2.5888,-2.7511,-2.7331,-2.7025,-2.6598,0.0,0.0,-2.1954,-2.1807,-2.1297,-2.1032,-2.2741,-2.2491,-2.1714,-2.2473,-2.2522,-2.2344,-2.2418,-2.2769,-2.3159,-2.3496,-2.4102,-2.4754,-2.5047,-2.5293,-2.5547,-2.5654,-2.6094,-2.6426,-2.6562,-2.7187,-2.793,-2.8789,-2.9277,-2.9824,-3.0547,-3.0801,-3.0898,-3.0898,-3.0898,-3.0898,-3.0898,-3.0898,-3.0898,-3.0898,-3.1152,-3.1367,-3.1504,-3.2051,-3.2422,-3.2578,-3.2988,-3.3203,-3.3203,-3.3359,-3.3418,-3.3418,-3.3418,-3.3418,-3.3418,-3.3418,-3.3418,-3.3418,-3.3281,-3.3203,-3.3203,-3.3066,-3.2832,-3.2578,-3.2422,-3.2471,-3.2615,-3.2017,-3.332,-3.5483,0.0,0.0,0.0,0.0,0.0,0.0,0.0,0.0,0.0,0.0,0.0,0.0,0.0,0.0,0.0,0.0,0.0,-2.1667,-2.197,-2.3948,-2.5394,-2.6147,-2.7168,-2.7568,-2.7306,-2.7071,-2.6963,-2.7065,-2.6268,-2.6287,-2.7035,-2.5922,-2.542,-2.542,-2.542,-2.542,-2.542,-2.542,-2.6014,-2.6951,-2.6063,-2.6739,-2.8267,-2.7927,-2.7619,0.0,0.0,0.0,-2.2388,-2.1529,-2.0807,-2.0552,-2.2069,-2.2336,-2.2018,-2.1708,-2.1973,-2.2441,-2.2945,-2.3198,-2.3516,-2.4102,-2.4715,-2.5165,-2.5273,-2.5527,-2.5635,-2.5527,-2.5859,-2.6152,-2.6152,-2.6738,-2.7578,-2.873,-2.916,-2.9707,-3.0742,-3.0898,-3.0898,-3.0898,-3.0898,-3.0898,-3.0898,-3.0898,-3.0898,-3.0898,-3.1269,-3.1582,-3.1738,-3.2422,-3.2871,-3.3008,-3.3281,-3.3418,-3.3418,-3.3418,-3.3418,-3.3418,-3.3418,-3.3418,-3.3418,-3.3418,-3.3418,-3.3418,-3.3418,-3.3418,-3.3418,-3.3418,-3.3262,-3.3008,-3.2851,-3.2637,-3.2383,-3.2226,-3.3135,-3.4513,0.0,0.0,0.0,0.0,0.0,0.0,0.0,0.0,0.0,0.0,0.0,0.0,0.0,0.0,0.0,0.0,0.0,0.0,-2.1504,-2.3111,-2.4486,-2.5418,-2.5561,-2.6113,-2.7218,-2.5707,-2.5973,-2.8097,-2.6007,-2.6044,-2.8092,-2.7007,-2.6476,-2.6476,-2.6476,-2.6476,-2.6476,-2.6476,-2.6539,-2.664,-2.7097,-2.7338,-2.7397,-2.7358,0.0,0.0,0.0,-2.4255,-2.3152,-2.0846,-1.9827,-1.9716,-2.0707,-2.2087,-2.3097,-2.1769,-2.2187,-2.3101,-2.314,-2.3516,-2.4043,-2.491,-2.5125,-2.5215,-2.5596,-2.5674,-2.5586,-2.5156,-2.5391,-2.5615,-2.5615,-2.6055,-2.6934,-2.8594,-2.8906,-2.9414,-3.0703,-3.0898,-3.0898,-3.0898,-3.0898,-3.0898,-3.0898,-3.0898,-3.0898,-3.0918,-3.1309,-3.1738,-3.2209,-3.2598,-3.3008,-3.3418,-3.3418,-3.3418,-3.3418,-3.3418,-3.3418,-3.3418,-3.3418,-3.3418,-3.3418,-3.3418,-3.3418,-3.3418,-3.3418,-3.3418,-3.3418,-3.3418,-3.3418,-3.3379,-3.2988,-3.2832,-3.2773,-3.2383,-3.3155,-3.4501,0.0,0.0,0.0,0.0,0.0,0.0,0.0,0.0,0.0,0.0,0.0,0.0,0.0,0.0,0.0,0.0,0.0,0.0,-2.1563,-2.2794,-2.358,-2.3728,-2.4933,-2.5971,-2.67,-2.6671,-2.7144,-2.8097,-2.7521,-2.7532,-2.8089,-2.7004,-2.6504,-2.6504,-2.6504,-2.6504,-2.6504,-2.6504,-2.718,-2.8212,0.0,-2.7434,-2.8449,0.0,0.0,0.0,0.0,-2.4583,-2.3352,-2.2315,-2.2466,-2.3084,-2.3436,-2.3756,-2.395,-2.3887,-2.3539,-2.3301,-2.3926,-2.4414,-2.4832,-2.5067,-2.5312,-2.5557,-2.5654,-2.5488,-2.5215,-2.5145,-2.4902,-2.4699,-2.4699,-2.5644,-2.6738,-2.7812,-2.8789,-2.9746,-3.0762,-3.0898,-3.0898,-3.0898,-3.0898,-3.0898,-3.0898,-3.0898,-3.1016,-3.1328,-3.1758,-3.2051,-3.2168,-3.2871,-3.332,-3.3418,-3.3418,-3.3418,-3.3418,-3.3418,-3.3418,-3.3418,-3.3418,-3.3418,-3.3418,-3.3418,-3.3418,-3.3418,-3.3418,-3.3418,-3.3418,-3.3418,-3.3418,-3.3418,-3.3301,-3.3262,-3.3242,-3.3144,-3.3336,-3.3815,0.0,0.0,0.0,0.0,0.0,0.0,0.0,0.0,0.0,0.0,0.0,0.0,0.0,0.0,0.0,0.0,0.0,0.0,0.0,-2.3009,-2.3798,-2.3686,-2.4529,-2.53,-2.5858,-2.5861,-2.6113,0.0,0.0,0.0,0.0,-2.6795,-2.6481,-2.6481,-2.6481,-2.6481,-2.6481,-2.6481,0.0,0.0,0.0,0.0,0.0,0.0,0.0,0.0,0.0,-2.5261,-2.4817,-2.4743,-2.4871,-2.504,-2.5127,-2.5492,-2.5825,-2.5294,-2.4859,-2.4589,-2.4697,-2.4883,-2.5165,-2.5312,-2.5547,-2.5635,-2.5488,-2.5254,-2.5008,-2.4636,-2.4316,-2.4141,-2.4141,-2.5059,-2.6211,-2.7513,-2.8574,-2.9668,-3.0742,-3.0898,-3.0898,-3.0898,-3.0274,-2.9766,-2.9766,-2.9157,-2.8888,-2.9228,-3.1089,-3.1922,-3.1337,-3.1942,-3.1899,-3.113,-3.113,-3.1515,-3.2237,-3.2237,-3.2619,-3.3418,-3.3418,-3.3418,-3.3418,-3.3418,-3.3418,-3.3418,-3.3418,-3.3418,-3.3418,-3.3418,-3.3418,-3.3418,-3.3418,-3.3418,-3.3418,-3.3418,-3.3418,-3.3505,0.0,0.0,0.0,0.0,0.0,0.0,0.0,0.0,0.0,0.0,-2.2921,0.0,0.0,0.0,0.0,0.0,0.0,0.0,0.0,0.0,0.0,-2.4417,-2.4443,-2.4715,-2.5213,-2.4632,-2.4506,-2.4936,0.0,0.0,0.0,0.0,0.0,0.0,0.0,0.0,0.0,0.0,0.0,0.0,0.0,0.0,0.0,0.0,0.0,0.0,0.0,-2.6072,-2.66,-2.7193,-2.6953,-2.6417,-2.6558,-2.7345,-2.7934,-2.6432,-2.6163,-2.6201,-2.5397,-2.5156,-2.5254,-2.5596,-2.5635,-2.5547,-2.5156,-2.5028,-2.4687,-2.3945,-2.375,-2.3711,-2.3711,-2.4394,-2.5595,-2.7337,-2.8281,-2.9316,-3.0703,-3.0898,-3.0898,-3.0898,-2.9412,-2.8426,-2.8426,-2.7004,-2.6199,-2.65,-2.9658,-3.1071,-2.9923,-3.0234,-2.9735,-2.8246,-2.8163,-2.8952,-3.0448,-3.0707,-3.1561,-3.3082,-3.3292,-3.3418,-3.3418,-3.3418,-3.3418,-3.3418,-3.3418,-3.3418,-3.3418,-3.3418,-3.3418,-3.3418,-3.3418,-3.3418,-3.3418,-3.3418,-3.3418,-3.3418,0.0,0.0,0.0,0.0,0.0,0.0,0.0,0.0,0.0,0.0,-2.346,-2.3566,0.0,0.0,0.0,0.0,0.0,0.0,0.0,0.0,0.0,-2.4498,-2.4943,-2.5463,-2.6007,-2.5862,-2.5775,-2.5715,0.0,0.0,0.0,0.0,0.0,0.0,0.0,0.0,0.0,0.0,0.0,0.0,0.0,0.0,0.0,0.0,0.0,0.0,-2.6373,-2.6399,-2.665,-2.762,-2.8137,-2.8562,-2.95,-2.931,-2.8669,-2.8229,-2.7448,-2.6635,-2.5825,-2.5625,-2.5596,-2.5674,-2.5449,-2.5204,-2.5125,-2.4512,-2.3965,-2.3828,-2.3496,-2.3198,-2.3198,-2.3945,-2.5098,-2.6836,-2.7851,-2.8984,-3.0644,-3.0898,-3.0898,-3.0898,-2.9412,-2.8426,-2.8426,-2.7166,-2.6516,-2.6958,-2.7832,-2.8196,-2.8006,-2.8422,-2.8492,-2.8246,-2.8163,-2.8361,-2.8624,-3.006,-3.0964,-3.1304,-3.2702,-3.3418,-3.3418,-3.3418,-3.3418,-3.3418,-3.3418,-3.3418,-3.3418,-3.3418,-3.3418,-3.3418,-3.3418,-3.3418,-3.3418,-3.3418,-3.3418,-3.3418,0.0,0.0,0.0,0.0,0.0,0.0,0.0,-2.2263,-2.3161,-2.4477,-2.4956,-2.5016,-2.4687,-2.4657,-2.4777,0.0,0.0,0.0,0.0,0.0,0.0,0.0,0.0,-2.6101,-2.6356,-2.6244,-2.6009,-2.5632,0.0,0.0,0.0,0.0,0.0,0.0,0.0,0.0,0.0,0.0,0.0,0.0,0.0,0.0,0.0,0.0,0.0,0.0,0.0,-2.6675,-2.7002,-2.7494,-2.8247,-2.9088,-3.0217,-3.0397,-2.998,-2.8896,-2.8407,-2.7843,-2.6147,-2.5693,-2.5693,-2.5693,-2.541,-2.5047,-2.4785,-2.4238,-2.373,-2.3496,-2.3237,-2.3101,-2.3101,-2.3803,-2.4844,-2.6083,-2.707,-2.8223,-2.9961,-3.0195,-3.0064,-2.967,-2.817,-2.6832,-2.6001,-2.4719,-2.4059,-2.4386,-2.4714,-2.5297,-2.639,-2.5829,-2.545,-2.545,-2.545,-2.5853,-2.6773,-2.8558,-2.993,-3.0836,-3.2556,-3.3418,-3.3418,-3.3418,-3.3418,-3.3418,-3.3418,-3.3418,-3.3418,-3.3418,-3.3418,-3.3418,-3.3418,-3.3418,-3.3418,-3.3418,-3.3418,-3.3418,0.0,0.0,0.0,0.0,0.0,0.0,0.0,-2.3191,-2.4118,-2.5615,-2.6393,-2.6602,-2.6093,-2.5914,-2.5824,0.0,0.0,0.0,0.0,0.0,0.0,0.0,0.0,-2.6762,-2.6762,0.0,0.0,-2.5855,-2.6384,0.0,0.0,0.0,0.0,0.0,0.0,0.0,0.0,0.0,0.0,0.0,0.0,0.0,0.0,0.0,0.0,0.0,0.0,-2.6776,-2.7153,-2.7278,-2.7776,-2.8561,-2.9553,-3.0523,-3.0885,-2.9118,-2.8903,-2.8734,-2.636,-2.5693,-2.5693,-2.5693,-2.5332,-2.4844,-2.4492,-2.4023,-2.3555,-2.3159,-2.3101,-2.3101,-2.3101,-2.3647,-2.4353,-2.516,-2.6168,-2.7292,-2.8444,-2.8935,-2.886,-2.7961,-2.647,-2.5024,-2.3698,-2.244,-2.1737,-2.1964,-2.2311,-2.3214,-2.4844,-2.3665,-2.2928,-2.2928,-2.2928,-2.3529,-2.4911,-2.6706,-2.8492,-3.0254,-3.2027,-3.3019,-3.3418,-3.3418,-3.3418,-3.3418,-3.3418,-3.3418,-3.3418,-3.3418,-3.3418,-3.3418,-3.3418,-3.3418,-3.3418,-3.3418,-3.3418,-3.3418,0.0,0.0,0.0,0.0,0.0,0.0,0.0,-2.3191,-2.4298,-2.6243,-2.7106,-2.7495,-2.7435,-2.6896,-2.6512,0.0,0.0,0.0,0.0,0.0,0.0,0.0,0.0,0.0,0.0,0.0,0.0,-2.7305,-2.7909,0.0,0.0,0.0,0.0,0.0,0.0,-2.4192,0.0,0.0,0.0,0.0,0.0,0.0,0.0,0.0,0.0,0.0,0.0,-2.6524,-2.665,-2.7153,-2.7054,-2.6828,-2.7415,-2.9037,-3.0415,-2.9026,-2.8612,-2.8249,-2.6232,-2.5693,-2.5693,-2.5693,-2.5098,-2.4473,-2.4434,-2.3744,-2.314,-2.3101,-2.3101,-2.3101,-2.3101,-2.3159,-2.3364,-2.3791,-2.5351,-2.6201,-2.5566,-2.6964,-2.7511,-2.6359,-2.4778,-2.376,-2.3636,-2.2636,-2.1951,-2.1977,-2.2498,-2.2969,-2.3133,-2.2996,-2.2928,-2.2928,-2.2928,-2.2996,-2.3133,-2.4858,-2.6639,-2.8427,-3.0189,-3.1899,-3.3418,-3.3418,-3.3418,-3.3418,-3.3418,-3.3418,-3.3418,-3.3418,-3.3418,-3.3418,-3.3418,-3.3418,-3.3418,-3.3418,-3.3418,-3.3418,0.0,0.0,0.0,0.0,0.0,0.0,-2.2553,-2.355,-2.4777,-2.6393,-2.7555,-2.8188,-2.8188,-2.8308,-2.8094,-2.7285,0.0,0.0,0.0,0.0,0.0,0.0,0.0,0.0,0.0,0.0,-2.8446,-2.8181,-2.8801,0.0,0.0,0.0,0.0,0.0,0.0,-2.5347,-2.4991,0.0,0.0,0.0,0.0,0.0,0.0,0.0,0.0,0.0,0.0,0.0,-2.6524,-2.6751,-2.6514,-2.611,-2.6338,-2.6993,-2.7592,-2.6889,-2.7099,-2.725,-2.5749,-2.5527,-2.5693,-2.5693,-2.5031,-2.4414,-2.4414,-2.3705,-2.3101,-2.3101,-2.3101,-2.3101,-2.3101,-2.3101,-2.3216,-2.3681,-2.3889,-2.4152,-2.458,-2.4951,-2.4849,-2.413,-2.3566,-2.298,-2.2201,-2.2019,-2.2138,-2.2485,-2.2726,-2.2928,-2.2928,-2.2928,-2.2928,-2.2928,-2.2928,-2.2928,-2.2928,-2.4655,-2.5853,-2.6573,-2.9457,-3.1176,-3.1899,-3.2892,-3.3418,-3.3418,-3.3418,-3.3418,-3.3418,-3.3418,-3.3418,-3.3418,-3.3418,-3.3418,-3.3418,-3.3418,-3.3418,-3.3418,0.0,0.0,0.0,0.0,0.0,-2.1954,-2.2613,-2.3939,-2.5315,-2.6452,-2.7769,-2.8607,-2.8607,-2.9026,-2.8906,-2.7974,-2.7705,0.0,0.0,0.0,0.0,0.0,0.0,0.0,0.0,0.0,-2.8966,-2.9175,-2.9834,-3.0043,0.0,0.0,-2.8592,-2.7733,0.0,0.0,0.0,0.0,0.0,0.0,0.0,0.0,0.0,0.0,0.0,0.0,0.0,0.0,0.0,0.0,0.0,-2.5753,-2.5753,-2.544,-2.5095,-2.5189,-2.5918,-2.6443,-2.5397,-2.5391,-2.5693,-2.5693,-2.5031,-2.4414,-2.4414,-2.3705,-2.3101,-2.3101,-2.3101,-2.3101,-2.3101,-2.3101,-2.3105,-2.3216,-2.288,-2.2699,-2.3083,-2.298,-2.2645,-2.2008,-2.2149,-2.1921,-2.1074,-2.159,-2.2191,-2.2699,-2.2819,-2.2928,-2.2928,-2.2928,-2.2928,-2.2928,-2.2928,-2.2928,-2.2928,-2.4128,-2.4979,-2.5517,-2.8607,-3.0319,-3.0836,-3.2619,-3.3418,-3.3418,-3.3418,-3.3418,-3.3418,-3.3418,-3.3418,-3.3418,-3.3418,-3.3418,-3.3418,-3.3418,-3.3418,-3.3418,0.0,0.0,0.0,0.0,0.0,0.0,-2.2613,-2.4328,-2.5824,-2.6512,-2.7769,-2.8607,-2.8607,-2.8607,-2.8607,-2.8577,-2.7974,0.0,0.0,0.0,0.0,0.0,0.0,0.0,0.0,0.0,-2.9864,-3.0492,-3.1152,-3.1122,-3.0492,-3.0492,-2.9714,-2.8367,0.0,0.0,0.0,0.0,0.0,0.0,0.0,0.0,0.0,0.0,0.0,0.0,0.0,0.0,0.0,0.0,0.0,0.0,0.0,-2.454,-2.351,0.0,-2.5415,-2.5958,-2.527,-2.5391,-2.5693,-2.5693,-2.5031,-2.4414,-2.4414,-2.3705,-2.3101,-2.3101,-2.3101,-2.3101,-2.3101,-2.3101,-2.2821,-2.1952,-2.2488,-2.2395,-2.0572,-2.1056,-2.1263,-2.0342,-2.0241,-2.0347,-2.0655,-2.147,-2.2111,-2.2405,-2.2699,-2.2928,-2.2928,-2.2928,-2.2928,-2.2928,-2.2928,-2.2928,-2.2928,-2.2928,-2.3788,-2.5517,-2.737,-2.9148,-3.0836,-3.2619,-3.3418,-3.3418,-3.3418,-3.3418,-3.3418,-3.3418,-3.3418,-3.3418,-3.3418,-3.3418,-3.3418,-3.3418,-3.3418,-3.3418,0.0,0.0,0.0,0.0,0.0,0.0,0.0,-2.2942,-2.3999,-2.5083,-2.6004,-2.6901,-2.7824,-2.7914,-2.8124,-2.8547,-2.8004,0.0,0.0,0.0,0.0,0.0,0.0,0.0,0.0,0.0,-2.9921,-3.0492,-3.1659,-3.1839,-3.1182,-3.163,-3.1155,-2.9829,-2.9622,-2.9296,0.0,0.0,0.0,0.0,0.0,0.0,0.0,0.0,0.0,0.0,0.0,0.0,0.0,0.0,0.0,0.0,0.0,0.0,0.0,-2.3257,-2.3698,-2.4078,-2.4153,-2.4512,-2.4797,-2.4797,-2.4414,-2.3984,-2.3984,-2.3555,-2.3101,-2.3101,-2.3101,-2.3101,-2.3101,-2.3101,-2.3202,-2.3534,-2.3238,-2.3019,-2.3031,-2.2229,-2.1578,-2.1422,-2.1052,-2.0949,-2.1306,-2.171,-2.2111,-2.2392,-2.2699,-2.2928,-2.2928,-2.2928,-2.2928,-2.2928,-2.2928,-2.2928,-2.2928,-2.2928,-2.3201,-2.372,-2.5517,-2.7304,-2.9083,-3.0854,-3.2301,-3.3418,-3.3418,-3.3418,-3.3418,-3.3418,-3.3418,-3.3418,-3.3418,-3.3418,-3.3418,-3.3418,-3.3418,-3.3418,0.0,0.0,0.0,0.0,0.0,0.0,0.0,-2.2293,-2.331,-2.4126,-2.5023,-2.6123,-2.7435,-2.7375,-2.7615,-2.8517,-2.8004,0.0,0.0,0.0,0.0,0.0,0.0,0.0,-2.8936,-2.9412,-3.0133,-3.127,-3.2108,-3.2437,-3.2258,-3.2706,-3.2317,-3.124,-3.1001,-3.0522,0.0,0.0,0.0,0.0,0.0,0.0,0.0,0.0,0.0,0.0,0.0,0.0,0.0,0.0,0.0,0.0,0.0,0.0,0.0,0.0,-2.3119,-2.3026,-2.3428,-2.3965,-2.4414,-2.4414,-2.4102,-2.3789,-2.3789,-2.3457,-2.3101,-2.3101,-2.3101,-2.3101,-2.3101,-2.3101,-2.3276,-2.3803,-2.328,-2.3044,-2.3885,-2.2446,-2.1331,-2.1333,-2.1074,-2.1015,-2.1266,-2.159,-2.1937,-2.2231,-2.2525,-2.2739,-2.2928,-2.2928,-2.2928,-2.2928,-2.2928,-2.2928,-2.2928,-2.2928,-2.2928,-2.2928,-2.5383,-2.7105,-2.8295,-3.0725,-3.2365,-3.3418,-3.3418,-3.3418,0.0,-3.3418,-3.3418,-3.3418,-3.3418,-3.3418,-3.3418,-3.3418,-3.3418,-3.3418,0.0,0.0,0.0,0.0,0.0,0.0,0.0,-2.2263,-2.349,-2.352,-2.4657,-2.5944,-2.7255,-2.6896,-2.7051,-2.8338,0.0,0.0,0.0,0.0,0.0,0.0,0.0,0.0,-2.9592,-2.9621,-3.0552,-3.2527,-3.2557,-3.2886,-3.3484,-3.3544,-3.3185,-3.2467,-3.1839,-3.1182,0.0,0.0,0.0,0.0,0.0,0.0,0.0,0.0,0.0,0.0,0.0,0.0,0.0,0.0,0.0,0.0,0.0,0.0,0.0,0.0,0.0,0.0,0.0,-2.3677,-2.4277,-2.4277,-2.4004,-2.375,-2.375,-2.3437,0.0,-2.3101,-2.3101,-2.3101,-2.314,-2.312,-2.312,-2.3218,-2.2879,-2.2835,-2.3665,-2.2274,-2.0944,-2.0369,-2.0535,-2.0708,-2.0708,-2.1279,-2.1735,-2.1964,-2.2258,-2.2552,-2.2846,-2.2928,-2.2928,-2.2928,-2.2928,-2.2928,-2.2928,-2.2928,-2.2928,-2.2928,-2.6388,-2.8114,-2.8312,-3.1707,-3.3292,-3.3418,-3.3418,-3.3418,-3.3418,-3.3418,-3.3418,-3.3418,-3.3418,-3.3418,-3.3418,-3.3418,-3.3418,-3.3418,0.0,0.0,0.0,0.0,0.0,0.0,0.0,0.0,0.0,0.0,-2.358,-2.4388,-2.5202,-2.5644,-2.6183,0.0,0.0,0.0,0.0,0.0,0.0,0.0,0.0,0.0,-2.9592,-2.9621,-3.0552,-3.2527,-3.3006,-3.3335,-3.3514,-3.3993,-3.3634,-3.2497,-3.2318,-3.1899,0.0,0.0,0.0,0.0,0.0,0.0,0.0,0.0,0.0,0.0,-2.7404,-2.7027,0.0,0.0,0.0,0.0,0.0,0.0,0.0,0.0,-2.4346,-2.3684,-2.297,0.0,-2.2969,-2.2969,-2.3125,-2.3257,0.0,-2.3159,-2.3101,-2.3101,-2.3101,-2.3198,-2.3574,-2.3315,-2.3457,-2.4453,-2.4551,-2.4881,-2.6021,-2.483,-2.3073,-2.1127,-2.0962,-2.1002,-2.1002,-2.1336,-2.1735,-2.1964,-2.2258,-2.2552,-2.2846,-2.2928,-2.2928,-2.2928,-2.2928,-2.2928,-2.2928,-2.2928,-2.2928,-2.2928,-2.5113,-2.6839,-2.8295,-3.0448,-3.2155,-3.3418,-3.3418,-3.3418,-3.3418,-3.3418,-3.3418,-3.3418,-3.3418,-3.3418,-3.3418,-3.3418,-3.3418,-3.3418,0.0,0.0,0.0,0.0,0.0,0.0,0.0,0.0,0.0,0.0,0.0,-2.3879,-2.4545,-2.5202,0.0,0.0,0.0,0.0,0.0,0.0,0.0,0.0,0.0,-2.8214,-2.9592,-2.9621,-3.0552,-3.2527,-3.3185,-3.3484,-3.3514,-3.4204,-3.3784,-3.2497,-3.2168,-3.1839,0.0,0.0,0.0,0.0,0.0,0.0,0.0,0.0,0.0,0.0,-2.7703,-2.7196,0.0,-2.6499,-2.6499,-2.6499,0.0,0.0,0.0,0.0,-2.4787,-2.4337,-2.3345,-2.3135,-2.3092,-2.2627,-2.2789,-2.3101,-2.3101,-2.3101,-2.3101,-2.3101,-2.3101,-2.3159,-2.3437,-2.3457,-2.3672,-2.4375,-2.498,-2.5446,-2.5646,-2.5111,-2.3813,-2.1407,-2.1109,-2.1109,-2.1109,-2.1256,-2.147,-2.1764,-2.2058,-2.2352,-2.2645,-2.2792,-2.2928,-2.2928,-2.2928,-2.2928,-2.2928,-2.2928,-2.2928,-2.2928,-2.5517,-2.7238,-2.8312,-3.0854,-3.2492,-3.3418,-3.3418,-3.3418,-3.3418,-3.3418,-3.3418,-3.3418,-3.3418,-3.3418,-3.3418,-3.3418,-3.3418,-3.3418,0.0,0.0,0.0,0.0,0.0,0.0,0.0,0.0,0.0,0.0,0.0,0.0,0.0,0.0,0.0,0.0,0.0,0.0,0.0,0.0,0.0,0.0,-2.7645,-2.8214,-2.9592,-2.9621,-3.0552,-3.2527,-3.3185,-3.3544,-3.3664,-3.4354,-3.3933,-3.2647,-3.1959,-3.16,0.0,0.0,0.0,0.0,0.0,0.0,0.0,0.0,0.0,0.0,0.0,0.0,0.0,-2.6654,-2.6602,-2.6499,-2.6499,0.0,0.0,0.0,0.0,0.0,-2.4091,-2.4122,-2.4114,-2.293,-2.2988,-2.3299,-2.3144,-2.3101,-2.3101,-2.3101,-2.3101,-2.312,-2.3179,-2.3594,-2.3906,-2.3984,-2.5137,-2.5665,-2.4603,-2.4672,-2.4055,-2.2083,-2.1411,-2.1172,-2.1475,-2.1235,-2.1229,-2.1601,-2.1777,-2.2071,-2.2405,-2.2659,-2.2887,-2.2928,-2.2928,-2.2928,-2.2928,-2.2928,-2.3065,-2.3324,-2.6655,-2.8361,-2.8689,-3.1899,-3.3418,-3.3418,-3.3418,-3.3418,-3.3418,-3.3418,-3.3418,-3.3418,-3.3418,-3.3418,-3.3418,-3.3418,-3.3418,-3.3418,0.0,0.0,0.0,0.0,0.0,0.0,0.0,0.0,0.0,0.0,0.0,0.0,0.0,0.0,0.0,0.0,0.0,0.0,0.0,0.0,0.0,-2.8487,-2.7914,-2.8214,-2.9592,-2.9621,-3.0552,-3.2527,-3.3185,-3.3784,-3.4384,-3.5011,-3.4622,-3.3305,-3.2647,-3.2019,-3.1511,-3.1511,0.0,0.0,0.0,0.0,0.0,0.0,0.0,0.0,0.0,0.0,0.0,-2.7314,-2.7061,-2.6499,-2.6499,0.0,0.0,0.0,0.0,0.0,-2.5588,-2.5761,-2.5622,-2.3668,-2.3867,-2.4296,-2.3299,-2.3101,-2.3101,-2.3101,-2.3101,-2.3198,-2.3633,-2.4043,-2.4453,-2.4851,-2.6269,-2.7084,-2.6236,-2.5584,-2.5207,-2.5266,-2.2827,-2.1664,-2.3076,-2.1915,-2.1229,-2.1601,-2.1655,-2.1857,-2.2392,-2.2458,-2.2605,-2.2928,-2.2928,-2.2928,-2.2928,-2.2928,-2.3665,-2.5113,-2.7238,-2.8952,-3.0448,-3.2492,-3.3418,-3.3418,-3.3418,-3.3418,-3.3418,-3.3418,-3.3418,-3.3418,-3.3418,-3.3418,-3.3418,-3.3418,-3.3418,-3.3418,0.0,0.0,0.0,0.0,0.0,0.0,0.0,0.0,0.0,0.0,0.0,0.0,0.0,0.0,0.0,0.0,0.0,0.0,0.0,0.0,-2.9594,-2.9624,-2.9022,-2.8963,-2.9592,-2.9894,-3.0881,-3.2527,-3.3514,-3.3993,-3.3933,-3.3903,-3.3544,-3.2946,-3.2258,-3.178,-3.1511,-3.1511,-3.1511,0.0,0.0,0.0,0.0,0.0,0.0,0.0,0.0,0.0,0.0,0.0,-2.7438,-2.7061,-2.6645,0.0,0.0,0.0,0.0,0.0,-2.6226,-2.6772,-2.7,-2.5431,-2.5381,-2.5588,-2.5062,-2.4935,-2.4766,-2.4125,-2.3996,-2.3985,-2.3845,-2.4336,-2.5215,-2.6582,-2.7676,-2.8071,-2.7296,-2.69,-2.6483,-2.6056,-2.464,-2.4039,-2.484,-2.4224,-2.3432,-2.2729,-2.2836,-2.2613,-2.2003,-2.2245,-2.2485,-2.2619,-2.2779,-2.2928,-2.2928,-2.3856,-2.4723,-2.5517,-2.8279,-2.9995,-3.0836,-3.2619,-3.3418,-3.3418,-3.3418,-3.3418,-3.3418,-3.3418,-3.3418,-3.3418,-3.3418,-3.3418,-3.3418,-3.3418,-3.3418,-3.3418,0.0,0.0,0.0,0.0,0.0,0.0,0.0,0.0,0.0,0.0,0.0,0.0,0.0,0.0,0.0,0.0,0.0,0.0,0.0,-2.9532,-2.9831,-3.0253,-2.9983,-2.9804,-2.9804,-3.0432,-3.133,-3.2527,-3.3814,-3.4324,-3.3963,-3.3275,-3.2886,-3.2706,-3.2019,-3.166,-3.1511,-3.1511,-3.1511,0.0,0.0,0.0,0.0,0.0,0.0,0.0,0.0,0.0,0.0,0.0,0.0,0.0,0.0,0.0,0.0,-2.6568,-2.6499,-2.6524,-2.665,-2.7369,-2.7939,-2.7244,-2.6971,-2.6835,-2.67,-2.6681,-2.6476,-2.5722,-2.5359,-2.5011,-2.4476,-2.494,-2.6055,-2.8105,-2.8789,-2.8872,-2.8455,-2.8097,-2.773,-2.7219,-2.647,-2.6167,-2.653,-2.6227,-2.5497,-2.424,-2.4346,-2.3963,-2.2794,-2.3116,-2.3332,-2.3416,-2.3792,-2.3947,-2.3947,-2.5807,-2.6573,-2.6172,-2.9327,-3.1029,-3.1433,-3.2765,-3.3418,-3.3418,-3.3418,-3.3418,-3.3418,-3.3418,-3.3418,-3.3418,-3.3418,-3.3418,-3.3418,-3.3418,-3.3418,-3.3418,0.0,0.0,0.0,0.0,0.0,0.0,0.0,0.0,0.0,0.0,0.0,0.0,0.0,0.0,0.0,0.0,0.0,0.0,0.0,-2.9235,-2.9621,-2.9681,-3.0163,-3.0432,-3.0432,-3.1092,-3.178,-3.2527,-3.3814,-3.4771,-3.534,-3.4651,-3.3993,-3.3395,-3.2736,-3.2079,-3.1511,-3.1511,-3.1511,-3.1511,-3.1511,0.0,0.0,0.0,0.0,0.0,0.0,0.0,0.0,0.0,0.0,0.0,0.0,0.0,-2.7471,-2.6714,-2.6499,-2.66,-2.7128,-2.7645,-2.8186,-2.8612,-2.8329,-2.7841,-2.7337,-2.724,-2.7375,-2.7781,-2.6954,-2.6178,-2.6109,-2.6202,-2.6855,-2.8594,-2.9238,-2.9687,-2.9966,-2.9037,-2.8883,-3.0392,-2.7871,-2.6591,-2.8051,-2.6893,-2.5984,-2.5863,-2.5818,-2.5921,-2.6061,-2.6064,-2.6258,-2.6551,-2.6955,-2.7149,-2.7149,-2.9349,-2.9605,-2.8032,-2.993,-3.1625,-3.3228,-3.3355,-3.3418,-3.3418,-3.3418,-3.3418,-3.3418,-3.3418,-3.3418,-3.3418,-3.3418,-3.3418,-3.3418,-3.3418,-3.3418,-3.3418,0.0,0.0,0.0,0.0,0.0,0.0,0.0,0.0,0.0,0.0,0.0,0.0,0.0,0.0,0.0,0.0,0.0,0.0,0.0,-2.8633,-2.9325,-3.0133,-3.0372,-3.0702,-3.1092,-3.178,-3.2647,-3.3724,-3.4651,-3.525,-3.5489,-3.4382,-3.3724,-3.3455,-3.2348,-3.175,-3.1511,-3.1511,-3.1511,-3.1511,-3.1511,0.0,0.0,0.0,0.0,0.0,0.0,0.0,0.0,0.0,-2.8896,-2.8287,-2.7833,-2.7364,-2.6884,-2.6602,-2.6499,-2.6549,-2.6751,-2.7419,-2.8147,-2.8373,-2.8773,-2.9175,-2.9351,-2.9608,-2.9827,-2.9691,-2.9563,-2.9173,-2.8168,-2.7571,-2.7708,-2.9082,-2.9687,-3.0117,-3.0566,-3.0218,-3.0216,-3.082,-2.9785,-2.9294,-2.9903,-2.9412,-2.8605,-2.7572,-2.7512,-2.7082,-2.6166,-2.6335,-2.6454,-2.6602,-2.6917,-2.7113,-2.7113,-2.9014,-2.9653,-2.9038,-3.132,-3.2765,-3.3418,-3.3418,-3.3418,-3.3418,-3.3418,-3.3418,-3.3418,-3.3418,-3.3418,-3.3418,-3.3418,-3.3418,-3.3418,-3.3418,-3.3418,-3.3418,0.0,0.0,0.0,0.0,0.0,0.0,0.0,0.0,0.0,0.0,0.0,0.0,0.0,0.0,0.0,0.0,0.0,0.0,-2.7225,-2.7914,-2.8757,-2.9864,-3.0103,-3.0642,-3.1481,-3.1959,-3.2856,-3.4173,-3.507,-3.54,-3.516,-3.4023,-3.3484,-3.3425,-3.2079,-3.163,-3.1809,-3.16,-3.1511,-3.1511,-3.1511,-3.1511,0.0,0.0,0.0,0.0,0.0,0.0,0.0,0.0,-2.8798,-2.8327,-2.7926,-2.7373,-2.685,-2.6568,-2.6625,-2.6751,-2.6751,-2.7519,-2.8373,-2.8373,-2.9227,-3.0206,-3.0733,-3.126,-3.1631,-3.1625,-3.1601,-3.1111,-2.9529,-2.8686,-2.8575,-2.9466,-2.9922,-3.0351,-3.082,-3.0898,-3.0898,-3.0898,-3.0898,-3.0898,-3.0898,-3.0898,-3.0392,-2.9275,-2.9216,-2.8724,-2.7632,-2.7696,-2.7835,-2.7835,-2.8157,-2.8365,-2.8365,-2.9668,-3.0359,-3.0377,-3.2157,-3.3105,-3.3223,-3.3359,-3.3418,-3.3418,-3.3418,-3.3418,-3.3418,-3.3418,-3.3418,-3.3418,-3.3418,-3.3418,-3.3418,-3.3418,-3.3418,-3.3418,0.0,0.0,0.0,0.0,0.0,0.0,0.0,0.0,0.0,0.0,0.0,0.0,0.0,0.0,0.0,0.0,0.0,0.0,-2.6482,-2.7225,-2.7884,-2.8577,-2.9235,-3.0193,-3.1481,-3.1511,-3.2138,-3.3484,-3.4831,-3.513,-3.4474,-3.3814,-3.3484,-3.3425,-3.2079,-3.1869,-3.2437,-3.178,-3.1511,-3.1511,-3.1511,-3.1511,0.0,0.0,0.0,0.0,0.0,0.0,0.0,0.0,-2.8897,-2.9084,-2.8244,-2.7872,-2.7537,-2.6714,-2.6876,-2.7293,-2.7268,-2.8072,-2.8888,-2.8888,-2.974,-3.0758,-3.1286,-3.1838,-3.2541,-3.3696,-3.2938,-3.16,-3.002,-2.9606,-2.9528,-2.9577,-2.9922,-3.0351,-3.082,-3.0898,-3.0898,-3.0898,-3.0898,-3.0898,-3.0898,-3.0898,-3.0898,-3.0898,-3.0898,-3.0898,-3.0898,-3.0898,-3.0898,-3.0898,-3.1289,-3.1504,-3.1504,-3.1934,-3.2209,-3.2209,-3.2168,-3.2383,-3.2793,-3.3223,-3.3418,-3.3418,-3.3418,-3.3418,-3.3418,-3.3418,-3.3418,-3.3418,-3.3418,-3.3418,-3.3418,-3.3418,-3.3418,-3.3418,0.0,0.0,0.0,0.0,0.0,0.0,0.0,0.0,0.0,0.0,0.0,0.0,0.0,0.0,0.0,0.0,0.0,0.0,-2.5884,-2.6512,-2.7195,-2.7884,-2.8992,-2.9953,-3.0791,-3.172,-3.2647,-3.3484,-3.4352,-3.4442,-3.3784,-3.3574,-3.3245,-3.2796,-3.2407,-3.2049,-3.178,-3.16,-3.1511,-3.1511,-3.1511,-3.1511,-3.1421,0.0,0.0,0.0,0.0,0.0,0.0,0.0,0.0,0.0,-2.7042,-2.7059,-2.6816,-2.6568,-2.6876,-2.7228,-2.6851,-2.7519,-2.8348,-2.8348,-2.9503,-3.0859,-3.1763,-3.2717,-3.3822,-3.5374,-3.4352,-3.2887,-3.1767,-3.0713,-2.9951,-2.9616,-2.9922,-3.0351,-3.082,-3.0898,-3.0898,-3.0898,-3.0898,-3.0898,-3.0898,-3.0898,-3.0898,-3.0898,-3.0898,-3.0898,-3.0898,-3.0898,-3.0898,-3.0898,-3.1016,-3.1074,-3.1074,-3.1211,-3.1269,-3.1269,-3.1562,-3.1934,-3.2363,-3.248,-3.2539,-3.2559,-3.2851,-3.2988,-3.3008,-3.3301,-3.3418,-3.3418,-3.3418,-3.3418,-3.3418,-3.3418,-3.3418,-3.3418,0.0,0.0,0.0,0.0,0.0,0.0,0.0,0.0,0.0,0.0,-2.4425,-2.4903,0.0,0.0,0.0,0.0,0.0,0.0,0.0,-2.5974,-2.6482,-2.7165,-2.8483,-2.9594,-3.0492,-3.1839,-3.2587,-3.2706,-3.3634,-3.3754,-3.3125,-3.3365,-3.3275,-3.2916,-3.2916,-3.2677,-3.2258,-3.2019,-3.175,-3.1511,-3.1511,-3.1511,-3.1451,0.0,0.0,0.0,0.0,0.0,0.0,0.0,0.0,0.0,-2.6332,-2.6329,-2.6197,-2.6424,-2.6876,-2.7293,-2.7419,-2.8097,-2.8825,-2.9051,-3.0005,-3.1336,-3.2867,-3.3897,-3.4901,-3.6153,-3.5342,-3.415,-3.3311,-3.2611,-3.1754,-3.0573,-3.0942,-3.1274,-3.0956,-3.0898,-3.0898,-3.0898,-3.0898,-3.0898,-3.0898,-3.0898,-3.0898,-3.0898,-3.0898,-3.0898,-3.0898,-3.0898,-3.0898,-3.0898,-3.0898,-3.0898,-3.0898,-3.0898,-3.0898,-3.0898,-3.1152,-3.1406,-3.168,-3.2012,-3.2229,-3.2187,-3.2441,-3.2637,-3.2812,-3.3066,-3.3281,-3.3418,-3.3418,-3.3418,-3.3418,-3.3418,-3.3418,-3.3418,0.0,0.0,0.0,0.0,0.0,0.0,0.0,0.0,0.0,0.0,-2.4126,-2.4545,0.0,0.0,0.0,0.0,0.0,0.0,0.0,-2.5704,-2.6004,-2.6662,-2.8038,-2.9355,-3.0582,-3.1809,-3.2079,-3.1421,-3.2766,-3.3066,-3.2407,-3.3155,-3.3455,-3.3395,-3.3455,-3.3425,-3.3275,-3.2617,-3.1929,-3.1331,-3.1391,-3.1391,-3.1331,-3.1333,0.0,0.0,0.0,0.0,0.0,0.0,0.0,0.0,-2.6018,-2.5743,-2.5711,-2.6323,-2.6876,-2.7494,-2.8499,-2.9277,-2.9905,-3.0407,-3.1085,-3.2164,-3.4248,-3.5132,-3.5755,-3.6304,-3.5956,-3.5335,-3.4534,-3.4788,-3.4324,-3.2148,-3.2635,-3.2815,-3.1325,-3.1112,-3.1054,-3.0898,-3.0898,-3.0898,-3.0898,-3.0898,-3.0898,-3.0898,-3.0898,-3.0898,-3.0898,-3.0898,-3.0898,-3.0898,-3.0898,-3.0898,-3.0898,-3.0898,-3.0898,-3.0898,-3.0898,-3.0898,-3.0918,-3.1699,-3.207,-3.2109,-3.2109,-3.2344,-3.2734,-3.2734,-3.2988,-3.3359,-3.3359,-3.3379,-3.3418,-3.3418,-3.3418,-3.3418,0.0,0.0,0.0,0.0,0.0,0.0,0.0,0.0,0.0,0.0,0.0,0.0,0.0,0.0,0.0,0.0,0.0,0.0,0.0,-2.6363,-2.6662,-2.7345,-2.9116,-3.0492,-3.1271,-3.157,-3.1391,-3.0731,-3.2078,-3.2348,-3.175,-3.2946,-3.3215,-3.2736,-3.3275,-3.2916,-3.1899,-3.1212,-3.0582,-3.0043,-3.0522,-3.0432,-2.9988,-2.9898,-2.9435,0.0,0.0,0.0,0.0,0.0,0.0,0.0,-2.5572,-2.5618,-2.5711,-2.6323,-2.6876,-2.7344,-2.757,-2.8699,-2.9829,-2.993,-3.1687,-3.3596,-3.4525,-3.5479,-3.6254,-3.638,-3.6329,-3.5829,-3.4605,-3.5073,-3.51,-3.3576,-3.4151,-3.4292,-3.2794,-3.2644,-3.2207,-3.1054,-3.0898,-3.0898,-3.0898,-3.0898,-3.0898,-3.0898,-3.0898,-3.0898,-3.0898,-3.0898,-3.0898,-3.0898,-3.0898,-3.0898,-3.0898,-3.0898,-3.0898,-3.0898,-3.0898,-3.0898,-3.0898,-3.1074,-3.1348,-3.166,-3.166,-3.1914,-3.2305,-3.2305,-3.2559,-3.293,-3.293,-3.3125,-3.3418,-3.3418,-3.3418,-3.3418,0.0,0.0,0.0,0.0,0.0,0.0,0.0,0.0,0.0,0.0,0.0,0.0,0.0,0.0,0.0,0.0,0.0,0.0,0.0,-2.5925,-2.6639,-2.7871,-2.8926,-2.9636,-2.9897,-3.0629,-3.0681,-2.9983,-3.0741,-3.1091,-3.1062,-3.2736,-3.3305,-3.3006,-3.3335,-3.2946,-3.1899,-3.0941,-3.0313,-3.0013,-3.0043,-2.982,-2.9484,-2.9058,-2.8512,-2.7767,-2.6941,0.0,0.0,0.0,0.0,0.0,0.0,0.0,-2.5711,-2.6323,-2.67,-2.7102,-2.7871,-2.8699,-2.9578,-3.0357,-3.224,-3.4048,-3.46,-3.5378,-3.6031,-3.6355,-3.6405,-3.6216,-3.5475,-3.599,-3.61,-3.4935,-3.5472,-3.5563,-3.4304,-3.4125,-3.3866,-3.3098,-3.2985,-3.2985,-3.2985,-3.2985,-3.2701,-3.1977,-3.192,-3.1652,-3.0937,-3.0898,-3.0898,-3.0898,-3.0898,-3.0898,-3.0898,-3.0898,-3.0898,-3.0898,-3.0898,-3.0898,-3.0898,-3.0898,-3.1016,-3.1211,-3.1211,-3.1465,-3.1855,-3.1855,-3.2109,-3.2519,-3.2715,-3.293,-3.3144,-3.334,-3.3902,-3.455,0.0,0.0,0.0,0.0,0.0,0.0,0.0,0.0,0.0,0.0,0.0,0.0,0.0,0.0,0.0,0.0,0.0,0.0,0.0,-2.5116,-2.6305,-2.7883,-2.8111,-2.8137,-2.8047,-2.9291,-2.9606,-2.8857,-2.9107,-2.9505,-3.0127,-3.2318,-3.3395,-3.3484,-3.3331,-3.2855,-3.2049,-3.0537,-2.9887,-2.9761,-2.9235,-2.8906,-2.8656,-2.8054,-2.7397,-2.6699,-2.5993,-2.6023,-2.6315,-2.58,0.0,0.0,0.0,0.0,-2.5586,-2.6298,-2.6499,-2.6826,-2.8247,-2.8888,-2.954,-3.116,-3.2717,-3.4048,-3.46,-3.5107,-3.5658,-3.6304,-3.6405,-3.6405,-3.6405,-3.6857,-3.6996,-3.6293,-3.6668,-3.6777,-3.5822,-3.5672,-3.5563,-3.5343,-3.5288,-3.5288,-3.5288,-3.5288,-3.4792,-3.3564,-3.3473,-3.2985,-3.171,-3.1441,-3.1267,-3.1267,-3.1054,-3.0898,-3.0898,-3.0898,-3.0898,-3.0898,-3.0898,-3.0898,-3.0898,-3.0898,-3.0898,-3.0898,-3.0898,-3.1094,-3.1406,-3.1406,-3.1839,-3.2493,-3.285,-3.319,-3.3595,-3.3955,-3.4964,-3.6213,0.0,0.0,0.0,0.0,0.0,0.0,0.0,0.0,0.0,0.0,-2.361,-2.3384,-2.2875,-2.2894,0.0,0.0,0.0,0.0,-2.3761,0.0,0.0,-2.6608,-2.7138,-2.7415,-2.7411,-2.7617,-2.7422,-2.6803,-2.7338,-2.787,-2.8393,-3.1276,-3.2946,-3.3454,-3.271,-3.1805,-3.0647,-2.8539,-2.74,-2.7035,-2.6862,-2.6469,-2.5911,-2.5693,-2.5237,-2.4657,-2.4367,-2.4343,-2.4514,-2.5317,-2.5335,0.0,0.0,0.0,-2.5134,-2.6197,-2.6499,-2.665,-2.7318,-2.8925,-3.0658,-3.1813,-3.3018,-3.4048,-3.46,-3.5107,-3.5658,-3.6304,-3.6405,-3.6405,-3.6405,-3.6857,-3.7313,-3.7667,-3.8216,-3.8304,-3.7352,-3.7186,-3.6703,-3.5453,-3.5288,-3.5288,-3.5288,-3.5288,-3.5233,-3.5013,-3.5013,-3.4902,-3.4736,-3.3529,-3.2794,-3.2794,-3.1556,-3.0898,-3.0898,-3.0898,-3.0898,-3.0898,-3.0898,-3.0898,-3.0898,-3.0898,-3.0898,-3.0898,-3.0898,-3.0918,-3.0976,-3.0976,-3.1993,-3.3505,-3.3568,-3.4891,-3.6802,-3.6868,-3.7332,-3.7865,0.0,0.0,0.0,0.0,0.0,0.0,0.0,0.0,0.0,0.0,0.0,-2.2852,-2.2207,-2.2132,0.0,0.0,0.0,0.0,-2.3109,-2.35,0.0,-2.5174,-2.5799,-2.5888,-2.5458,-2.6331,-2.6457,-2.5718,-2.6069,-2.7239,-2.9145,-3.0094,-3.1234,-3.2401,-3.133,-3.04,-2.9513,-2.7501,-2.655,-2.6412,-2.5994,-2.5981,-2.6136,-2.509,-2.4644,-2.4469,-2.3775,-2.3728,-2.4079,-2.4531,-2.4757,-2.4876,-2.5385,0.0,0.0,0.0,-2.5536,-2.5787,-2.6967,-2.8699,-3.0407,-3.1486,-3.2365,-3.3194,-3.4073,-3.4449,-3.4876,-3.573,-3.5906,-3.6006,-3.6355,-3.6606,-3.6958,-3.7462,-3.8015,-3.8366,-3.8275,-3.8543,-3.8477,-3.782,-3.7767,-3.7767,-3.7767,-3.7767,-3.7423,-3.6595,-3.6541,-3.6162,-3.5343,-3.4681,-3.4348,-3.4348,-3.3698,-3.2985,-3.215,-3.215,-3.171,-3.0898,-3.171,-3.215,-3.215,-3.215,-3.1652,-3.0898,-3.0898,-3.0898,-3.0937,-3.1767,-3.2653,-3.3449,-3.4504,-3.5593,-3.6608,-3.7166,-3.8144,-3.9152,0.0,0.0,0.0,0.0,0.0,0.0,0.0,0.0,0.0,0.0,0.0,0.0,-2.1544,0.0,0.0,0.0,0.0,0.0,-2.2148,0.0,0.0,0.0,-2.423,-2.4245,-2.3778,-2.481,-2.5135,-2.4648,-2.4753,-2.6313,-2.911,-2.8741,-2.9484,-3.1092,-3.031,-2.9597,-2.8829,-2.686,-2.6126,-2.6227,-2.553,-2.5705,-2.6263,-2.524,-2.5018,-2.5084,-2.3923,-2.3822,-2.418,-2.4054,-2.418,-2.4399,-2.47,-2.4732,0.0,0.0,0.0,-2.531,-2.6716,-2.8298,-2.9804,-3.0758,-3.1612,-3.2466,-3.347,-3.3796,-3.4173,-3.5082,-3.5282,-3.5458,-3.6056,-3.6329,-3.6581,-3.7086,-3.7538,-3.804,-3.8818,-3.922,-3.9546,-3.9672,-3.9697,-3.9697,-3.9697,-3.9697,-3.9233,-3.8137,-3.8084,-3.7583,-3.6511,-3.6054,-3.5836,-3.5836,-3.5508,-3.4792,-3.3677,-3.3677,-3.3077,-3.2055,-3.3134,-3.3677,-3.3677,-3.3677,-3.3042,-3.1998,-3.1998,-3.1998,-3.2113,-3.3191,-3.3901,-3.437,-3.578,-3.6617,-3.7155,-3.794,-3.9118,-4.0467,0.0,0.0,0.0,0.0,0.0,0.0,0.0,0.0,0.0,0.0,0.0,0.0,-2.0993,-2.0845,-2.0597,-1.994,-1.9888,0.0,0.0,0.0,0.0,0.0,0.0,0.0,-2.3145,-2.2732,-2.2736,-2.3206,-2.321,-2.4406,-2.6696,-2.7167,-2.8268,-2.9896,-3.0231,-2.9778,-2.8666,-2.6537,-2.5769,-2.5853,-2.5122,-2.4879,-2.5023,-2.6013,-2.6382,-2.6273,-2.5134,-2.4725,-2.4675,-2.418,-2.3653,-2.3371,-2.4449,-2.4456,-2.4155,0.0,0.0,0.0,-2.6373,-2.772,-2.9088,-2.9729,-3.106,-3.2365,-3.2993,-3.352,-3.4073,-3.465,-3.4731,-3.4881,-3.5433,-3.6006,-3.6581,-3.7086,-3.7211,-3.7613,-3.8718,-3.8944,-3.912,-3.9622,-3.9697,-3.9697,-3.9697,-3.9697,-3.9697,-3.9569,-3.9594,-3.9517,-3.9465,-3.8137,-3.74,-3.74,-3.6054,-3.5233,-3.5178,-3.5178,-3.5123,-3.5068,-3.5123,-3.5178,-3.5178,-3.5178,-3.5123,-3.5068,-3.5068,-3.5068,-3.5068,-3.5123,-3.5999,-3.7293,-3.7394,-3.8606,-4.0237,-4.0312,-4.1093,-4.2103,0.0,0.0,0.0,0.0,0.0,0.0,0.0,0.0,0.0,0.0,0.0,0.0,0.0,-2.0144,-2.0042,-1.9837,-1.9811,0.0,0.0,0.0,0.0,0.0,0.0,0.0,-2.3095,-2.292,-2.292,-2.3095,-2.3095,-2.4048,-2.5946,-2.6113,-2.7092,-2.8699,-2.8842,-2.8502,-2.7764,-2.6232,-2.5449,-2.5192,-2.5282,-2.5762,-2.6414,-2.6474,-2.6927,-2.7369,-2.6264,-2.5636,-2.5285,-2.5084,-2.4431,-2.3753,-2.418,-2.3904,-2.3446,-2.3647,-2.4349,-2.5209,-2.5762,-2.6866,-2.8172,-2.9478,-3.0507,-3.1411,-3.2315,-3.2968,-3.352,-3.4073,-3.4198,-3.4474,-3.5332,-3.5658,-3.6006,-3.6558,-3.7008,-3.7337,-3.7739,-3.8466,-3.8994,-3.9145,-3.9471,-3.9697,-3.9697,-3.9697,-3.9697,-3.9697,-3.9697,-3.9697,-3.9697,-3.9181,-3.8921,-3.8921,-3.8425,-3.766,-3.6703,-3.6703,-3.6217,-3.5288,-3.6271,-3.6703,-3.6703,-3.6703,-3.721,-3.8084,-3.8084,-3.7049,-3.5343,-3.6325,-3.7026,-3.7583,-3.853,-3.9357,-4.0023,-4.0375,-4.1003,-4.1681,0.0,0.0,0.0,0.0,0.0,0.0,0.0,0.0,-2.2397,-2.1496,0.0,0.0,0.0,0.0,-1.9811,-1.9811,-1.9811,-1.9811,-1.9811,-2.0189,0.0,0.0,0.0,0.0,-2.3095,-2.292,-2.292,-2.3095,-2.3095,-2.3847,-2.5335,-2.5511,-2.6389,-2.7821,-2.7419,-2.7369,-2.7519,-2.6766,-2.6038,-2.5435,-2.6138,-2.6766,-2.7293,-2.753,-2.8047,-2.8524,-2.7454,-2.6766,-2.6389,-2.6013,-2.5285,-2.4506,-2.433,-2.3722,-2.3095,-2.3095,-2.3898,-2.4876,-2.5234,-2.6289,-2.7595,-2.89,-2.9779,-3.0583,-3.1461,-3.2265,-3.2893,-3.3269,-3.3495,-3.3897,-3.4781,-3.5107,-3.5504,-3.6279,-3.6707,-3.696,-3.7161,-3.7839,-3.8442,-3.8818,-3.9195,-3.9496,-3.9672,-3.9697,-3.9697,-3.9697,-3.9697,-3.9697,-3.9697,-3.9697,-3.9697,-3.9697,-3.9697,-3.9233,-3.8243,-3.8243,-3.7743,-3.678,-3.7767,-3.8243,-3.8243,-3.8243,-3.8792,-3.9697,-3.9697,-3.8582,-3.6834,-3.7796,-3.8243,-3.8348,-3.931,-3.9697,-3.9747,-4.0099,-4.0701,-4.1351,0.0,0.0,0.0,0.0,0.0,0.0,0.0,0.0,-2.2235,-2.0995,0.0,0.0,0.0,0.0,0.0,-1.9861,-1.9836,-1.9836,-1.9836,-1.9811,0.0,0.0,0.0,0.0,-2.307,-2.2569,-2.2569,-2.3095,-2.3095,-2.3672,-2.4775,-2.531,-2.6163,-2.7193,-2.6088,-2.649,-2.8021,-2.8021,-2.7419,-2.66,-2.7645,-2.777,-2.7494,-2.9151,-2.9779,-2.9654,-2.8549,-2.8147,-2.7971,-2.6927,-2.6172,-2.5561,-2.4983,-2.4023,-2.312,-2.312,-2.3898,-2.48,0.0,0.0,0.0,-2.7946,-2.8925,-2.988,-3.0457,-3.1411,-3.2164,-3.2215,-3.2667,-3.3219,-3.3796,-3.4349,-3.5052,-3.6204,-3.6405,-3.6606,-3.7086,-3.7186,-3.7588,-3.8743,-3.8894,-3.9069,-3.9622,-3.9697,-3.9697,-3.9697,-3.9697,-3.9697,-3.9697,-3.9697,-3.9697,-3.9697,-3.9697,-3.9697,-3.9697,-3.9697,-3.9697,-3.9697,-3.9697,-3.9697,-3.9697,-3.9697,-3.9697,-3.9697,-3.9697,-3.9697,-3.9697,-3.9697,-3.9697,-3.9697,-3.9697,-3.9697,-3.9697,-3.9697,-4.04,-4.1275,0.0,0.0,0.0,0.0,0.0,-2.3978,-2.2872,-2.23,-2.1828,0.0,0.0,0.0,-2.0492,-2.044,-2.0616,-2.0991,-2.0691,-2.044,-2.044,-2.0037,-2.0313,-2.1443,-2.1493,-2.1995,-2.307,-2.2945,-2.2945,-2.3095,-2.3095,-2.3471,-2.423,-2.4381,-2.5034,-2.6063,-2.5737,-2.5862,-2.6264,-2.5887,-2.6239,-2.7077,-2.6977,-2.7544,-2.8524,-2.8976,-2.9428,-2.9754,-2.9428,-2.9051,-2.8612,-2.8348,-2.762,-2.659,-2.5234,-2.433,-2.3678,-2.3221,-2.3898,-2.48,-2.48,0.0,0.0,0.0,0.0,0.0,-2.9804,-3.0557,-3.1286,-3.2064,-3.234,-3.2742,-3.3721,-3.4022,-3.45,-3.5579,-3.6107,-3.6455,-3.6606,-3.6983,-3.7312,-3.7613,-3.8416,-3.8969,-3.9094,-3.9471,-3.9697,-3.9697,-3.9697,-3.9697,-3.9697,-3.9697,-3.9697,-3.9697,-3.9697,-3.9697,-3.9697,-3.9697,-3.9697,-3.9697,-3.9697,-3.9697,-3.9697,-3.9697,-3.9697,-3.9697,-3.9697,-3.9697,-3.9697,-3.9697,-3.9697,-3.9697,-3.9697,-3.9697,-3.9697,-3.9697,-4.04,-4.1275,0.0,0.0,-2.5495,-2.5083,-2.4762,-2.4218,-2.325,-2.2459,-2.1895,0.0,0.0,0.0,-2.1043,-2.1245,-2.1393,-2.1468,-2.1219,-2.0943,-2.0717,-2.0365,-2.0564,-2.1443,-2.1493,-2.2121,-2.3446,-2.3221,-2.3221,-2.3471,-2.3221,-2.3271,-2.3627,-2.3627,-2.4104,-2.4933,-2.4682,-2.4833,-2.5209,-2.4424,-2.5084,-2.664,-2.7243,-2.7921,-2.8624,-2.9101,-2.9503,-2.9804,-2.9804,-2.9729,-2.9603,-2.9377,-2.8549,-2.7369,-2.5963,-2.5285,-2.4858,-2.4048,-2.4632,-2.5511,-2.5511,-2.5996,-2.6675,-2.7419,0.0,0.0,-2.9176,-2.9854,-3.0507,-3.1361,-3.1712,-3.2139,-3.3043,-3.3395,-3.3847,-3.468,-3.5504,-3.6107,-3.638,-3.6681,-3.6935,-3.7161,-3.7764,-3.8366,-3.8818,-3.917,-3.9446,-3.9672,-3.9697,-3.9697,-3.9697,-3.9697,-3.9697,-3.9697,-3.9697,-3.9697,-3.9697,-3.9697,-3.9697,-3.9697,-3.9697,-3.9697,-3.9697,-3.9697,-3.9697,-3.9697,-3.9697,-3.9697,-3.9697,-3.9697,-3.9697,-3.9697,-3.9697,-3.9697,-3.9697,-3.9697,-4.0249,-4.0974,0.0,0.0,-2.5644,-2.5704,-2.5102,-2.4408,-2.3776,-2.2963,-2.2264,0.0,-2.1769,-2.1794,-2.1845,-2.2171,-2.2221,-2.1794,-2.1644,-2.1343,-2.0817,-2.0717,-2.0943,-2.1496,-2.1493,-2.2246,-2.3879,-2.3371,-2.3346,-2.3904,-2.3346,-2.3095,-2.3095,-2.3095,-2.3371,-2.3879,-2.3271,-2.3597,-2.455,-2.3597,-2.4123,-2.5762,-2.7734,-2.8423,-2.8298,-2.9327,-2.9779,-2.988,-2.988,-3.0231,-3.0608,-3.0055,-2.9176,-2.8097,-2.7027,-2.6625,-2.6373,-2.531,-2.5737,-2.6575,-2.6575,-2.6625,-2.6901,-2.7795,-2.7695,0.0,-2.8524,-2.9227,-2.9854,-3.0407,-3.0934,-3.1461,-3.2014,-3.2541,-3.3068,-3.3621,-3.46,-3.5504,-3.6229,-3.638,-3.6581,-3.7036,-3.7136,-3.7588,-3.8642,-3.8793,-3.8969,-3.9471,-3.9572,-3.9622,-3.9697,-3.9697,-3.9697,-3.9697,-3.9697,-3.9697,-3.9697,-3.9697,-3.9697,-3.9697,-3.9697,-3.9697,-3.9697,-3.9697,-3.9697,-3.9697,-3.9697,-3.9697,-3.9697,-3.9697,-3.9697,-3.9697,-3.9697,-3.9697,-3.9697,-3.9697,-4.0049,-4.0601,-2.5196,-2.5501,-2.5764,-2.6303,-2.577,-2.5061,-2.4358,-2.3178,-2.2652,-2.3417,-2.3502,-2.3678,-2.413,-2.3421,-2.3095,-2.3477,-2.2673,-2.192,-2.1395,-2.0943,-2.0943,-2.1496,-2.1493,-2.2071,-2.3246,-2.317,-2.317,-2.3271,-2.317,-2.3095,-2.3095,-2.3095,-2.317,-2.3246,-2.2694,-2.2819,-2.3446,-2.3697,-2.4506,-2.5636,-2.6063,-2.7268,-2.8762,-2.8988,-2.9679,-3.0457,-3.0457,-3.0783,-3.116,-3.0633,-3.0005,-2.9277,-2.8147,-2.7469,-2.7027,-2.6373,-2.665,-2.7153,-2.7153,-2.7444,-2.772,-2.7494,-2.7695,0.0,-2.7645,-2.8373,-2.9214,-2.9829,-3.0382,-3.0934,-3.1461,-3.1637,-3.1888,-3.2441,-3.3119,-3.4048,-3.5504,-3.6081,-3.6455,-3.6556,-3.6958,-3.7262,-3.7487,-3.7914,-3.8216,-3.8316,-3.8768,-3.922,-3.9672,-3.9697,-3.9697,-3.9697,-3.9697,-3.9697,-3.9697,-3.9697,-3.9697,-3.9697,-3.9697,-3.9697,-3.9697,-3.9697,-3.9697,-3.9697,-3.9697,-3.9697,-3.9697,-3.9697,-3.9697,-3.9697,-3.9697,-3.9697,-3.9697,-3.9697,-4.0049,-4.0526,-2.5023,-2.5914,-2.6475,-2.6125,-2.5727,-2.5296,-2.4827,-2.3869,-2.356,-2.4671,-2.5059,-2.5109,-2.4825,-2.4274,-2.3948,-2.4004,-2.3195,-2.2468,-2.192,-2.1644,-2.1619,-2.1895,-2.1895,-2.2548,-2.3923,-2.3396,-2.3371,-2.3948,-2.3371,-2.3095,-2.3095,-2.3095,-2.3271,-2.3521,-2.2945,-2.302,-2.3547,-2.3547,-2.4205,-2.531,-2.6414,-2.767,-2.8938,-2.9515,-3.0131,-3.0658,-3.0909,-3.116,-3.1311,-3.0783,-3.0432,-2.9955,-2.8549,-2.8298,-2.8373,-2.7519,-2.767,-2.8097,-2.8097,-2.8097,-2.8097,-2.8097,-2.8097,0.0,0.0,-2.8487,-2.9063,-2.9679,-2.9779,-3.003,-3.0859,-3.0783,-3.0859,-3.1662,-3.2516,-3.3269,-3.3753,-3.5077,-3.6056,-3.638,-3.6656,-3.6933,-3.7161,-3.7437,-3.7713,-3.799,-3.8266,-3.8693,-3.9245,-3.9019,-3.912,-3.9672,-3.9421,-3.9421,-3.9697,-3.9697,-3.9697,-3.9697,-3.9697,-3.9697,-3.9697,-3.9697,-3.9697,-3.9697,-3.9697,-3.9697,-3.9697,-3.9697,-3.9697,-3.9697,-3.9697,-3.9697,-3.9697,-3.9697,-3.9873,-4.0149,-2.4724,-2.5908,-2.6672,-2.5705,-2.5321,-2.5154,-2.513,-2.4372,-2.4255,-2.5435,-2.6223,-2.6348,-2.5502,-2.5259,-2.5008,-2.4657,-2.3873,-2.3195,-2.2673,-2.2523,-2.2443,-2.2443,-2.2372,-2.305,-2.46,-2.3622,-2.3547,-2.4449,-2.3547,-2.3045,-2.2945,-2.3045,-2.3296,-2.3653,-2.3271,-2.3471,-2.413,-2.3521,-2.4098,-2.5553,-2.7268,-2.8222,-2.8712,-2.998,-3.0532,-3.0708,-3.1461,-3.1712,-3.1612,-3.0984,-3.0758,-3.0482,-2.8925,-2.9126,-2.9754,-2.8725,-2.8825,-2.9189,-2.9088,-2.885,-2.8649,-2.8838,-2.8712,-2.8624,0.0,0.0,0.0,-2.9553,-2.9352,-2.9339,-3.0281,-3.008,-3.008,-3.0934,-3.1938,-3.2466,-3.2114,-3.3652,-3.5152,-3.5852,-3.6028,-3.6257,-3.681,-3.6784,-3.7036,-3.7789,-3.7663,-3.7864,-3.8668,-3.8266,-3.8417,-3.9346,-3.8944,-3.8919,-3.9371,-3.9471,-3.9546,-3.9546,-3.9647,-3.9697,-3.9697,-3.9697,-3.9697,-3.9697,-3.9697,-3.9697,-3.9697,-3.9697,-3.9697,-3.9697,-3.9697,-3.9697,-3.9697,-3.9697,-3.9697,-3.9747,-2.4605,-2.4734,-2.499,-2.543,-2.4888,-2.4577,-2.5041,-2.4013,-2.3772,-2.5385,-2.6515,-2.7318,-2.7695,-2.6866,-2.6474,-2.6901,-2.5511,-2.4374,-2.3853,-2.3296,-2.302,-2.302,-2.2543,-2.2874,-2.4054,-2.3421,-2.317,-2.3296,-2.317,-2.2869,-2.2393,-2.2869,-2.2869,-2.2523,-2.292,-2.3697,-2.465,-2.413,-2.5385,-2.772,-2.7469,-2.7419,-2.7645,-2.9277,-3.0181,-3.0809,-3.234,-3.2935,-3.2717,-3.1662,-3.1311,-3.111,-2.9955,-3.003,-3.0407,-2.9779,-3.0005,-3.0306,-2.9829,-3.0005,-3.0105,-2.9139,-2.959,-2.9955,-2.8524,0.0,-2.9578,-2.9088,0.0,-2.9729,-2.9854,0.0,0.0,-2.9955,-3.0482,-3.1035,-3.1436,-3.2114,-3.2993,-3.4048,-3.46,-3.5082,-3.5633,-3.5232,-3.5629,-3.7161,-3.6335,-3.6436,-3.8015,-3.804,-3.8065,-3.8191,-3.814,-3.814,-3.8191,-3.8718,-3.902,-3.902,-3.9471,-3.9697,-3.9697,-3.9697,-3.9697,-3.9697,-3.9697,-3.9697,-3.9697,-3.9697,-3.9697,-3.9697,-3.9697,-3.9697,-3.9697,-3.9697,-3.9697,-3.9697,-2.3583,-2.4336,-2.4693,-2.3452,-2.3822,-2.4239,-2.397,-2.4849,-2.5787,-2.649,-2.7544,-2.8197,-2.8122,-2.7394,-2.7052,-2.7268,-2.6364,-2.5536,-2.4958,-2.4707,-2.4399,-2.4098,-2.3577,-2.3678,-2.4456,-2.3572,-2.3271,-2.3627,-2.3271,-2.2995,-2.2769,-2.2995,-2.3321,-2.3747,-2.3973,-2.4732,-2.5762,-2.5569,-2.5887,-2.6716,-2.7469,-2.757,-2.7544,-2.9854,-3.126,-3.2139,-3.2842,-3.3111,-3.296,-3.1763,-3.1386,-3.126,-3.0507,-3.0206,-3.0156,-3.0256,-3.0206,-3.008,-2.9854,-3.0206,-3.0432,-2.9628,-3.003,-3.0357,-2.9327,-2.9453,-2.9729,-2.9478,0.0,0.0,0.0,0.0,0.0,0.0,-3.0256,-3.0583,-3.0482,-3.121,-3.2164,-3.3294,-3.3621,-3.3972,-3.4525,-3.4374,-3.4801,-3.6132,-3.5458,-3.578,-3.7437,-3.7236,-3.7337,-3.799,-3.7688,-3.7688,-3.8015,-3.8241,-3.8542,-3.8919,-3.912,-3.9371,-3.9697,-3.9697,-3.9697,-3.9697,-3.9697,-3.9697,-3.9697,-3.9697,-3.9697,-3.9697,-3.9697,-3.9697,-3.9697,-3.9697,-3.9697,-3.9697,-2.2529,-2.3668,-2.4086,-2.2166,-2.2898,-2.368,-2.3387,-2.5209,-2.6766,-2.7218,-2.8122,-2.8674,-2.8574,-2.8072,-2.7795,-2.7946,-2.7354,-2.6776,-2.6314,-2.6013,-2.5737,-2.5511,-2.4682,-2.4481,-2.5034,-2.3898,-2.3471,-2.3753,-2.3321,-2.3095,-2.3095,-2.3095,-2.3547,-2.4349,-2.48,-2.5561,-2.6499,-2.665,-2.6826,-2.7042,-2.7971,-2.8448,-2.8825,-3.0683,-3.2089,-3.3111,-3.3111,-3.3111,-3.296,-3.1938,-3.1612,-3.1537,-3.0984,-3.0658,-3.0507,-3.0758,-3.0658,-3.0382,-3.0105,-3.0407,-3.0658,-2.9955,-3.0206,-3.0457,-2.9905,-2.9905,-2.998,-2.9829,-2.9578,0.0,0.0,0.0,-2.9302,-2.9729,0.0,-3.0256,-2.9854,-3.0457,-3.1311,-3.229,-3.2667,-3.2993,-3.3395,-3.3294,-3.3746,-3.4956,-3.4379,-3.4826,-3.6634,-3.6358,-3.6584,-3.7538,-3.7161,-3.7161,-3.7563,-3.7713,-3.799,-3.8466,-3.8768,-3.9069,-3.9471,-3.9622,-3.9697,-3.9697,-3.9697,-3.9697,-3.9697,-3.9697,-3.9697,-3.9697,-3.9697,-3.9697,-3.9697,-3.9697,-3.9697,-3.9697,-2.1875,-2.2235,-2.262,-2.2405,-2.2373,-2.2728,-2.3803,-2.4506,-2.5485,-2.7067,-2.777,-2.8549,-2.9628,-2.9227,-2.9063,-2.9654,-2.8699,-2.8047,-2.8021,-2.7052,-2.67,-2.7193,-2.5661,-2.5034,-2.5561,-2.4531,-2.3703,-2.312,-2.312,-2.3095,-2.3095,-2.3095,-2.312,-2.3221,-2.4858,-2.5946,-2.6524,-2.7052,-2.8499,-3.0357,-2.9289,-3.0181,-3.2014,-3.1562,-3.2089,-3.3111,-3.3111,-3.3111,-3.3036,-3.239,-3.219,-3.2089,-3.1537,-3.1712,-3.2039,-3.1512,-3.1738,-3.1913,-3.0859,-3.0959,-3.111,-3.0055,-3.0206,-3.0457,-2.9905,-3.0206,-3.0432,-2.9905,-3.0206,-3.0407,-2.988,-2.9779,-2.9779,-2.9804,-2.9804,0.0,0.0,-2.9829,-3.0055,-3.0633,-3.1612,-3.224,-3.2265,-3.1788,-3.2164,-3.3822,-3.2918,-3.3226,-3.5433,-3.5533,-3.583,-3.643,-3.643,-3.643,-3.6455,-3.6983,-3.7211,-3.7262,-3.8341,-3.8919,-3.8969,-3.9446,-3.9697,-3.9697,-3.9697,-3.9697,-3.9697,-3.9697,-3.9697,-3.9697,-3.9697,-3.9697,-3.9697,-3.9697,-3.9697,-3.9697,-2.1853,-2.2083,-2.2088,-2.0887,-2.1582,-2.2824,-2.4305,-2.531,-2.6364,-2.767,-2.8323,-2.895,-2.9704,-2.9628,-2.9578,-2.9779,-2.9453,-2.9076,-2.8674,-2.8298,-2.8021,-2.7846,-2.6942,-2.6364,-2.6197,-2.5435,-2.4607,-2.3703,-2.3703,-2.3703,-2.3703,-2.3296,-2.3496,-2.4274,-2.5586,-2.6524,-2.7153,-2.8775,-2.9503,-2.949,-2.9866,-3.1135,-3.2767,-3.2566,-3.2742,-3.3111,-3.3111,-3.3111,-3.3043,-3.2842,-3.2541,-3.224,-3.2441,-3.2114,-3.1712,-3.1888,-3.1813,-3.1587,-3.1235,-3.1512,-3.1687,-3.0608,-3.0733,-3.0909,-3.0005,-3.0206,-3.0457,-2.9905,-3.0231,-3.0457,-2.9905,-2.9804,-2.9804,-2.9804,-2.9804,-2.9804,0.0,-2.9804,-2.9854,-3.0055,-3.0708,-3.116,-3.116,-3.0984,-3.1562,-3.3219,-3.2641,-3.3018,-3.4856,-3.5307,-3.5583,-3.5805,-3.6182,-3.6405,-3.6405,-3.6581,-3.6883,-3.7186,-3.7939,-3.8492,-3.8944,-3.9446,-3.9697,-3.9697,-3.9697,-3.9697,-3.9697,-3.9697,-3.9697,-3.9697,-3.9697,-3.9697,-3.9697,-3.9697,-3.9697,-3.9747,-2.2088,-2.198,-2.1786,-2.0871,-2.192,-2.3351,-2.46,-2.5762,-2.6901,-2.7971,-2.8574,-2.9189,-3.0005,-3.008,-3.0156,-3.0357,-3.0357,-3.0131,-2.9515,-2.9352,-2.9076,-2.8725,-2.7971,-2.7394,-2.7077,-2.649,-2.5661,-2.4582,-2.4582,-2.4582,-2.4556,-2.3803,-2.3898,-2.485,-2.5996,-2.67,-2.7178,-2.9578,-3.0306,-2.9905,-3.1035,-3.2139,-3.3111,-3.3111,-3.3111,-3.3111,-3.3111,-3.3111,-3.3111,-3.3111,-3.2817,-3.2591,-3.3011,-3.2591,-3.2064,-3.2416,-3.2265,-3.1938,-3.1738,-3.1938,-3.2014,-3.111,-3.1135,-3.116,-3.0281,-3.0507,-3.0733,-3.0206,-3.0357,-3.0557,-3.0407,-3.0055,-2.9854,-3.0055,-2.993,-2.9804,0.0,-2.9804,-2.9804,-2.9804,-3.0105,-3.0331,-3.0331,-3.0331,-3.0834,-3.2114,-3.2039,-3.2566,-3.4048,-3.4806,-3.5282,-3.5483,-3.6081,-3.6405,-3.6405,-3.6405,-3.6581,-3.6933,-3.7437,-3.8015,-3.8592,-3.9145,-3.9496,-3.9697,-3.9697,-3.9697,-3.9697,-3.9697,-3.9697,-3.9697,-3.9697,-3.9697,-3.9697,-3.9697,-3.9697,-3.9772,-2.2507,-2.1988,-2.1794,-2.2347,-2.3276,-2.418,-2.4775,-2.5787,-2.6901,-2.7996,-2.8624,-2.9364,-3.0532,-3.0658,-3.0859,-3.1361,-3.1386,-3.1185,-3.0683,-3.0156,-2.988,-2.988,-2.8825,-2.8222,-2.8197,-2.7645,-2.6816,-2.5686,-2.5661,-2.5636,-2.5611,-2.4531,-2.433,-2.4876,-2.6047,-2.6524,-2.6725,-2.9478,-3.0959,-3.1562,-3.2641,-3.3111,-3.3068,-3.3025,-3.3025,-3.3025,-3.3068,-3.3111,-3.3111,-3.3111,-3.3111,-3.3111,-3.3111,-3.3111,-3.3111,-3.3111,-3.3111,-3.2968,-3.2441,-3.229,-3.2164,-3.1637,-3.1486,-3.1336,-3.0809,-3.1085,-3.1286,-3.0758,-3.0683,-3.0834,-3.126,-3.0532,-3.0005,-3.0482,-3.0131,-2.9804,-2.9804,-2.9804,-2.9804,-2.9804,-2.9804,-2.9804,-2.9804,-2.9804,-3.003,-3.0583,-3.106,-3.1838,-3.2968,-3.4073,-3.4881,-3.5433,-3.6056,-3.6405,-3.6405,-3.6405,-3.6405,-3.6405,-3.691,-3.7462,-3.8015,-3.8592,-3.917,-3.9697,-3.9697,-3.9697,-3.9697,-3.9697,-3.9697,-3.9697,-3.9697,-3.9697,-3.9697,-3.9697,-3.9697,-3.9772,-2.2439,-2.2892,-2.3527,-2.4048,-2.3697,-2.3954,-2.5762,-2.6323,-2.7027,-2.8524,-2.9227,-2.998,-3.1085,-3.1185,-3.1235,-3.1386,-3.1386,-3.1336,-3.121,-3.106,-3.0984,-3.0984,-3.0331,-2.9779,-2.9377,-2.88,-2.7971,-2.6841,-2.6474,-2.6273,-2.6248,-2.5134,-2.4883,-2.5435,-2.66,-2.7102,-2.7278,-3.003,-3.1738,-3.2667,-3.3011,-3.3111,-3.2982,-3.2064,-3.1689,-3.1821,-3.2742,-3.3111,-3.3111,-3.3111,-3.3111,-3.3111,-3.3111,-3.3111,-3.3111,-3.3111,-3.3111,-3.3144,-3.3395,-3.347,-3.3445,-3.3294,-3.2943,-3.2491,-3.1938,-3.1913,-3.1838,-3.1311,-3.1512,-3.1612,-3.0934,-3.0583,-3.0306,-3.0055,-2.988,-2.9804,-2.9804,-2.9804,-2.9804,-2.9804,-2.9804,-2.9804,-2.9804,-2.9804,-3.003,-3.0583,-3.0733,-3.1286,-3.2365,-3.3495,-3.4349,-3.4881,-3.5855,-3.6405,-3.6405,-3.6405,-3.6405,-3.6405,-3.691,-3.7462,-3.8015,-3.8592,-3.917,-3.9697,-3.9697,-3.9697,-3.9697,-3.9697,-3.9697,-3.9697,-3.9697,-3.9697,-3.9697,-3.9697,-3.9697,-3.9722,-2.316,-2.3929,-2.4958,-2.5762,-2.5184,-2.5008,-2.6298,-2.6901,-2.7519,-2.8448,-2.9277,-3.0105,-3.0959,-3.1461,-3.1863,-3.2114,-3.2114,-3.2014,-3.1763,-3.1763,-3.1637,-3.1411,-3.111,-3.0708,-3.0156,-2.9829,-2.9088,-2.7996,-2.7444,-2.7077,-2.6826,-2.5686,-2.531,-2.5636,-2.6766,-2.7293,-2.7469,-3.0231,-3.1888,-3.2674,-3.2383,-3.2283,0.0,-3.0911,-3.0395,-3.0485,-3.1247,-3.1821,-3.2196,-3.1645,-3.1821,-3.2196,-3.1645,-3.1612,-3.1848,-3.2474,-3.2779,-3.3113,-3.3995,-3.4248,-3.4248,-3.4248,-3.4022,-3.3596,-3.2767,-3.2591,-3.2441,-3.1863,-3.1813,-3.1813,-3.1712,-3.111,-3.0432,-2.988,-2.9804,-2.9804,-2.9804,-2.9804,-2.9804,-2.9804,-2.9804,-2.9804,-2.9804,-2.9804,-2.993,-3.0231,-3.0482,-3.0884,-3.1486,-3.2792,-3.3796,-3.4349,-3.5429,-3.6107,-3.6405,-3.6405,-3.6405,-3.6405,-3.6732,-3.7236,-3.8015,-3.8341,-3.8944,-3.9697,-3.9697,-3.9697,-3.9697,-3.9697,-3.9697,-3.9697,-3.9697,-3.9697,-3.9697,-3.9697,-3.9697,-3.9722,-2.4406,-2.5134,-2.6138,-2.7118,-2.7027,-2.6851,-2.6927,-2.7645,-2.8273,-2.8423,-2.9402,-3.0331,-3.0884,-3.1763,-3.2541,-3.3043,-3.3111,-3.2867,-3.2365,-3.2315,-3.2114,-3.1637,-3.1537,-3.1286,-3.0834,-3.0683,-3.0066,-2.9013,-2.8423,-2.7795,-2.7178,-2.6163,-2.5661,-2.5636,-2.6766,-2.7394,-2.777,-3.0148,-3.1481,-3.1903,-3.1229,-3.0956,-3.0822,-2.9624,-2.9189,-2.9143,-2.9024,-2.9875,-3.0822,-2.9806,-3.0193,-3.0871,-2.9897,-2.9935,-3.06,-3.1852,-3.2551,-3.3234,-3.4483,-3.4781,-3.4806,-3.4926,-3.4876,-3.455,-3.352,-3.3287,-3.3018,-3.2441,-3.1938,-3.1888,-3.2792,-3.1687,-3.0432,-2.988,-2.9804,-2.9804,-2.9804,-2.9804,-2.9804,-2.9804,-2.9804,0.0,-2.9804,-2.9804,-2.9804,-2.9804,-3.0231,-3.0557,-3.0708,-3.2139,-3.3294,-3.3972,-3.4956,-3.5805,-3.6405,-3.6405,-3.6405,-3.6405,-3.6405,-3.6935,-3.8015,-3.8015,-3.8617,-3.9697,-3.9697,-3.9697,-3.9697,-3.9697,-3.9697,-3.9697,-3.9697,-3.9697,-3.9697,-3.9697,-3.9697,-3.9772,-2.5996,-2.6575,-2.7077,-2.7278,-2.7946,-2.8649,-2.9126,-2.8976,-2.9088,-3.0055,-3.111,-3.2014,-3.2591,-3.2817,-3.2968,-3.3111,-3.3111,-3.3086,-3.2943,-3.2918,-3.2893,-3.2835,-3.2315,-3.2039,-3.1938,-3.106,-3.0306,-2.9628,-2.8624,-2.7595,-2.6625,-2.6424,-2.6097,-2.5636,-2.6766,-2.8047,-2.9414,-2.9747,-3.0217,-3.0659,-2.9985,-2.9715,-2.9579,-2.8355,-2.7908,-2.7831,-2.7171,-2.8132,-2.9738,-2.9866,-3.0047,-3.0255,-3.0424,-3.1291,-3.2277,-3.251,-3.3438,-3.4483,-3.5186,-3.5357,-3.5458,-3.5956,-3.573,-3.5182,-3.4575,-3.4073,-3.3596,-3.3043,-3.2842,-3.2692,-3.2416,-3.1411,-3.0432,-2.988,-2.9804,-2.9804,-2.9804,-2.9804,-2.9804,-2.9804,-2.9804,-2.9804,-2.9804,-2.9804,-2.9804,-2.9804,-2.988,-3.0331,-3.121,-3.1964,-3.3043,-3.4525,-3.5157,-3.5805,-3.6405,-3.6405,-3.6405,-3.6405,-3.6405,-3.6935,-3.8015,-3.8015,-3.8617,-3.9697,-3.9697,-3.9697,-3.9697,-3.9697,-3.9697,-3.9697,-3.9697,-3.9697,-3.9697,-3.9697,-3.9697,-3.9772,-2.757,-2.772,-2.7795,-2.8097,-2.8825,-2.9478,-2.9754,-3.0256,-3.0633,-3.0608,-3.1311,-3.1888,-3.2164,-3.2759,-3.3111,-3.3111,-3.3111,-3.3111,-3.3111,-3.3111,-3.3111,-3.3111,-3.2817,-3.2516,-3.2215,-3.1436,-3.0758,-3.0206,-2.88,-2.7846,-2.7329,-2.6776,-2.6348,-2.6122,-2.7218,-2.8473,-2.9777,-2.9663,-2.9754,-2.9891,-2.8877,-2.8448,-2.8351,-2.7345,-2.6964,-2.6927,-2.6813,-2.7341,-2.8168,-2.8397,-2.8851,-2.9311,-2.8929,-2.9409,-3.0373,-3.1789,-3.2814,-3.3792,-3.5506,-3.5981,-3.6031,-3.6355,-3.6157,-3.5755,-3.4901,-3.4525,-3.4098,-3.3244,-3.3111,-3.2893,-3.2315,-3.1562,-3.0934,-3.0658,-3.0156,-2.9905,-3.0181,-2.998,-2.9804,-2.9804,-2.9804,-2.9804,-2.9804,-2.9804,-2.9804,-2.9804,-2.9804,-3.0156,-3.0934,-3.1486,-3.2416,-3.3822,-3.4675,-3.5332,-3.5931,-3.6254,-3.6405,-3.6405,-3.6405,-3.6935,-3.8015,-3.8015,-3.8617,-3.9697,-3.9697,-3.9697,-3.9697,-3.9697,-3.9697,-3.9697,-3.9697,-3.9697,-3.9645,-3.8868,-3.8582,-3.881,-2.8712,-2.8674,-2.8574,-2.8838,-2.9503,-3.0005,-3.0105,-3.1311,-3.1913,-3.106,-3.1411,-3.1738,-3.1738,-3.2541,-3.3111,-3.3111,-3.3111,-3.3111,-3.3111,-3.3111,-3.3111,-3.3111,-3.3111,-3.2867,-3.2416,-3.1589,-3.0991,-3.0608,-2.8885,-2.794,-2.7745,-2.7153,-2.6746,-2.6561,-2.7494,-2.8348,-2.9062,-2.8934,-2.8892,-2.8861,-2.7768,-2.7318,-2.7284,-2.6745,-2.6523,-2.6582,-2.7012,-2.7148,-2.7168,-2.7246,-2.7852,-2.843,-2.7554,-2.7727,-2.8692,-3.1124,-3.2239,-3.3304,-3.5738,-3.6405,-3.6405,-3.6405,-3.6405,-3.6128,-3.4977,-3.468,-3.4399,-3.3294,-3.3111,-3.2893,-3.2315,-3.1863,-3.1486,-3.126,-3.0608,-3.0206,-3.0407,-3.0156,-2.993,-2.9804,-2.9679,-2.9654,-2.9779,-2.9679,-2.9654,-2.9779,-2.9804,-3.003,-3.0583,-3.1009,-3.1738,-3.2867,-3.3972,-3.4781,-3.5307,-3.6031,-3.6263,-3.5978,-3.6263,-3.6839,-3.7593,-3.7841,-3.8617,-3.9697,-3.9697,-3.9697,-3.9697,-3.9697,-3.9697,-3.9697,-3.9697,-3.9697,-3.9517,-3.8031,-3.753,-3.778,-2.8863,-2.9302,-2.9478,-2.8988,-2.979,-3.0708,-3.116,-3.1788,-3.2164,-3.2064,-3.2566,-3.296,-3.296,-3.3061,-3.3111,-3.3111,-3.3111,-3.3111,-3.3111,-3.3111,-3.3111,-3.3111,-3.3111,-3.3043,-3.2993,-3.1369,-3.0549,-3.0608,-2.8818,-2.7472,-2.6675,-2.7519,-2.741,-2.6542,-2.7105,-2.7128,-2.661,-2.6497,-2.665,-2.6932,-2.662,-2.6527,-2.6566,-2.6847,-2.6953,-2.7012,-2.7441,-2.7598,-2.7708,-2.8047,-2.8015,-2.7865,-2.81,-2.9064,-3.0348,-3.181,-3.3158,-3.4532,-3.6001,-3.6405,-3.6405,-3.6405,-3.6405,-3.6128,-3.4977,-3.468,-3.4399,-3.3294,-3.3111,-3.2893,-3.2315,-3.2164,-3.1813,-3.0834,-3.1009,-3.0909,-3.0005,-3.0256,-3.0357,-2.9854,-2.9327,-2.9227,-2.9754,-2.9327,-2.9189,-2.9754,-2.9804,-3.003,-3.0583,-3.0658,-3.1185,-3.2265,-3.3395,-3.4248,-3.4756,-3.583,-3.5763,-3.4581,-3.581,-3.6331,-3.6213,-3.7419,-3.8617,-3.9697,-3.9697,-3.9697,-3.9697,-3.9697,-3.9697,-3.9697,-3.9697,-3.9697,-3.9517,-3.8031,-3.753,-3.7459,-2.9453,-2.9352,-2.9428,-2.9816,-3.0306,-3.0909,-3.1763,-3.2365,-3.2742,-3.2742,-3.2943,-3.3111,-3.3111,-3.3111,-3.3111,-3.3111,-3.3111,-3.3111,-3.3111,-3.3111,-3.3111,-3.3111,-3.3111,-3.3111,-3.3111,-3.1355,-3.0761,-3.1562,-2.9108,-2.8096,-2.8485,-2.8222,-2.7828,-2.7356,-2.7546,-2.7481,-2.7145,-2.6931,-2.6998,-2.7108,-2.6834,-2.6758,-2.6816,-2.7246,-2.7402,-2.7461,-2.7891,-2.8047,-2.8066,-2.8242,-2.8184,-2.8066,-2.8242,-2.8654,-2.9355,-3.0721,-3.2101,-3.3453,-3.4824,-3.5763,-3.6405,-3.6405,-3.6405,-3.6128,-3.4977,-3.468,-3.4399,-3.3294,-3.3111,-3.3061,-3.2767,-3.2441,-3.219,-3.2114,-3.1687,-3.1361,-3.126,-3.0884,-3.0532,-3.0306,-2.9779,-2.9528,-2.9779,-2.9578,-2.9553,-2.9779,-2.9804,-3.003,-3.0583,-3.0608,-3.0959,-3.1687,-3.2356,-3.2831,-3.3026,-3.3624,-3.37,-3.3155,-3.37,-3.4186,-3.4751,-3.6162,-3.7861,-3.9697,-3.9697,-3.9697,-3.9697,-3.9697,-3.9697,-3.9697,-3.9697,-3.9697,-3.9413,-3.7049,-3.6346,-3.6304,-2.9804,-2.9603,-2.964,-3.0482,-3.0884,-3.1336,-3.2089,-3.2692,-3.3111,-3.3111,-3.3111,-3.3111,-3.3111,-3.3111,-3.3111,-3.3111,-3.3111,-3.2939,-3.2568,-3.2896,-3.2939,-3.2568,-3.2568,-3.2698,-3.3068,-3.0778,-3.0275,-3.1685,-2.8902,-2.8016,-2.8946,-2.8527,-2.7963,-2.7409,-2.7902,-2.7753,-2.7112,-2.7123,-2.7153,-2.7309,-2.7249,-2.7207,-2.7246,-2.7695,-2.7904,-2.7891,-2.8184,-2.8301,-2.8301,-2.8301,-2.8301,-2.8301,-2.8301,-2.8301,-2.8548,-2.9911,-3.0979,-3.2028,-3.3403,-3.4459,-3.5307,-3.5715,-3.581,-3.5682,-3.5086,-3.4781,-3.4399,-3.3294,-3.3111,-3.3111,-3.3111,-3.2742,-3.2541,-3.2792,-3.229,-3.1913,-3.1964,-3.1311,-3.0783,-3.0633,-2.998,-2.9603,-2.9779,-2.9628,-2.9603,-2.9779,-2.9592,-2.9752,-3.0317,-3.0532,-3.0598,-3.0622,-3.148,-3.1734,-3.1343,-3.1984,-3.2079,-3.1724,-3.2234,-3.2745,-3.3303,-3.4998,-3.6996,-3.9077,-3.9077,-3.931,-3.9697,-3.9697,-3.9697,-3.9697,-3.9697,-3.9413,-3.8739,-3.6217,-3.5268,-3.494,-2.9804,-3.0231,-3.0608,-3.0608,-3.1486,-3.219,-3.2215,-3.2692,-3.3111,-3.3111,-3.3111,-3.3111,-3.3111,-3.3111,-3.3111,-3.3111,-3.3111,-3.2568,-3.1311,-3.237,-3.2568,-3.1267,-3.1223,-3.1821,-3.3068,-2.951,-2.8532,-3.0438,-2.7916,-2.6766,-2.6943,-2.8226,-2.783,-2.6193,-2.7854,-2.7533,-2.5742,-2.6241,-2.6621,-2.7031,-2.7532,-2.7708,-2.7767,-2.8125,-2.8281,-2.8281,-2.8301,-2.8301,-2.8301,-2.8301,-2.8301,-2.8301,-2.8301,-2.8301,-2.8548,-2.9911,-3.0307,-3.0618,-3.1977,-3.2331,-3.2682,-3.4068,-3.4434,-3.4583,-3.5329,-3.5082,-3.4399,-3.3294,-3.3111,-3.3111,-3.3111,-3.3111,-3.2893,-3.2315,-3.2692,-3.2667,-3.1562,-3.1386,-3.1185,-3.0683,-2.959,-2.9176,-2.9729,-2.9277,-2.9176,-2.9754,-2.9173,-2.9084,-2.979,-3.0306,-3.0063,-2.8851,-3.0826,-3.1297,-3.0019,-3.1542,-3.1622,-3.038,-3.2126,-3.2608,-3.1897,-3.4241,-3.6085,-3.753,-3.753,-3.8348,-3.9697,-3.9697,-3.9697,-3.9697,-3.9697,-3.8792,-3.7346,-3.5836,-3.4653,-3.358,-3.0281,-3.0482,-3.0834,-3.1562,-3.1989,-3.234,-3.2742,-3.3011,-3.3111,-3.3111,-3.3111,-3.3111,-3.3111,-3.3111,-3.3111,-3.3111,-3.2326,-3.1645,-3.1223,-3.0822,-3.0777,-3.1178,-3.0395,-3.0553,-3.1777,-2.905,-2.829,-2.9715,-2.7702,-2.6958,-2.7477,-2.8203,-2.7965,-2.7019,-2.7835,-2.76,-2.6641,-2.707,-2.7344,-2.75,-2.793,-2.8086,-2.8105,-2.8242,-2.8301,-2.8301,-2.8301,-2.8301,-2.8301,-2.8301,-2.8301,-2.8301,-2.8301,-2.8301,-2.8388,-2.8794,-2.9565,-3.0411,-3.0824,-3.1571,-3.2632,-3.4068,-3.4385,-3.4583,-3.5329,-3.4781,-3.4073,-3.3721,-3.3345,-3.3111,-3.3111,-3.3111,-3.3061,-3.2842,-3.2943,-3.2943,-3.2634,-3.1888,-3.1336,-3.116,-3.0181,-2.9603,-2.9779,-2.9628,-2.9603,-2.9779,-2.9617,-2.9239,-2.8648,-2.8651,-2.8464,-2.8057,-2.8804,-2.9197,-2.9104,-2.9424,-2.9355,-2.8953,-2.9802,-3.0934,-3.223,-3.3287,-3.4626,-3.5999,-3.5999,-3.6271,-3.6727,-3.6727,-3.6727,-3.6727,-3.6727,-3.6379,-3.5836,-3.4348,-3.3961,-3.3959,-3.0809,-3.106,-3.1411,-3.2089,-3.239,-3.2667,-3.3018,-3.3111,-3.3111,-3.3111,-3.3111,-3.2939,-3.2413,-3.237,-3.2568,-3.3068,-3.1909,-3.1,-3.053,-2.9806,-2.9577,-3.0033,-2.9362,-2.9569,-3.0974,-2.8609,-2.7959,-2.9157,-2.7619,-2.7043,-2.7433,-2.8197,-2.8073,-2.7321,-2.8173,-2.8066,-2.7285,-2.7715,-2.7963,-2.793,-2.8359,-2.8535,-2.8535,-2.8711,-2.8769,-2.8769,-2.8769,-2.8769,-2.8769,-2.8769,-2.8769,-2.8769,-2.8769,-2.8769,-2.8711,-2.8379,-2.89,-2.9565,-2.9565,-3.0172,-3.1235,-3.3155,-3.3624,-3.3926,-3.5236,-3.4956,-3.4449,-3.4248,-3.3771,-3.3395,-3.3395,-3.3262,-3.3111,-3.3111,-3.3111,-3.2993,-3.2792,-3.1964,-3.1188,-3.0532,-2.9662,-2.8988,-2.8593,-2.8723,-2.8803,-2.8803,-2.8692,-2.8272,-2.7398,-2.8009,-2.8161,-2.7606,-2.8063,-2.8289,-2.833,-2.8298,-2.8379,-2.8535,-2.9121,-3.025,-3.1835,-3.2121,-3.3077,-3.4459,-3.4459,-3.4792,-3.5288,-3.5288,-3.5288,-3.5288,-3.5288,-3.4958,-3.4348,-3.3473,-3.3319,-3.3414,-3.1336,-3.1863,-3.2215,-3.2265,-3.2717,-3.3111,-3.3111,-3.3111,-3.3111,-3.3111,-3.3111,-3.2612,-3.1356,-3.1223,-3.1645,-3.2766,-3.1689,-3.0485,-2.9442,-2.9257,-2.8874,-2.825,-2.8147,-2.8891,-3.0515,-2.8216,-2.7531,-2.8695,-2.7531,-2.7012,-2.7012,-2.8186,-2.8106,-2.7121,-2.8697,-2.8798,-2.7787,-2.8125,-2.832,-2.8379,-2.8769,-2.8945,-2.9004,-2.9414,-2.9626,-2.9626,-2.9626,-2.9626,-2.9626,-2.9626,-2.9626,-2.9626,-2.9626,-2.9626,-2.9414,-2.8574,-2.834,-2.834,-2.8301,-2.8301,-2.89,-3.152,-3.228,-3.2967,-3.5073,-3.5533,-3.5357,-3.4831,-3.4349,-3.3947,-3.3947,-3.3495,-3.3187,-3.3187,-3.3093,-3.2867,-3.229,-3.1763,-3.0844,-2.9152,-2.8488,-2.78,-2.6697,-2.6934,-2.716,-2.716,-2.6902,-2.6564,-2.6187,-2.8224,-2.8831,-2.7363,-2.8229,-2.8431,-2.7748,-2.8105,-2.8516,-2.8965,-2.9805,-3.0449,-3.0898,-3.0898,-3.1652,-3.2964,-3.2964,-3.3754,-3.4958,-3.4958,-3.4958,-3.4958,-3.4958,-3.4125,-3.2964,-3.2964,-3.2603,-3.2229,-3.1913,-3.2114,-3.2365,-3.2792,-3.3036,-3.3111,-3.3111,-3.3111,-3.3111,-3.3111,-3.3111,-3.2612,-3.1356,-3.1223,-3.0956,-3.0328,-2.9189,-2.8727,-2.935,-2.7962,-2.7459,-2.8153,-2.7591,-2.7914,-2.9218,-2.7784,-2.7165,-2.745,-2.7165,-2.7012,-2.7031,-2.7653,-2.7811,-2.7591,-2.8246,-2.8443,-2.8144,-2.8262,-2.8476,-2.8769,-2.8887,-2.9121,-2.9434,-2.9587,-2.9626,-2.9626,-2.9626,-2.9626,-2.9626,-2.9626,-2.9626,-2.9626,-2.9626,-2.9626,-2.9473,-2.8926,-2.8769,-2.8711,-2.8379,-2.8301,-2.8708,-3.0359,-3.2353,-3.4289,-3.5852,-3.5855,-3.5458,-3.5332,-3.4856,-3.4525,-3.4525,-3.4073,-3.3696,-3.3696,-3.3345,-3.2867,-3.229,-3.2089,-3.1373,-2.9618,-2.9326,-2.8771,-2.7516,-2.7498,-2.7565,-2.7565,-2.7525,-2.7189,-2.6606,-2.7402,-2.7516,-2.6685,-2.7509,-2.8009,-2.8144,-2.8242,-2.8672,-2.9414,-2.9941,-3.0449,-3.0898,-3.0898,-3.1112,-3.1441,-3.1441,-3.1614,-3.194,-3.194,-3.194,-3.194,-3.194,-3.171,-3.1441,-3.1441,-3.1781,-3.2229,-3.2491,-3.2616,-3.2521,-3.2277,-3.2698,-3.2896,-3.2326,-3.2742,-3.2896,-3.2326,-3.2239,-3.1557,-2.9761,-2.9533,-2.928,-2.8634,-2.8147,-2.8179,-2.882,-2.7476,-2.7041,-2.7925,-2.7526,-2.7693,-2.8573,-2.7942,-2.7598,-2.7598,-2.7598,-2.7598,-2.7598,-2.7851,-2.7949,-2.7969,-2.8184,-2.8398,-2.8574,-2.8574,-2.8828,-2.9238,-2.9434,-2.9648,-2.9883,-3.0098,-3.0176,-3.0176,-3.0176,-3.0176,-3.0176,-3.0176,-3.0176,-3.0176,-3.0176,-3.0176,-3.0078,-2.9629,-2.9375,-2.916,-2.8945,-2.873,-2.8838,-3.0005,-3.2353,-3.4581,-3.5331,-3.5682,-3.5906,-3.5906,-3.5479,-3.4849,-3.4271,-3.3588,-3.3048,-3.3003,-3.1922,-3.1158,-3.1094,-3.0616,-2.9569,-2.7863,-2.7869,-2.7524,-2.6286,-2.6406,-2.6532,-2.6532,-2.6676,-2.6708,-2.6567,-2.6964,-2.7052,-2.666,-2.7324,-2.7871,-2.8281,-2.8691,-2.9199,-2.9863,-3.0293,-3.0644,-3.0898,-3.0898,-3.0898,-3.0898,-3.0898,-3.0898,-3.0898,-3.0898,-3.0898,-3.0898,-3.0898,-3.0898,-3.0898,-3.0898,-3.1426,-3.2229,-3.2993,-3.2939,-3.2481,-3.14,-3.1909,-3.2196,-3.1089,-3.1821,-3.2152,-3.1089,-3.0956,-3.0079,-2.7861,-2.76,-2.7573,-2.7419,-2.7786,-2.8042,-2.8174,-2.7502,-2.7285,-2.7708,-2.7787,-2.793,-2.8281,-2.8301,-2.8301,-2.8301,-2.8301,-2.8301,-2.8301,-2.8301,-2.8301,-2.8301,-2.8359,-2.8574,-2.8926,-2.8984,-2.9258,-2.9687,-3.0059,-3.0234,-3.0351,-3.0742,-3.0898,-3.0898,-3.0898,-3.0898,-3.0898,-3.0898,-3.0898,-3.0898,-3.0898,-3.0898,-3.082,-3.041,-3.0059,-2.9746,-2.9665,-2.9258,-2.9134,-3.0171,-3.2095,-3.3822,-3.4019,-3.5114,-3.6121,-3.6121,-3.57,-3.4977,-3.3839,-3.27,-3.1967,-3.1989,-3.026,-2.9077,-2.973,-2.8856,-2.7459,-2.5713,-2.5999,-2.59,-2.48,-2.5059,-2.5341,-2.5399,-2.5723,-2.6094,-2.6465,-2.6894,-2.7109,-2.7109,-2.7539,-2.7969,-2.8379,-2.9238,-2.9844,-3.0195,-3.0664,-3.0898,-3.0898,-3.0898,-3.0898,-3.0898,-3.0898,-3.0898,-3.0898,-3.0898,-3.0898,-3.0898,-3.0898,-3.0898,-3.0898,-3.0898,-3.1426,-3.2229,-3.3068,-3.2239,-3.1444,-3.1223,-3.0508,-2.9897,-2.9715,-2.9852,-2.992,-2.9715,-2.967,-2.9143,-2.7767,-2.76,-2.7338,-2.6626,-2.6962,-2.7472,-2.8147,-2.7803,-2.7598,-2.7728,-2.8008,-2.8223,-2.8301,-2.8301,-2.8301,-2.8301,-2.8301,-2.8301,-2.8301,-2.8301,-2.8301,-2.8301,-2.8672,-2.8848,-2.8945,-2.9316,-2.9707,-3.0098,-3.0176,-3.043,-3.0801,-3.0859,-3.0898,-3.0898,-3.0898,-3.0898,-3.0898,-3.0898,-3.0898,-3.0898,-3.0898,-3.0898,-3.0879,-3.0801,-3.0742,-3.0527,-2.9822,-2.9258,-2.9213,-3.0565,-3.0915,-3.1235,-3.2381,-3.3723,-3.4727,-3.4727,-3.4606,-3.451,-3.4315,-3.2526,-3.1382,-3.2441,-3.0721,-2.942,-2.9777,-2.941,-2.8385,-2.6238,-2.6798,-2.7016,-2.6183,-2.6152,-2.6328,-2.668,-2.6777,-2.6855,-2.6914,-2.7324,-2.7559,-2.7559,-2.7969,-2.8398,-2.8809,-2.9668,-3.0137,-3.0195,-3.0664,-3.0898,-3.0898,-3.0898,-3.0898,-3.0898,-3.0898,-3.0898,-3.0898,-3.0898,-3.0898,-3.0898,-3.0898,-3.0898,-3.0898,-3.0898,-3.1426,-3.2229,-3.138,-3.1689,-3.1601,-2.9579,-2.8982,-2.8659,-2.8448,-2.9004,-2.9189,-2.8495,-2.8402,-2.7955,-2.6716,-2.6572,-2.6512,-2.6397,-2.6777,-2.7266,-2.7895,-2.8001,-2.8008,-2.8008,-2.8184,-2.8301,-2.8301,-2.8301,-2.8301,-2.8301,-2.8301,-2.8301,-2.8301,-2.8301,-2.8418,-2.8633,-2.8828,-2.918,-2.9629,-2.9824,-3.0156,-3.0566,-3.0566,-3.0703,-3.0898,-3.0898,-3.0898,-3.0898,-3.0898,-3.0898,-3.0898,-3.0898,-3.0898,-3.0898,-3.0898,-3.0898,-3.0898,-3.0898,-3.0898,-3.0742,-3.0078,-2.9766,-2.9659,-2.9822,-3.029,-3.0779,-3.1124,-3.228,-3.3254,-3.3254,-3.3254,-3.3055,-3.2353,-3.1124,-3.0395,-3.0887,-2.894,-2.7692,-2.8498,-2.7721,-2.6812,-2.5966,-2.6532,-2.6872,-2.673,-2.6719,-2.6797,-2.6992,-2.7012,-2.7109,-2.7344,-2.7559,-2.7924,-2.832,-2.8535,-2.8945,-2.959,-3.0,-3.0332,-3.0566,-3.0781,-3.0898,-3.0898,-3.0898,-3.0898,-3.0898,-3.0898,-3.0898,-3.0898,-3.0898,-3.0898,-3.0898,-3.0898,-3.0898,-3.0918,-3.1152,-3.1621,-3.2207,-2.9829,-3.0687,-3.0935,-2.8096,-2.7626,-2.751,-2.722,-2.7934,-2.8215,-2.7268,-2.7173,-2.6812,-2.5839,-2.5771,-2.6055,-2.6504,-2.6914,-2.7344,-2.7793,-2.8125,-2.8301,-2.8301,-2.8301,-2.8301,-2.8301,-2.8301,-2.8301,-2.8301,-2.8301,-2.834,-2.8437,-2.8437,-2.8672,-2.9082,-2.918,-2.957,-3.0195,-3.0312,-3.0566,-3.0898,-3.0898,-3.0898,-3.0898,-3.0898,-3.0898,-3.0898,-3.0898,-3.0898,-3.0898,-3.0898,-3.0898,-3.0898,-3.0898,-3.0898,-3.0898,-3.0898,-3.0898,-3.082,-3.0449,-3.0273,-3.0039,-2.9375,-2.9942,-3.0529,-3.0075,-3.1025,-3.1958,-3.1847,-3.1825,-3.152,-3.0463,-2.9693,-2.9259,-2.9337,-2.7411,-2.6278,-2.7431,-2.6302,-2.5508,-2.584,-2.6269,-2.6699,-2.7129,-2.7168,-2.7207,-2.7305,-2.7305,-2.7461,-2.7793,-2.7812,-2.8203,-2.9043,-2.916,-2.9531,-3.0195,-3.0312,-3.0527,-3.0898,-3.0898,-3.0898,-3.0898,-3.0898,-3.0898,-3.0898,-3.0898,-3.0898,-3.0898,-3.0898,-3.0898,-3.0898,-3.0898,-3.0898,-3.0937,-3.1367,-3.1797,-3.2226,-2.9692,-2.8634,-2.7908,-2.7647,-2.6668,-2.5868,-2.582,-2.5917,-2.5917,-2.582,-2.582,-2.5771,-2.5693,-2.6094,-2.6504,-2.6934,-2.7363,-2.7793,-2.8223,-2.8281,-2.8301,-2.8301,-2.8301,-2.8301,-2.8301,-2.8301,-2.8301,-2.8301,-2.8301,-2.8496,-2.8867,-2.8867,-2.9101,-2.9531,-2.9922,-3.0137,-3.0234,-3.0664,-3.0859,-3.0898,-3.0898,-3.0898,-3.0898,-3.0898,-3.0898,-3.0898,-3.0898,-3.0898,-3.0898,-3.0898,-3.0898,-3.0898,-3.0898,-3.0898,-3.0898,-3.0898,-3.0898,-3.0879,-3.0859,-3.0527,-3.0176,-3.0117,-2.9917,-2.9561,-2.9129,-3.0072,-3.099,-3.0568,-3.0463,-3.0411,-3.0328,-2.8958,-2.8069,-2.8769,-2.7451,-2.6616,-2.7473,-2.6847,-2.6309,-2.6328,-2.6719,-2.7148,-2.7578,-2.7669,-2.7773,-2.8164,-2.8203,-2.8203,-2.8242,-2.8242,-2.8633,-2.9492,-2.9902,-3.0137,-3.0195,-3.0625,-3.0859,-3.0898,-3.0898,-3.0898,-3.0898,-3.0898,-3.0898,-3.0898,-3.0898,-3.0898,-3.0898,-3.0898,-3.0898,-3.0898,-3.0898,-3.0898,-3.0937,-3.1367,-3.1797,-3.2226,-2.7484,-2.7579,-2.7626,-2.662,-2.6014,-2.5693,-2.5693,-2.5693,-2.5693,-2.5693,-2.5693,-2.5693,-2.5693,-2.6133,-2.6562,-2.6973,-2.7422,-2.7904,-2.8262,-2.8301,-2.8301,-2.8301,-2.8301,-2.8301,-2.8301,-2.8301,-2.8301,-2.8301,-2.8555,-2.8769,-2.8926,-2.9199,-2.9551,-2.9961,-3.0117,-3.0351,-3.0644,-3.082,-3.0898,-3.0898,-3.0898,-3.0898,-3.0898,-3.0898,-3.0898,-3.0898,-3.0898,-3.0898,-3.0898,-3.0898,-3.0898,-3.0898,-3.0898,-3.0898,-3.0898,-3.0898,-3.0898,-3.0898,-3.0898,-3.0762,-3.0547,-3.0273,-3.0078,-2.9844,-2.9414,-2.9758,-3.0003,-2.9541,-2.946,-2.938,-2.9099,-2.8516,-2.8147,-2.8421,-2.7752,-2.7314,-2.7643,-2.714,-2.6875,-2.7148,-2.7324,-2.7578,-2.8008,-2.8047,-2.8125,-2.8281,-2.8301,-2.8301,-2.8301,-2.8789,-2.9355,-2.9941,-3.0391,-3.0625,-3.0625,-3.0801,-3.0898,-3.0898,-3.0898,-3.0898,-3.0898,-3.0898,-3.0898,-3.0898,-3.0898,-3.0898,-3.0898,-3.0898,-3.0898,-3.0898,-3.0898,-3.1055,-3.1328,-3.1758,-3.2187,-3.2617,-2.611,-2.6648,-2.7057,-2.5917,-2.5693,-2.5693,-2.5693,-2.5693,-2.5693,-2.5693,-2.5693,-2.5752,-2.5869,-2.6328,-2.6758,-2.7187,-2.7617,-2.7988,-2.8281,-2.8301,-2.8301,-2.8301,-2.8301,-2.8301,-2.8301,-2.8301,-2.8301,-2.8301,-2.8711,-2.8984,-2.9141,-2.957,-3.0,-3.041,-3.041,-3.0586,-3.0898,-3.0898,-3.0898,-3.0898,-3.0898,-3.0898,-3.0898,-3.0898,-3.0898,-3.0898,-3.0898,-3.0898,-3.0898,-3.0898,-3.0898,-3.0898,-3.0898,-3.0898,-3.0898,-3.0898,-3.0898,-3.0898,-3.0898,-3.0898,-3.082,-3.0488,-3.041,-3.0293,-2.9863,-2.9766,-2.9648,-2.9219,-2.9004,-2.8828,-2.8535,-2.8379,-2.8242,-2.8125,-2.7851,-2.7728,-2.7728,-2.7402,-2.7383,-2.7812,-2.7871,-2.7969,-2.8262,-2.8301,-2.8301,-2.8301,-2.8418,-2.8555,-2.8691,-2.9375,-2.9902,-3.0176,-3.0644,-3.0898,-3.0898,-3.0898,-3.0898,-3.0898,-3.0898,-3.0898,-3.0898,-3.0898,-3.0898,-3.0898,-3.0898,-3.0898,-3.0898,-3.0898,-3.0898,-3.0898,-3.0898,-3.1152,-3.1562,-3.2012,-3.2441,-3.2851,-2.5965,-2.5693,-2.5693,-2.5693,-2.5693,-2.5693,-2.5693,-2.5693,-2.5693,-2.5693,-2.5693,-2.5898,-2.6348,-2.6758,-2.7187,-2.7689,-2.8047,-2.8301,-2.8301,-2.8301,-2.8301,-2.8301,-2.8301,-2.8301,-2.8301,-2.8301,-2.8301,-2.8301,-2.8711,-2.9141,-2.9646,-3.0,-3.0449,-3.0898,-3.0898,-3.0898,-3.0898,-3.0898,-3.0898,-3.0898,-3.0898,-3.0898,-3.0898,-3.0898,-3.0898,-3.0898,-3.0898,-3.0898,-3.0898,-3.0898,-3.0898,-3.0898,-3.0898,-3.0898,-3.0898,-3.0898,-3.0898,-3.0898,-3.0898,-3.0898,-3.0898,-3.0898,-3.0898,-3.0762,-3.0312,-3.0195,-3.0078,-2.9668,-2.9238,-2.8926,-2.8926,-2.8574,-2.8164,-2.7787,-2.7728,-2.7728,-2.7728,-2.7728,-2.7832,-2.8242,-2.8301,-2.8301,-2.8301,-2.8301,-2.8301,-2.8301,-2.8691,-2.9121,-2.9551,-2.9961,-3.0195,-3.0195,-3.0644,-3.0898,-3.0898,-3.0898,-3.0898,-3.0898,-3.0898,-3.0898,-3.0898,-3.0898,-3.0898,-3.0898,-3.0898,-3.0898,-3.0898,-3.0898,-3.0898,-3.0898,-3.0898,-3.1152,-3.1582,-3.2012,-3.2441,-3.2851,-2.5791,-2.5693,-2.5693,-2.5693,-2.5693,-2.5693,-2.5693,-2.5693,-2.5693,-2.5693,-2.5693,-2.5898,-2.6348,-2.6758,-2.7187,-2.7689,-2.8047,-2.8301,-2.8301,-2.8301,-2.8301,-2.8301,-2.8301,-2.8301,-2.8301,-2.8301,-2.8437,-2.873,-2.916,-2.959,-3.0019,-3.0469,-3.0762,-3.0898,-3.0898,-3.0898,-3.0898,-3.0898,-3.0898,-3.0898,-3.0898,-3.0898,-3.0898,-3.0898,-3.0898,-3.0898,-3.0898,-3.0898,-3.0898,-3.0898,-3.0898,-3.0898,-3.0898,-3.0898,-3.0898,-3.0898,-3.0898,-3.0898,-3.0898,-3.0898,-3.0898,-3.0898,-3.0898,-3.0859,-3.0723,-3.0684,-3.0547,-3.0098,-2.9902,-2.9629,-2.9023,-2.8809,-2.8594,-2.8184,-2.8105,-2.8105,-2.8105,-2.8105,-2.8144,-2.8281,-2.8301,-2.8301,-2.8301,-2.8301,-2.8418,-2.8711,-2.9141,-2.957,-2.998,-3.0137,-3.0351,-3.0664,-3.082,-3.0898,-3.0898,-3.0898,-3.0898,-3.0898,-3.0898,-3.0898,-3.0898,-3.0898,-3.0898,-3.0898,-3.0898,-3.0898,-3.0898,-3.0898,-3.0898,-3.0918,-3.1211,-3.1601,-3.2031,-3.2461,-3.2871,-3.3242,-2.5693,-2.5693,-2.5693,-2.5693,-2.5693,-2.5693,-2.5693,-2.5693,-2.5693,-2.5693,-2.583,-2.6152,-2.6582,-2.7012,-2.7441,-2.7871,-2.8144,-2.8301,-2.8301,-2.8301,-2.8301,-2.8301,-2.8301,-2.8301,-2.8301,-2.8457,-2.8672,-2.8926,-2.9531,-2.9941,-3.0215,-3.0664,-3.0898,-3.0898,-3.0898,-3.0898,-3.0898,-3.0898,-3.0898,-3.0898,-3.0898,-3.0898,-3.0898,-3.0898,-3.0898,-3.0898,-3.0898,-3.0898,-3.0898,-3.0898,-3.0898,-3.0898,-3.0898,-3.0898,-3.0898,-3.0898,-3.0898,-3.0898,-3.0898,-3.0898,-3.0898,-3.0898,-3.0898,-3.0898,-3.0898,-3.0898,-3.082,-3.0527,-3.0332,-3.0039,-2.9512,-2.9141,-2.8828,-2.8574,-2.8398,-2.8301,-2.8301,-2.8301,-2.8301,-2.8301,-2.8437,-2.8535,-2.8535,-2.8691,-2.8965,-2.9394,-2.9668,-3.0,-3.0449,-3.0469,-3.0605,-3.0879,-3.0898,-3.0898,-3.0898,-3.0898,-3.0898,-3.0898,-3.0898,-3.0898,-3.0898,-3.0898,-3.0898,-3.0898,-3.0898,-3.0898,-3.0898,-3.0898,-3.0898,-3.0937,-3.1348,-3.1777,-3.2226,-3.2637,-3.3066,-3.3418,-2.5693,-2.5693,-2.5693,-2.5693,-2.5693,-2.5693,-2.5693,-2.5693,-2.5693,-2.5693,-2.6113,-2.6543,-2.6973,-2.7402,-2.7832,-2.8262,-2.8301,-2.8301,-2.8301,-2.8301,-2.8301,-2.8301,-2.8301,-2.832,-2.834,-2.873,-2.8945,-2.8984,-2.9805,-3.0215,-3.0273,-3.0703,-3.0898,-3.0898,-3.0898,-3.0898,-3.0898,-3.0898,-3.0898,-3.0898,-3.0898,-3.0898,-3.0898,-3.0898,-3.0898,-3.0898,-3.0898,-3.0898,-3.0898,-3.0898,-3.0898,-3.0898,-3.0898,-3.0898,-3.0898,-3.0898,-3.0898,-3.0898,-3.0898,-3.0898,-3.0898,-3.0898,-3.0898,-3.0898,-3.0898,-3.0898,-3.0898,-3.0898,-3.0547,-3.0254,-3.0195,-2.9551,-2.9023,-2.8984,-2.8652,-2.8418,-2.8418,-2.8418,-2.8418,-2.8418,-2.875,-2.8984,-2.8984,-2.9375,-2.9785,-3.0176,-3.0234,-3.0449,-3.0859,-3.0898,-3.0898,-3.0898,-3.0898,-3.0898,-3.0898,-3.0898,-3.0898,-3.0898,-3.0898,-3.0898,-3.0898,-3.0898,-3.0898,-3.0898,-3.0898,-3.0898,-3.0898,-3.0898,-3.0898,-3.0937,-3.1387,-3.1816,-3.2226,-3.2676,-3.3086,-3.3418,-2.5693,-2.5693,-2.5693,-2.5693,-2.5693,-2.5693,-2.5693,-2.5693,-2.5693,-2.5693,-2.6113,-2.6543,-2.6973,-2.7402,-2.7832,-2.8262,-2.8301,-2.8301,-2.8301,-2.8301,-2.8301,-2.8301,-2.8301,-2.8437,-2.8769,-2.8867,-2.9082,-2.9434,-2.9941,-3.0391,-3.0742,-3.084,-3.0898,-3.0898,-3.0898,-3.0898,-3.0898,-3.0898,-3.0898,-3.0898,-3.0898,-3.0898,-3.0898,-3.0898,-3.0898,-3.0898,-3.0898,-3.0898,-3.0898,-3.0898,-3.0898,-3.0898,-3.0898,-3.0898,-3.0898,-3.0898,-3.0898,-3.0898,-3.0898,-3.0898,-3.0898,-3.0898,-3.0898,-3.0898,-3.0898,-3.0898,-3.0898,-3.0898,-3.082,-3.0625,-3.0273,-3.0039,-2.9805,-2.9492,-2.9355,-2.9297,-2.9297,-2.9297,-2.9297,-2.9297,-2.9375,-2.9434,-2.9434,-2.9805,-3.0098,-3.0195,-3.0527,-3.0781,-3.0879,-3.0898,-3.0898,-3.0898,-3.0898,-3.0898,-3.0898,-3.0898,-3.0898,-3.0898,-3.0898,-3.0898,-3.0898,-3.0898,-3.0898,-3.0898,-3.0898,-3.0898,-3.0898,-3.0898,-3.0898,-3.0976,-3.1738,-3.209,-3.2266,-3.3008,-3.334,-3.3418,-2.5693,-2.5693,-2.5693,-2.5693,-2.5693,-2.5693,-2.5693,-2.5693,-2.5771,-2.6016,-2.6426,-2.6855,-2.7285,-2.7715,-2.8047,-2.8281,-2.8301,-2.8301,-2.8301,-2.8301,-2.8301,-2.8301,-2.8476,-2.8691,-2.8906,-2.9316,-2.9648,-2.9863,-3.0312,-3.0644,-3.0898,-3.0898,-3.0898,-3.0898,-3.0898,-3.0898,-3.0898,-3.0898,-3.0898,-3.0898,-3.0898,-3.0898,-3.0898,-3.0898,-3.0898,-3.0898,-3.0898,-3.0898,-3.0898,-3.0898,-3.0898,-3.0898,-3.0898,-3.0898,-3.0898,-3.0898,-3.0898,-3.0898,-3.0898,-3.0898,-3.0898,-3.0898,-3.0898,-3.0898,-3.0898,-3.0898,-3.0898,-3.0898,-3.0898,-3.082,-3.0566,-3.0351,-3.0117,-2.9902,-2.9707,-2.9626,-2.9626,-2.9626,-2.9626,-2.9626,-2.9746,-2.9961,-3.0176,-3.041,-3.0527,-3.0527,-3.0762,-3.0898,-3.0898,-3.0898,-3.0898,-3.0898,-3.0898,-3.0898,-3.0898,-3.0898,-3.0898,-3.0898,-3.0898,-3.0898,-3.0898,-3.0898,-3.0898,-3.0898,-3.0898,-3.0898,-3.0898,-3.0898,-3.0898,-3.0976,-3.1836,-3.2229,-3.2266,-3.3105,-3.3418,-3.3418,-2.5693,-2.5693,-2.5693,-2.5693,-2.5693,-2.5693,-2.5693,-2.5693,-2.5898,-2.6328,-2.6758,-2.7187,-2.7669,-2.8047,-2.8301,-2.8301,-2.8301,-2.8301,-2.8301,-2.8301,-2.832,-2.8398,-2.873,-2.8984,-2.9141,-2.9824,-3.0195,-3.0195,-3.0664,-3.0898,-3.0898,-3.0898,-3.0898,-3.0898,-3.0898,-3.0898,-3.0898,-3.0898,-3.0898,-3.0898,-3.0898,-3.0898,-3.0898,-3.0898,-3.0898,-3.0898,-3.0898,-3.0898,-3.0898,-3.0898,-3.0898,-3.0898,-3.0898,-3.0898,-3.0898,-3.0898,-3.0898,-3.0898,-3.0898,-3.0898,-3.0898,-3.0898,-3.0898,-3.0898,-3.0898,-3.0898,-3.0898,-3.0898,-3.0898,-3.0898,-3.0898,-3.0566,-3.0312,-3.0312,-3.0019,-2.9785,-2.9785,-2.9785,-2.9785,-2.9785,-3.0098,-3.0469,-3.0859,-3.0898,-3.0898,-3.0898,-3.0898,-3.0898,-3.0898,-3.0898,-3.0898,-3.0898,-3.0898,-3.0898,-3.0898,-3.0898,-3.0898,-3.0898,-3.0898,-3.0898,-3.0898,-3.0898,-3.0898,-3.0898,-3.0898,-3.0898,-3.0898,-3.0898,-3.0898,-3.0976,-3.1836,-3.2229,-3.2266,-3.3105,-3.3418,-3.3418,-2.5693,-2.5693,-2.5693,-2.5693,-2.5693,-2.5693,-2.5693,-2.5693,-2.5898,-2.6328,-2.6758,-2.7187,-2.7669,-2.8047,-2.8301,-2.8301,-2.8301,-2.8301,-2.8301,-2.8301,-2.8457,-2.8809,-2.8887,-2.9258,-3.0,-3.0137,-3.0195,-3.0195,-3.0664,-3.0898,-3.0898,-3.0898,-3.0898,-3.0898,-3.0898,-3.0898,-3.0898,-3.0898,-3.0898,-3.0898,-3.0898,-3.0898,-3.0898,-3.0898,-3.0898,-3.0898,-3.0898,-3.0898,-3.0898,-3.0898,-3.0898,-3.0898,-3.0898,-3.0898,-3.0898,-3.0898,-3.0898,-3.0898,-3.0898,-3.0898,-3.0898,-3.0898,-3.0898,-3.0898,-3.0898,-3.0898,-3.0898,-3.0898,-3.0898,-3.0898,-3.0898,-3.084,-3.0801,-3.0801,-3.0742,-3.0703,-3.0703,-3.0703,-3.0703,-3.0703,-3.0762,-3.082,-3.0879,-3.0898,-3.0898,-3.0898,-3.0898,-3.0898,-3.0898,-3.0898,-3.0898,-3.0898,-3.0898,-3.0898,-3.0898,-3.0898,-3.0898,-3.0898,-3.0898,-3.0898,-3.0898,-3.0898,-3.0898,-3.0898,-3.0898,-3.0898,-3.0898,-3.0898,-3.0898,-3.0976,-3.1836,-3.2229,-3.2266,-3.3105,-3.3418,-3.3418,-2.5693,-2.5693,-2.5693,-2.5693,-2.5693,-2.5693,-2.5693,-2.5693,-2.5927,-2.6641,-2.6894,-2.7266,-2.7949,-2.8184,-2.8301,-2.8301,-2.8301,-2.8301,-2.8301,-2.8301,-2.8476,-2.8906,-2.9141,-2.957,-3.0176,-3.0449,-3.0586,-3.0586,-3.0801,-3.0898,-3.0898,-3.0898,-3.0898,-3.0898,-3.0898,-3.0898,-3.0898,-3.0898,-3.0898,-3.0898,-3.0898,-3.0898,-3.0898,-3.0898,-3.0898,-3.0898,-3.0898,-3.0898,-3.0898,-3.0898,-3.0898,-3.0898,-3.0898,-3.0898,-3.0898,-3.0898,-3.0898,-3.0898,-3.0898,-3.0898,-3.0898,-3.0898,-3.0898,-3.0898,-3.0898,-3.0898,-3.0898,-3.0898,-3.0898,-3.0898,-3.0898,-3.0898,-3.0898,-3.0898,-3.0898,-3.0898,-3.0898,-3.0898,-3.0898,-3.0898,-3.0898,-3.0898,-3.0898,-3.0898,-3.0898,-3.0898,-3.0898,-3.0898,-3.0898,-3.0898,-3.0898,-3.0898,-3.0898,-3.0898,-3.0898,-3.0898,-3.0898,-3.0898,-3.0898,-3.0898,-3.0898,-3.0898,-3.0898,-3.0898,-3.0898,-3.0898,-3.0898,-3.0898,-3.0898,-3.0976,-3.1836,-3.2461,-3.291,-3.3281,-3.3418,-3.3418]}]]